GFSSGP_prec_cloud_003.txt.gz
Cloud_Cover
100 100 100 100 40 92 6 4 0 5 2 5 5 30 10 2 0 0 0 0 0 0 0 0 0 5 61 4 19 0 0 4 34 50 99 16 21 10 4 89 5 98 65 57 100 100 99 91 20
79 100 100 100 8 5 5 2 5 5 4 5 27 82 96 11 0 0 0 0 0 0 0 0 0 89 16 0 10 6 4 38 82 70 52 100 100 81 52 98 5 5 35 0 40 43 46 43 100
90 100 100 100 76 14 5 5 15 5 2 5 41 5 5 1 0 2 0 0 0 0 0 0 0 5 17 14 20 14 31 99 100 100 100 100 100 100 22 2 4 5 1 2 0 0 0 0 27
87 100 100 100 6 69 42 65 5 1 5 0 0 3 1 0 0 5 5 5 5 7 0 0 0 3 4 28 55 4 79 100 100 100 100 100 100 100 100 3 86 91 5 0 0 0 0 0 0
96 100 100 100 6 4 0 1 0 0 4 0 2 0 0 0 0 5 5 5 5 7 6 0 0 1 22 0 2 0 79 100 100 100 99 100 100 96 12 5 5 5 5 5 3 0 0 0 3
100 100 92 100 96 5 4 7 5 5 5 3 5 0 0 0 0 4 5 5 5 0 10 6 0 0 0 0 0 5 88 100 99 52 100 100 100 90 22 7 5 5 6 26 5 0 0 0 0
100 100 90 8 1 0 2 5 0 64 11 5 5 0 0 0 0 2 5 6 5 0 11 22 3 0 0 0 2 21 100 100 100 92 100 93 100 16 10 59 10 5 6 7 1 0 0 0 0
97 25 3 0 0 0 0 4 0 5 56 5 1 0 0 0 4 0 96 5 2 1 7 25 24 12 0 0 5 97 85 100 100 100 100 100 99 4 6 5 2 1 4 60 0 2 0 0 0
56 20 0 0 2 3 0 0 0 0 5 5 0 0 0 0 0 5 5 5 0 4 22 28 28 10 0 5 15 99 94 100 100 100 100 95 50 100 36 3 4 5 2 5 5 5 5 0 0
0 0 0 0 0 0 0 0 0 0 5 5 0 0 0 0 21 26 5 5 4 0 6 26 19 3 0 5 50 30 100 100 100 100 100 61 4 2 3 4 3 5 5 5 3 0 0 0 0
0 0 5 0 0 0 0 0 0 0 5 0 0 0 0 5 51 5 4 5 5 4 0 10 19 2 0 5 10 20 14 49 100 92 96 37 6 6 5 15 14 12 7 4 0 0 0 0 0
0 0 5 3 0 0 0 0 0 0 12 0 0 0 0 5 5 2 5 5 15 17 1 0 0 10 3 5 5 2 6 100 99 80 30 13 25 12 12 12 8 17 20 8 6 13 0 0 0
0 0 5 5 3 0 0 0 0 0 0 0 7 3 0 2 0 0 39 48 56 28 1 0 0 5 1 0 2 6 91 100 100 59 6 12 18 14 5 1 8 14 19 21 19 20 15 7 0
0 0 2 4 0 0 0 0 0 0 0 4 92 17 4 5 3 0 2 15 5 0 0 0 4 2 0 1 5 38 79 44 5 5 15 31 97 14 5 0 1 20 25 19 12 3 3 5 2
3 0 0 0 5 0 0 0 0 0 5 98 100 71 34 8 5 0 0 0 0 0 0 0 5 5 0 0 0 2 8 5 22 41 97 100 31 5 0 0 0 0 4 5 5 4 5 7 4
3 38 4 3 5 0 0 0 0 0 47 100 100 99 18 8 44 2 0 0 0 0 0 0 0 0 0 0 0 4 4 8 5 10 100 100 16 1 0 0 2 5 15 56 36 5 0 0 1
61 83 2 3 5 0 0 0 0 4 71 100 100 56 5 4 2 0 0 0 0 0 0 0 0 0 0 0 2 5 5 5 12 35 98 42 4 0 0 0 0 2 5 5 5 5 0 0 0
33 73 2 5 3 0 0 0 0 9 35 98 100 100 83 60 0 0 0 0 0 0 0 0 0 0 0 0 5 5 24 17 92 54 29 5 0 0 0 5 1 0 5 5 0 8 33 34 23
95 10 5 5 4 0 0 0 3 86 97 74 100 100 90 16 5 3 0 0 0 0 0 0 0 0 0 5 30 92 100 89 46 69 5 0 0 0 4 5 5 4 5 5 5 6 17 18 24
100 5 5 5 4 0 0 1 5 100 100 97 75 44 14 9 5 5 0 0 1 7 10 65 34 3 4 5 5 5 15 5 26 12 5 0 1 1 1 5 5 5 5 5 5 5 28 42 45
37 16 5 5 0 0 0 0 0 89 95 19 28 14 96 100 76 24 23 71 93 100 83 66 89 67 29 11 5 5 10 5 4 5 3 0 4 5 0 2 5 5 5 28 46 61 57 57 98
96 55 95 6 0 0 0 0 5 65 100 6 70 98 87 100 100 100 100 100 100 31 5 9 5 6 32 74 6 5 5 5 4 0 0 0 1 5 5 6 44 57 29 49 67 95 100 100 100
61 95 87 33 3 3 1 2 0 99 57 5 42 100 80 15 91 44 66 67 76 6 5 6 5 48 56 5 5 1 0 0 0 2 4 5 7 7 14 39 22 49 92 100 100 66 14 40 93
96 92 87 5 4 3 2 4 0 88 48 5 5 100 100 93 4 5 4 8 28 6 0 0 9 34 4 0 0 0 5 5 27 91 100 100 100 74 94 100 100 93 53 5 6 5 13 24 5
79 90 74 4 2 0 3 5 0 99 5 5 1 2 5 20 4 0 0 0 0 0 0 0 0 0 0 0 5 5 11 48 77 75 98 100 100 100 98 64 28 8 14 50 40 45 12 43 11
5 5 5 0 0 0 0 4 2 97 5 5 5 5 0 0 0 0 0 0 0 0 0 0 0 0 2 5 5 5 46 86 100 100 89 59 49 46 48 88 96 99 75 34 25 53 92 99 55
5 5 0 0 5 8 0 0 0 100 14 5 5 5 2 1 0 0 0 0 0 0 0 0 5 5 5 5 30 27 6 28 76 83 66 69 41 26 16 85 93 62 53 14 5 7 5 5 4
5 4 0 4 5 5 0 0 0 99 38 5 2 5 7 0 0 1 0 0 0 0 2 5 5 5 5 5 17 75 94 62 25 7 24 22 5 5 5 5 5 6 5 5 5 4 2 0 0
5 0 0 0 1 1 0 0 0 50 54 32 5 5 5 10 5 5 5 3 1 5 24 27 6 55 34 79 96 100 80 29 29 11 5 28 54 62 46 89 68 8 5 5 4 2 0 1 3
0 0 0 0 0 0 0 0 0 18 100 22 99 97 7 87 68 5 5 5 5 5 11 60 68 95 96 98 43 40 7 10 19 37 43 93 57 84 32 5 5 0 0 0 0 0 0 0 0

GFSSGP_prec_cloud_006.txt.gz
Cloud_Cover
100 100 100 99 17 32 7 5 5 26 95 9 47 5 4 3 0 0 0 0 0 0 0 0 1 0 4 88 18 2 0 0 0 0 96 86 56 5 69 37 97 100 83 10 99 100 100 7 89
100 100 99 91 71 96 61 100 38 5 5 2 5 5 34 18 10 0 0 0 0 0 0 0 0 0 82 46 28 4 0 0 0 30 8 100 58 76 91 99 2 2 2 5 42 46 82 25 91
100 100 100 100 100 72 16 11 24 5 20 6 3 4 5 67 18 3 5 5 0 0 1 0 0 70 78 58 0 5 2 7 0 3 5 7 14 9 88 88 2 3 0 1 4 0 0 0 38
86 100 100 100 50 99 6 5 18 5 5 10 15 4 24 5 4 0 5 5 3 5 4 0 1 4 4 0 21 18 3 2 0 20 68 63 100 100 93 79 5 2 0 0 0 0 0 0 0
76 100 100 99 62 5 5 86 100 98 40 38 30 4 4 2 0 0 0 5 5 17 5 0 2 1 13 0 7 2 1 0 0 16 100 100 100 100 100 100 10 4 5 5 2 0 0 0 0
5 10 96 92 6 5 19 98 100 97 5 5 4 0 0 0 0 0 0 4 5 9 11 0 0 0 0 6 13 13 0 0 0 52 100 100 100 100 100 94 5 1 0 23 50 1 0 0 0
78 5 7 6 35 5 9 43 100 82 72 21 5 4 0 0 0 0 5 5 5 5 12 22 6 0 0 0 0 0 0 0 2 87 100 100 20 87 44 4 12 3 4 100 100 55 63 3 0
100 97 38 5 3 5 40 35 90 33 14 7 5 5 1 0 0 0 5 19 36 5 3 29 25 5 0 0 0 0 0 3 59 52 100 100 100 100 100 69 26 5 5 98 100 31 20 5 5
5 100 100 100 33 11 29 84 49 11 5 5 44 7 0 0 0 0 3 44 79 5 8 23 34 36 14 0 0 7 17 5 90 61 25 100 68 100 100 7 7 5 2 5 100 100 67 0 0
23 18 0 51 100 89 5 7 5 4 0 0 6 100 2 0 0 1 5 95 93 16 35 31 33 32 28 13 0 4 6 5 21 65 96 100 96 99 89 78 29 5 5 5 0 2 7 0 0
5 31 5 5 6 6 5 2 5 3 0 0 5 7 5 0 0 5 4 100 40 79 22 13 29 18 18 14 2 14 18 75 100 100 99 100 100 100 38 7 8 5 4 14 2 1 5 0 0
0 0 0 3 5 9 20 0 0 0 0 0 5 4 3 0 10 96 15 98 52 5 5 7 11 24 16 13 3 5 21 17 16 6 100 100 89 62 4 18 5 6 9 14 18 28 11 0 0
0 0 0 0 3 3 0 0 0 0 0 0 4 0 0 5 100 94 53 94 5 5 12 66 5 11 16 17 11 1 4 15 7 5 24 100 18 20 12 16 13 11 10 23 16 18 4 8 1
0 0 0 0 1 0 0 0 0 0 0 0 0 0 4 36 80 6 87 44 1 10 70 14 5 2 7 0 6 0 0 4 18 96 99 100 86 18 48 96 9 12 10 5 7 6 6 7 6
5 3 2 0 0 5 1 0 0 0 0 0 0 0 5 5 41 44 6 2 0 0 6 80 7 5 2 5 0 0 0 1 5 12 80 8 5 6 91 100 10 0 3 0 3 9 18 36 17
16 24 4 0 0 4 2 0 0 0 0 0 0 1 18 94 100 100 91 6 0 0 0 0 5 2 0 0 0 0 0 0 1 0 2 5 5 11 5 40 5 2 0 1 0 6 5 6 10
100 62 35 0 0 1 1 0 0 0 0 0 0 0 14 100 100 100 24 24 19 4 0 0 0 0 0 0 0 0 0 2 0 0 1 3 5 5 8 5 5 1 1 0 15 30 93 100 100
41 100 31 0 4 4 0 0 0 0 0 0 0 6 100 100 100 90 71 2 0 0 0 0 0 0 0 0 0 0 0 0 1 1 0 4 4 5 18 7 8 19 14 4 6 9 32 65 35
7 12 5 4 5 0 0 0 0 0 0 5 5 98 100 100 94 95 100 5 5 0 0 0 0 1 0 0 0 0 0 0 0 5 19 37 9 5 9 19 5 0 0 0 5 52 99 95 86
6 99 50 5 5 0 1 0 0 0 2 5 5 88 97 99 99 100 100 58 2 1 0 0 2 32 5 0 0 0 0 4 5 13 26 12 4 4 4 5 6 1 11 12 18 74 96 100 100
93 84 64 3 5 0 0 0 0 0 2 5 2 96 100 100 91 86 100 48 10 4 4 25 77 50 5 5 4 2 5 6 5 5 5 5 5 3 0 1 0 0 6 12 30 29 59 67 74
97 36 100 24 23 1 0 0 0 0 0 56 64 5 100 100 34 86 100 100 100 99 100 100 100 98 30 18 5 31 62 18 5 1 0 0 0 0 0 4 5 5 6 8 15 25 33 8 6
3 88 98 100 100 5 0 0 0 0 0 5 5 5 95 100 60 8 90 100 100 100 99 85 38 67 96 75 38 5 5 5 0 0 0 1 5 5 5 5 5 5 5 5 5 5 5 5 5
73 76 100 100 100 34 0 0 0 0 0 5 4 5 4 100 87 7 87 100 97 13 19 9 60 64 18 5 5 23 5 0 0 1 5 5 5 14 24 12 5 9 5 5 5 29 31 34 71
100 98 100 76 48 2 0 2 0 0 0 0 0 5 5 100 100 7 2 2 4 0 0 0 0 0 0 0 0 0 0 2 2 5 5 5 5 5 5 10 7 5 5 5 5 5 5 5 5
100 100 59 5 4 0 0 1 0 0 0 0 0 5 5 100 100 43 0 0 0 0 0 0 0 0 0 0 0 0 0 4 5 5 5 5 16 5 5 5 13 37 34 6 5 5 5 5 5
100 84 63 5 5 3 0 0 0 0 0 0 0 1 5 5 79 20 2 0 0 0 0 0 0 0 0 0 0 4 5 5 5 13 48 12 5 6 10 17 10 5 5 5 5 5 5 5 5
91 70 45 5 5 0 0 0 0 0 0 0 0 0 31 6 31 22 5 5 4 1 0 0 5 17 5 5 4 5 6 11 42 96 50 49 63 54 17 5 5 5 5 5 10 5 3 2 2
99 46 42 41 6 0 0 0 0 0 0 0 0 0 28 99 6 1 5 8 9 32 29 79 72 16 42 56 50 78 96 100 100 86 83 12 5 5 5 5 7 6 7 1 0 0 0 0 0
87 63 5 5 0 0 0 0 0 0 0 0 0 0 5 20 5 5 6 96 100 100 100 100 100 100 100 100 100 100 98 86 17 5 5 5 5 4 5 1 0 0 0 0 0 0 0 0 0

GFSSGP_prec_cloud_009.txt.gz
Cloud_Cover
100 92 99 10 100 100 100 100 100 100 88 12 22 5 5 5 0 0 0 0 0 0 0 0 11 1 81 33 0 0 0 0 0 0 55 47 51 5 96 41 97 14 95 0 50 43 44 97 68
100 100 100 100 100 82 99 83 43 78 98 80 100 7 4 5 1 2 1 0 0 0 0 0 4 4 27 0 56 21 1 0 0 28 14 69 71 74 70 8 11 1 5 0 2 42 96 53 31
76 100 100 100 100 100 81 10 21 21 50 100 29 100 7 4 47 5 5 0 0 0 0 0 0 0 80 35 77 14 4 9 0 0 29 100 98 67 5 0 4 2 100 67 4 0 0 0 0
60 100 100 100 100 100 95 99 6 9 74 61 25 28 20 5 66 5 5 0 0 0 0 1 0 1 85 1 0 0 0 3 0 0 0 51 89 22 5 50 100 100 100 8 5 2 10 0 0
76 100 100 100 100 24 6 38 100 100 66 83 100 58 42 81 5 5 5 0 0 0 5 0 0 0 0 0 0 0 6 1 0 0 8 90 100 100 56 100 100 100 100 68 5 5 0 0 0
84 96 100 100 100 45 52 100 100 100 62 90 100 100 74 5 5 4 1 0 0 0 3 4 0 0 0 11 3 5 0 0 0 0 56 89 88 100 100 100 100 100 100 71 100 100 30 5 0
5 100 100 100 14 5 5 58 100 69 23 52 30 6 4 17 5 3 0 0 0 1 0 0 0 1 0 0 0 0 1 0 0 0 0 3 88 100 100 100 19 7 5 89 100 100 100 100 100
68 5 100 100 5 5 3 2 5 8 57 7 5 5 19 5 5 4 4 0 5 0 5 5 2 16 9 15 0 0 3 0 0 0 0 24 70 100 100 100 100 100 100 44 100 100 100 100 96
100 100 62 76 33 5 5 5 5 5 5 5 5 5 16 5 4 2 0 0 0 1 5 5 5 15 16 9 0 24 84 97 7 0 1 69 100 100 100 100 100 100 92 5 27 99 100 100 81
94 96 17 5 34 47 76 5 4 4 5 2 5 21 32 6 5 4 0 0 0 1 5 5 5 15 32 29 16 10 0 0 1 0 5 100 68 96 93 100 100 81 68 83 2 4 4 0 1
2 71 7 5 5 12 100 99 79 12 30 27 17 5 5 5 5 1 0 0 1 5 5 5 5 5 29 36 30 32 18 3 5 7 100 62 7 100 100 100 100 99 14 4 5 5 5 0 0
0 0 5 5 5 5 3 5 16 43 21 5 5 5 4 0 0 0 5 5 67 75 20 14 5 84 15 19 19 0 4 8 5 6 52 71 100 100 100 100 88 5 8 5 5 5 3 0 0
0 0 0 3 5 5 5 5 5 5 5 1 4 5 3 0 1 5 5 5 5 9 45 66 51 98 8 26 5 0 0 30 14 94 93 72 88 100 100 100 24 5 5 5 5 5 0 0 0
0 0 0 1 5 5 5 4 0 0 4 2 0 0 0 2 3 5 5 5 5 72 38 100 62 97 10 70 5 4 2 5 3 49 56 15 22 83 15 5 15 5 5 5 4 0 0 0 0
0 3 0 0 0 0 0 0 0 0 0 0 0 0 1 0 4 5 5 5 5 50 21 37 5 0 6 34 5 5 5 0 0 5 92 34 83 100 100 43 5 4 5 5 5 1 4 2 6
15 56 3 0 0 0 0 1 1 0 0 0 0 0 0 0 50 61 71 90 82 10 5 14 5 3 0 2 1 1 5 0 3 3 4 4 5 5 0 4 2 1 4 5 5 5 1 0 0
99 6 1 0 0 1 0 0 0 0 0 0 0 0 0 4 20 17 98 100 32 4 4 1 1 0 0 0 0 0 0 0 2 2 0 0 0 0 0 0 0 4 5 5 5 5 27 23 42
96 99 68 1 3 0 0 0 4 0 0 0 0 0 0 0 2 54 100 80 78 9 4 0 0 0 0 0 0 0 0 0 0 0 0 4 1 0 4 5 4 7 5 4 28 66 96 100 100
100 16 5 0 5 5 0 0 0 0 0 0 0 0 0 5 82 96 100 88 100 59 5 5 0 0 0 0 0 0 0 0 0 0 0 0 5 10 65 76 12 5 5 5 0 5 5 4 44
8 100 5 4 8 10 0 0 0 0 0 0 0 0 4 5 23 94 100 99 21 36 65 60 1 0 1 1 5 0 0 0 0 0 1 4 5 10 7 5 4 3 0 0 0 0 0 5 5
5 5 3 5 54 20 0 0 0 0 0 0 0 1 5 20 5 93 88 100 39 12 96 98 89 79 93 5 2 0 0 0 3 5 5 5 5 2 0 0 0 0 0 0 0 0 0 0 3
5 32 5 6 39 5 5 4 0 0 0 0 0 5 5 5 5 8 81 10 50 6 51 100 100 93 88 5 4 5 5 3 4 5 4 5 5 0 0 0 4 5 2 0 0 0 4 3 1
20 54 23 73 80 32 1 5 0 3 0 2 0 3 5 5 5 6 99 64 5 5 5 6 49 100 100 100 100 94 60 5 5 2 4 5 0 0 0 0 0 0 0 0 0 3 5 7 5
8 100 59 37 88 45 0 2 0 3 0 4 0 4 19 100 56 55 76 100 5 36 19 5 5 4 53 98 100 99 39 4 2 0 0 0 0 0 1 1 0 2 3 38 77 36 7 5 4
100 70 92 93 99 8 0 0 0 0 0 0 0 0 8 63 5 5 5 3 5 75 100 100 22 0 0 0 0 0 0 0 0 0 0 1 4 5 5 5 12 6 6 5 5 5 5 5 4
100 55 53 100 5 5 0 0 0 0 0 0 0 0 0 0 2 5 5 0 5 77 100 100 76 5 2 5 1 5 1 0 0 4 5 17 11 7 48 62 43 83 98 16 5 5 5 5 4
100 95 55 46 5 2 0 0 0 0 0 0 0 0 0 0 3 5 0 0 0 5 13 100 90 43 49 20 5 5 39 71 62 31 33 30 70 82 100 100 99 58 12 8 5 5 5 5 0
25 26 100 92 6 5 0 0 0 0 0 0 0 0 0 0 0 1 0 0 0 0 7 9 18 98 53 43 74 74 84 60 37 6 29 80 99 79 67 66 33 41 7 5 5 5 0 0 0
41 84 69 98 6 5 0 0 0 0 0 0 0 0 0 0 0 0 0 0 0 4 5 28 68 8 8 22 91 93 56 12 77 68 56 18 5 5 4 4 5 5 5 5 2 0 0 0 0
5 8 52 10 5 4 3 0 0 0 0 0 0 0 0 0 0 0 0 0 4 5 74 10 5 5 8 91 89 100 99 88 41 56 5 5 5 3 5 5 5 5 5 0 0 0 0 0 0

GFSSGP_prec_cloud_012.txt.gz
Cloud_Cover
100 100 100 56 14 28 14 30 100 100 100 100 100 100 54 3 1 0 0 0 0 0 0 0 18 0 5 38 53 0 0 0 0 0 69 5 8 0 86 0 0 4 10 100 25 7 5 100 14
94 84 100 100 43 92 59 5 97 100 100 100 100 100 96 7 62 2 0 0 0 0 0 0 0 0 20 82 0 0 0 0 0 0 40 100 86 8 0 0 4 7 100 54 0 10 6 62 0
100 60 68 100 100 71 14 35 99 100 100 100 100 74 9 6 8 5 0 1 0 0 0 0 0 0 0 0 0 23 0 0 0 0 14 94 100 39 0 0 57 100 10 1 11 68 100 88 3
100 100 94 79 100 100 100 100 100 100 82 100 100 13 5 5 5 5 5 5 0 0 0 0 0 0 0 4 0 0 0 0 3 0 0 100 100 100 25 0 100 15 2 99 100 100 83 5 5
100 100 98 44 96 100 73 100 100 100 100 100 100 54 12 49 5 5 5 5 0 0 0 0 0 0 0 0 0 0 0 0 0 0 0 100 83 84 80 40 76 2 100 100 100 100 100 81 5
100 100 100 100 79 55 70 82 100 97 100 100 81 73 15 19 5 5 5 4 0 0 0 0 0 0 1 0 0 0 0 0 0 0 43 82 71 98 96 13 16 34 100 100 100 100 100 67 63
100 95 98 100 100 22 32 18 100 100 98 64 100 100 100 87 1 4 2 0 0 2 0 0 0 2 0 6 14 0 0 0 0 0 0 1 76 38 100 89 100 100 100 100 99 88 80 93 100
97 100 100 100 100 37 76 36 100 100 100 93 98 95 26 5 0 0 0 0 0 0 0 0 0 4 28 81 0 0 6 4 1 0 0 0 0 0 4 1 100 100 100 100 14 100 100 99 7
0 92 100 100 100 8 73 19 19 100 66 5 5 4 0 5 5 0 0 0 0 0 0 0 1 0 8 11 15 15 90 100 69 0 0 0 0 2 1 43 100 100 100 100 100 100 98 9 17
0 0 100 100 100 70 98 100 100 20 5 2 1 1 3 5 5 0 0 0 0 0 0 0 3 5 0 4 7 17 6 3 4 1 0 0 0 2 5 88 100 100 100 100 100 100 100 50 5
0 0 0 23 100 100 28 22 67 10 9 5 2 5 6 5 0 2 0 0 0 0 0 0 5 5 2 2 0 0 4 1 0 0 0 0 0 19 26 76 100 100 100 99 100 100 28 10 5
0 0 0 0 5 97 99 16 5 5 5 5 5 6 8 5 5 5 2 0 5 5 5 5 6 5 5 4 1 5 5 5 0 4 5 22 7 44 100 21 100 100 100 100 100 43 5 0 5
0 0 0 0 45 100 100 63 30 11 4 0 4 54 71 6 2 0 0 0 5 15 5 5 100 68 50 5 5 5 5 5 3 6 66 100 45 91 100 100 100 100 100 53 25 5 9 20 18
0 0 0 0 5 100 84 77 25 1 0 39 2 0 0 0 0 0 0 0 5 9 28 5 60 100 99 5 3 5 5 5 2 37 61 97 38 100 100 65 94 97 69 49 28 5 5 5 9
69 38 2 0 2 63 97 65 5 4 28 17 2 5 3 0 0 2 5 5 5 8 82 100 28 84 62 5 4 1 5 0 0 5 16 18 100 94 5 38 77 100 22 22 20 22 39 40 41
69 98 65 0 0 2 4 5 4 5 3 4 5 0 0 0 0 0 5 5 5 5 37 87 91 79 96 50 0 0 0 0 1 4 5 5 45 64 100 87 51 65 20 56 61 56 34 27 32
80 54 23 21 3 0 0 0 0 0 0 1 0 0 0 0 0 3 0 0 0 89 33 7 4 0 6 2 0 0 0 0 0 0 0 5 5 6 11 35 53 42 30 11 6 5 5 9 12
97 39 69 56 4 0 0 0 4 0 0 0 0 0 0 0 0 0 0 2 66 95 77 5 5 1 0 0 0 0 0 25 25 19 12 7 5 2 0 4 1 0 3 4 5 5 5 4 5
90 5 49 22 4 4 5 0 53 2 0 0 0 0 0 0 0 0 4 5 90 94 6 8 5 5 5 2 0 4 11 1 0 0 0 0 0 0 0 0 0 0 24 5 5 5 0 0 0
100 58 27 85 1 5 5 0 71 2 0 0 0 0 0 0 0 2 5 38 98 72 68 59 39 5 18 37 58 97 51 19 0 0 0 0 2 5 20 33 22 41 5 5 0 0 0 0 0
43 92 92 27 5 22 4 0 5 5 5 0 0 0 0 0 0 1 3 5 39 96 96 100 100 99 46 100 87 20 13 2 0 0 4 5 5 5 5 5 5 5 5 1 0 0 0 1 5
93 83 15 5 74 98 10 3 0 3 3 0 0 0 0 0 0 0 0 0 13 26 54 17 88 91 62 100 36 13 5 5 5 5 5 4 5 5 5 4 4 5 0 0 0 5 5 0 0
100 63 5 37 100 97 11 5 0 5 0 0 3 0 0 1 5 5 2 5 5 5 47 97 100 100 96 7 5 2 0 5 5 5 5 5 50 7 0 2 0 0 0 2 5 5 5 5 5
100 24 42 85 96 70 6 2 1 4 0 0 5 0 2 5 43 27 5 45 64 11 5 5 40 62 87 30 6 25 29 5 3 5 1 0 0 0 0 0 0 4 3 5 5 5 5 8 5
100 99 100 100 99 43 2 0 5 2 2 2 4 5 5 3 0 5 5 5 2 0 5 5 27 49 7 24 58 48 5 5 5 2 3 5 2 0 3 5 5 17 61 26 19 14 5 5 5
100 29 80 91 10 27 4 0 5 5 1 0 0 5 5 5 0 0 0 0 0 0 0 2 3 14 8 10 48 54 12 72 33 5 5 5 5 5 19 19 75 77 47 13 5 5 5 5 4
100 57 59 5 5 5 0 0 0 4 0 0 0 0 5 1 0 0 0 0 0 0 5 0 0 1 5 2 5 5 52 88 99 45 52 69 78 89 100 90 38 5 5 5 5 5 5 1 5
88 67 50 6 42 51 1 0 0 0 0 0 0 0 5 0 0 0 0 0 0 0 0 0 6 12 0 3 3 6 89 69 70 88 97 98 99 99 59 5 5 5 3 3 4 5 4 5 0
95 86 47 5 5 64 6 0 0 0 0 0 0 0 0 0 0 0 0 0 0 0 0 0 5 16 5 72 81 26 12 50 88 93 98 94 11 5 3 0 5 5 5 5 5 5 1 0 0
100 100 98 71 71 5 5 1 0 0 0 0 0 0 0 0 0 0 0 0 0 0 0 0 0 0 28 80 5 21 51 68 29 30 57 14 5 3 5 4 5 5 5 4 3 0 0 0 0

GFSSGP_prec_cloud_015.txt.gz
Cloud_Cover
100 82 100 100 100 99 73 4 85 94 100 100 100 100 100 100 100 37 9 6 0 0 0 0 0 32 3 18 90 53 0 0 0 0 19 0 0 0 0 0 0 0 6 0 0 19 50 100 97
100 100 95 100 100 100 100 100 53 86 100 100 100 100 100 100 100 100 100 94 43 0 0 0 14 0 75 99 49 0 0 0 0 0 34 38 25 4 0 0 0 0 0 0 0 2 100 59 13
100 100 90 100 100 100 100 100 100 37 39 96 100 100 100 100 100 100 100 16 1 0 0 0 0 1 3 92 48 0 0 0 0 0 0 24 36 94 87 0 0 0 0 0 5 79 92 4 3
100 100 51 100 100 100 100 100 100 26 72 5 62 100 100 100 100 14 5 5 0 0 0 0 0 0 40 0 41 46 0 1 3 0 0 100 79 100 100 0 0 0 0 0 100 57 0 46 98
100 100 95 93 100 100 98 100 100 100 97 22 51 98 57 100 98 90 5 5 5 0 3 1 1 0 0 17 51 0 0 0 0 0 0 99 100 99 100 25 0 0 0 46 100 84 100 100 100
94 100 100 100 100 100 100 100 100 100 100 100 100 100 100 100 100 99 14 5 9 5 5 5 2 0 0 0 0 0 0 0 0 0 0 3 45 18 68 37 10 0 16 11 99 60 100 100 100
2 100 100 100 100 100 100 100 100 100 100 98 100 100 100 100 100 98 22 93 100 1 0 0 0 0 0 0 45 23 0 0 0 0 0 0 1 32 100 40 10 0 3 4 28 43 100 100 43
0 57 100 100 100 100 100 100 86 100 100 100 100 100 100 62 55 62 100 94 45 0 0 0 0 0 22 6 0 0 2 4 0 0 0 0 0 0 0 1 5 0 3 96 100 100 100 100 96
0 0 47 100 100 100 100 100 100 82 98 100 95 38 73 18 17 13 5 0 0 0 0 0 0 0 2 12 6 0 19 40 2 2 0 0 0 0 0 0 4 5 0 23 100 100 100 100 100
0 0 2 11 100 100 100 100 100 100 100 99 41 7 8 61 7 5 5 3 0 0 0 0 0 0 2 0 0 16 19 19 1 6 6 0 1 0 0 0 2 5 4 70 100 100 100 100 100
5 0 2 4 8 100 100 100 100 100 100 100 31 64 31 5 5 64 6 3 0 0 0 0 0 0 0 4 0 2 5 16 0 0 0 0 3 4 0 0 5 5 4 100 100 100 100 100 99
93 0 0 11 17 35 100 100 100 100 71 16 46 12 18 5 37 59 5 0 0 0 4 0 0 0 3 5 5 2 2 5 5 0 4 5 5 6 5 5 5 29 6 98 100 100 100 100 100
100 12 6 1 5 1 85 100 100 100 100 100 82 99 64 5 5 5 5 4 0 5 5 5 1 4 49 50 5 5 5 5 5 5 5 5 58 96 18 6 15 99 100 98 96 100 100 100 100
91 34 27 31 2 0 0 1 85 100 100 100 83 87 5 1 0 2 0 0 0 4 5 5 5 5 5 80 91 100 40 0 3 6 17 7 8 22 74 42 100 100 100 100 100 100 100 100 100
100 100 97 8 31 3 0 0 5 14 100 100 100 28 35 5 0 0 0 0 1 0 1 1 5 5 61 30 15 98 90 1 28 20 27 9 14 64 38 39 66 100 100 100 100 100 100 97 84
100 100 100 89 20 1 2 0 5 4 100 94 100 100 50 5 0 0 0 0 0 0 0 4 18 34 55 89 52 54 30 32 36 29 25 44 46 39 52 77 100 100 99 92 86 100 93 87 24
100 100 98 82 31 4 16 1 5 12 78 95 100 99 17 5 0 0 3 0 0 0 4 4 5 6 5 4 1 7 2 1 23 39 77 93 72 41 93 62 22 33 9 31 43 2 0 0 0
100 100 96 8 45 4 4 2 0 76 100 99 100 20 5 5 4 0 0 0 0 0 4 57 93 10 15 10 4 15 48 19 16 0 0 5 0 0 1 5 5 3 2 1 0 0 0 0 2
86 100 100 51 82 67 38 5 0 78 67 100 5 5 0 0 0 0 0 0 0 5 28 100 81 40 97 81 11 5 0 0 18 5 3 0 0 0 0 0 0 0 0 0 1 3 13 44 5
39 100 74 98 99 9 3 5 0 22 5 26 5 2 0 0 0 0 0 0 0 8 16 100 81 92 100 88 74 58 17 25 46 40 5 0 0 0 0 2 4 5 11 32 55 59 37 5 5
100 22 96 100 95 0 7 5 0 16 0 5 5 5 0 0 0 0 0 0 0 19 12 11 96 100 87 95 100 100 100 100 88 27 8 0 0 0 0 2 5 5 5 5 5 4 0 4 5
99 64 100 100 89 38 71 3 3 43 2 5 5 4 0 5 1 0 0 1 0 1 5 10 72 66 66 35 51 14 7 5 5 1 1 3 2 5 5 4 1 0 0 0 0 0 1 0 3
98 100 97 96 90 35 92 56 0 33 2 5 5 5 5 5 0 0 3 1 2 5 8 98 100 100 93 33 32 12 7 6 5 5 5 11 21 6 5 5 5 0 4 5 5 5 5 4 3
100 100 100 100 100 18 5 36 2 8 5 5 5 5 5 0 0 0 5 5 5 59 96 95 70 2 1 4 5 5 3 2 3 5 5 17 11 31 21 11 38 70 64 20 6 5 3 1 5
100 100 100 100 67 28 41 54 4 5 5 5 5 5 2 0 4 5 5 5 11 89 92 5 5 0 0 0 0 0 0 0 0 0 2 5 5 10 6 10 51 58 57 11 5 14 10 5 4
100 99 100 80 47 17 5 1 2 5 5 5 5 5 5 5 5 5 5 3 3 5 5 1 0 0 0 0 0 0 0 0 2 2 5 5 8 5 6 6 9 6 15 56 5 5 5 3 0
100 99 100 35 5 92 3 1 0 3 4 5 5 5 5 5 5 5 2 5 4 0 0 0 0 0 0 0 0 5 4 5 2 5 5 5 28 70 34 56 76 59 6 5 5 5 5 5 5
99 57 58 20 28 87 44 28 6 0 5 5 5 5 5 5 5 1 0 2 0 1 0 0 0 0 0 0 0 0 0 0 4 5 10 85 96 68 100 100 100 76 56 26 10 29 8 2 0
100 100 64 43 7 100 81 39 2 0 5 5 5 5 5 5 0 0 0 0 5 1 0 0 0 0 0 0 0 0 2 5 5 58 100 92 99 100 100 100 71 66 99 34 10 1 0 4 1
100 98 91 8 32 1 8 23 0 0 4 5 5 5 5 0 0 0 0 0 0 0 0 0 0 0 0 0 0 4 5 6 99 100 97 100 100 76 78 99 100 100 30 1 5 5 0 0 0

GFSSGP_prec_cloud_018.txt.gz
Cloud_Cover
100 100 100 100 86 100 100 100 94 11 77 37 24 100 18 89 100 40 100 94 100 72 22 11 3 36 3 31 96 100 17 0 0 0 0 0 0 0 0 0 0 0 1 0 0 2 5 44 2
100 100 100 100 90 100 100 100 100 100 100 53 5 5 6 23 98 100 100 100 100 100 100 73 2 0 2 64 90 37 0 0 0 0 20 43 0 0 0 0 0 0 0 0 0 0 0 1 0
45 100 100 100 100 100 100 100 100 100 100 55 5 40 55 100 100 100 100 100 100 100 100 90 5 4 2 45 21 0 0 0 0 0 0 31 3 64 100 1 0 0 0 0 0 0 0 0 0
0 100 100 100 100 64 96 92 100 100 100 100 94 25 27 98 100 100 100 100 100 100 100 64 5 2 0 0 0 0 0 0 0 0 0 0 61 13 100 75 0 0 0 0 0 0 0 0 15
0 65 100 100 100 100 100 53 100 100 100 100 100 100 100 5 84 100 100 100 100 100 14 4 0 0 0 0 0 0 0 0 0 0 0 0 63 82 88 42 0 0 0 0 0 0 0 0 100
0 0 92 100 100 100 100 64 100 98 100 100 100 100 42 3 19 63 100 100 100 100 100 30 35 23 0 0 0 0 0 0 0 0 0 0 0 0 19 57 0 0 1 0 1 0 0 36 59
0 0 2 100 100 100 100 98 100 98 100 93 100 100 100 100 100 100 100 100 100 100 100 71 11 2 0 0 0 0 0 0 0 0 0 0 0 0 0 0 0 0 3 4 5 0 0 0 73
0 0 0 0 100 100 100 100 100 100 100 97 100 38 48 96 42 100 100 100 100 100 31 5 0 0 0 0 0 0 0 0 0 0 0 0 0 0 0 0 0 0 0 0 5 0 0 25 100
4 0 0 0 1 100 100 100 100 100 100 100 100 93 31 98 47 59 80 100 100 90 10 0 2 0 0 0 0 0 0 0 0 0 0 0 0 0 0 0 0 0 0 2 5 2 0 93 100
3 0 0 0 0 94 100 100 100 100 100 100 100 93 14 96 97 77 63 93 100 80 5 0 1 0 0 5 0 0 0 0 0 0 0 0 0 0 0 0 0 0 0 0 5 5 5 50 100
0 0 0 0 0 4 87 100 100 100 100 100 100 10 90 100 51 6 80 100 52 5 5 5 0 0 0 0 0 0 0 0 0 0 16 0 0 1 1 5 5 5 5 0 5 5 0 98 100
66 0 0 0 8 49 9 85 100 100 100 100 100 84 8 98 100 100 42 5 60 5 5 3 0 0 0 0 0 3 14 1 4 6 5 0 1 5 5 5 5 5 6 0 5 5 2 100 100
97 48 20 3 0 15 88 43 100 100 100 100 83 98 99 94 100 100 35 12 23 1 3 1 0 0 0 0 2 43 33 1 3 5 5 3 5 4 5 5 5 13 36 15 23 71 100 100 100
10 99 38 100 24 16 10 1 67 89 100 100 100 100 100 78 38 69 13 77 5 5 3 0 4 0 0 0 0 30 10 100 92 68 9 0 5 1 0 1 91 92 100 100 100 100 100 100 100
39 85 58 5 61 61 94 0 0 0 1 93 100 100 100 100 100 100 48 12 5 41 1 0 5 5 3 3 2 32 74 96 100 63 100 0 27 31 24 20 94 100 100 100 100 100 100 100 100
76 90 90 0 30 46 89 6 0 0 0 0 99 100 100 100 100 100 100 36 5 5 4 0 3 5 5 5 4 77 100 71 100 100 100 100 90 17 20 100 100 88 5 34 10 29 100 100 100
36 8 3 3 12 96 43 4 0 0 0 0 3 99 100 100 100 100 100 100 81 13 11 5 5 5 4 5 27 100 94 45 31 71 100 99 26 15 38 13 0 0 0 7 62 98 88 30 5
17 52 3 5 0 5 7 19 0 0 0 0 0 79 60 95 74 82 34 7 5 39 43 8 5 5 5 5 16 23 83 91 7 13 5 0 0 3 5 1 0 0 0 0 0 0 1 1 1
4 5 6 0 5 42 5 1 0 0 0 3 49 100 47 61 15 5 5 92 81 58 20 4 0 5 28 5 5 34 100 62 53 32 5 4 4 13 3 4 0 0 0 0 0 0 1 0 0
63 86 21 6 77 67 8 17 2 7 0 42 48 19 14 66 16 7 41 41 4 3 0 2 16 5 74 61 92 97 100 89 98 100 100 100 100 96 39 5 2 0 0 0 2 4 5 5 5
100 92 45 100 50 96 95 17 4 1 0 5 5 5 45 9 5 65 9 3 0 0 4 10 8 4 12 27 86 87 40 88 79 32 10 42 6 2 0 1 2 5 5 5 5 5 5 5 4
84 10 41 98 100 88 64 4 0 0 0 0 5 5 5 5 5 6 5 0 0 1 5 2 1 5 5 5 5 12 8 5 5 5 31 36 5 4 5 1 0 5 5 5 7 7 8 5 19
20 11 22 39 100 99 5 56 0 4 0 5 5 5 5 5 17 15 5 0 0 2 5 2 5 5 5 5 5 1 2 5 5 5 5 5 5 5 5 2 0 0 0 0 0 1 5 3 1
81 100 100 100 100 90 35 13 0 1 9 1 2 2 5 21 52 14 5 0 0 5 5 5 5 5 5 5 5 4 0 0 0 0 0 0 0 0 0 0 3 2 1 5 5 5 5 1 4
100 100 100 100 100 80 2 5 0 0 0 5 5 5 5 43 60 5 5 0 0 4 8 73 5 5 76 9 0 0 0 5 0 0 0 0 0 0 5 3 5 5 5 5 5 5 5 5 8
100 100 100 100 76 65 64 18 3 4 5 5 5 17 12 5 11 5 5 2 5 5 5 5 2 5 9 0 0 0 0 0 0 0 0 0 0 4 5 5 5 5 5 5 5 5 15 26 41
100 100 100 100 98 4 2 4 0 0 2 5 5 5 5 12 5 2 1 2 5 27 5 5 5 3 0 0 0 0 0 0 0 0 0 2 11 36 58 82 52 5 5 5 5 5 11 33 30
100 100 100 100 36 24 63 5 0 0 0 0 5 2 5 5 5 5 5 4 1 5 5 5 5 5 0 0 0 0 0 0 0 3 5 38 76 62 84 59 5 5 5 5 5 11 39 84 94
100 100 100 100 84 70 62 90 3 0 0 0 1 0 5 5 5 5 5 4 4 0 4 0 0 0 0 0 0 0 0 0 2 5 42 90 85 92 64 59 30 5 20 71 55 90 100 49 24
100 100 98 100 100 99 100 5 0 0 0 0 0 1 5 5 5 5 5 5 5 4 0 0 0 0 0 0 0 0 0 5 5 27 96 87 83 86 99 48 45 81 46 7 59 36 5 4 0

GFSSGP_prec_cloud_021.txt.gz
Cloud_Cover
28 100 100 100 100 100 98 98 41 50 100 100 70 1 0 0 3 52 100 100 100 100 83 23 93 21 17 28 68 85 0 0 0 0 0 0 0 0 0 0 0 0 0 0 0 0 2 4 0
0 32 61 100 100 100 100 52 87 97 100 100 100 19 2 0 2 5 84 100 100 100 100 100 100 100 89 5 0 0 0 0 0 0 2 0 0 0 0 0 0 0 0 0 0 0 0 0 0
0 0 3 100 100 100 100 91 17 100 100 100 100 100 4 4 3 9 99 100 100 100 100 100 100 100 100 46 34 3 0 0 0 0 0 8 0 61 36 1 0 0 0 0 0 0 0 0 0
0 0 0 0 100 100 100 100 100 100 95 100 100 100 100 100 31 4 47 100 100 100 100 100 100 100 100 100 80 4 0 0 0 0 0 0 40 28 34 0 0 0 0 0 0 0 0 0 0
0 0 0 0 0 90 100 98 100 100 100 100 100 100 100 100 37 5 80 100 100 100 100 100 100 100 100 26 28 5 0 1 2 0 0 0 1 2 51 37 0 0 0 0 0 0 0 2 6
0 0 0 0 0 0 93 100 100 100 100 91 95 96 100 100 100 87 94 59 100 100 100 100 100 100 100 96 21 2 0 0 0 0 0 0 0 0 32 8 4 0 0 0 0 0 0 0 6
0 0 0 0 0 0 7 100 100 100 100 100 100 90 77 100 100 100 100 100 48 26 100 100 100 100 100 72 16 5 0 0 0 0 0 0 0 0 0 2 0 0 0 0 3 0 16 3 2
0 0 0 0 0 0 4 100 100 100 100 100 100 94 36 99 96 33 100 100 100 100 100 100 100 98 71 98 5 5 0 0 0 0 0 0 0 0 0 0 0 0 0 0 0 0 2 0 5
0 0 0 0 0 0 0 73 100 100 100 100 100 89 8 78 17 99 100 100 100 100 100 100 100 100 100 57 1 4 0 0 0 0 0 0 0 0 0 0 0 0 0 0 0 0 0 2 33
0 0 0 0 0 0 0 0 98 100 100 100 100 86 6 77 89 79 100 60 40 33 9 14 34 43 73 25 5 0 0 0 0 0 0 0 0 0 0 0 0 0 0 0 0 0 0 0 5
0 1 0 0 0 0 0 4 5 100 100 100 100 81 5 100 100 90 5 96 100 100 74 58 83 12 29 29 4 1 1 0 0 0 0 0 0 0 0 0 4 4 3 1 0 5 4 0 2
42 0 0 0 0 0 0 4 4 6 100 100 100 100 14 100 98 5 40 97 100 99 100 69 27 5 5 5 4 4 0 3 4 0 0 3 5 5 5 5 5 5 5 5 5 2 27 100 100
0 0 1 0 0 0 0 4 0 0 3 99 100 100 55 98 100 100 100 98 77 29 39 33 54 5 5 2 0 2 22 14 52 76 67 1 0 3 100 57 5 5 25 70 100 100 100 100 35
4 4 5 0 0 0 2 5 5 0 0 0 93 100 100 81 100 89 71 7 36 96 99 100 28 5 5 5 5 5 69 100 97 76 32 9 89 27 2 51 59 93 100 100 100 100 43 57 62
8 54 31 3 3 5 0 3 3 0 0 0 37 100 100 100 100 100 100 100 68 43 50 49 37 5 5 6 5 71 100 100 100 100 100 83 31 27 84 33 96 100 100 100 73 5 5 22 37
5 11 5 3 3 5 99 17 3 0 0 0 0 40 100 100 100 100 100 100 59 95 100 99 49 21 13 33 13 87 100 100 100 100 100 100 100 100 57 100 100 88 3 0 0 0 0 3 10
62 26 20 4 0 5 67 5 0 0 0 0 0 30 100 100 100 100 100 100 100 100 100 100 100 100 100 82 42 95 100 100 100 100 100 100 72 62 24 8 0 0 0 0 0 0 0 0 0
87 100 12 4 0 7 5 5 3 0 0 0 0 0 74 78 58 50 100 100 100 100 100 100 100 100 100 66 5 65 100 100 80 46 70 75 78 58 30 5 4 3 5 1 0 0 0 0 0
5 5 13 5 4 0 0 1 0 0 0 0 0 0 0 0 0 0 5 88 100 100 100 100 24 73 7 35 14 8 42 44 39 70 95 79 69 94 100 100 95 52 5 5 5 0 0 0 0
16 28 18 36 5 28 3 2 0 0 0 0 0 0 0 0 0 9 55 39 34 66 25 6 24 3 5 5 5 6 56 20 5 75 83 85 82 64 33 12 5 5 2 1 0 0 0 3 0
54 37 86 86 7 23 57 4 0 0 0 0 0 0 0 0 0 86 6 5 5 5 5 4 18 5 5 4 2 5 5 1 26 9 8 5 21 18 10 10 5 5 5 4 2 0 0 0 0
52 96 94 86 69 98 36 80 0 0 0 0 0 0 0 0 5 75 6 13 45 6 26 9 1 2 5 0 4 0 0 0 5 0 0 0 0 1 2 0 0 0 0 0 0 0 0 0 0
8 60 5 39 36 100 100 100 25 0 0 0 0 0 1 5 10 47 5 40 51 5 5 0 0 0 0 0 0 5 3 60 63 5 0 0 2 0 0 0 0 0 0 0 0 2 0 0 0
40 5 5 12 89 100 67 100 10 0 0 0 0 0 1 5 6 31 11 70 18 5 4 0 0 3 0 0 5 53 48 5 2 0 0 0 0 0 0 0 0 0 5 5 5 5 5 5 4
5 34 77 37 100 39 48 94 94 0 0 0 0 0 5 5 5 8 41 68 5 5 2 0 3 4 1 5 2 0 1 0 0 0 0 0 0 0 0 0 0 5 5 5 5 5 5 5 0
28 6 38 30 6 9 100 100 58 1 0 0 0 0 4 5 5 5 49 9 5 5 0 4 5 4 5 3 0 0 0 0 0 0 0 0 0 0 3 5 5 12 5 5 5 5 5 5 0
97 100 10 93 69 100 100 98 100 2 0 0 0 0 4 5 5 15 9 5 5 5 1 0 4 3 0 0 0 0 0 0 0 0 0 0 0 5 7 5 33 54 5 5 5 5 5 5 5
100 37 63 100 100 100 100 100 100 0 0 0 0 0 0 5 5 5 5 5 5 3 5 0 0 0 4 2 4 0 0 0 0 0 0 2 5 51 81 82 73 6 5 5 5 5 5 5 18
100 100 100 100 100 100 100 66 5 2 5 0 0 0 0 5 5 5 3 0 2 0 5 5 4 1 1 5 5 0 0 0 0 0 11 61 74 93 80 76 50 56 10 5 5 5 29 91 64
100 100 100 100 100 100 100 100 0 5 5 5 0 0 1 5 5 5 0 0 1 5 5 5 5 5 5 5 0 0 0 0 0 5 22 90 99 100 84 72 61 58 5 5 7 99 90 13 4

GFSSGP_prec_cloud_024.txt.gz
Cloud_Cover
0 0 4 100 100 100 100 88 5 97 13 94 99 85 7 5 5 5 7 5 5 36 100 100 100 100 56 16 48 13 5 0 0 0 0 6 9 2 0 0 0 0 0 0 0 0 6 0 0
0 0 0 5 100 100 100 100 60 73 100 100 24 37 100 100 98 9 52 16 5 10 61 72 75 100 100 100 100 49 5 1 0 0 0 0 6 0 0 0 0 0 0 0 0 0 0 0 0
0 0 0 0 3 100 100 100 100 98 100 100 15 5 11 89 100 97 5 34 28 5 74 98 83 100 100 100 100 100 100 89 5 4 1 1 0 0 0 0 0 0 0 0 0 0 0 0 0
0 0 0 0 0 80 100 100 100 100 100 100 62 59 23 96 100 100 21 5 5 5 63 100 36 54 100 100 100 100 100 100 51 94 5 0 5 80 4 0 0 0 0 0 0 0 0 0 0
0 0 0 0 0 0 15 99 100 100 100 100 39 93 6 83 100 100 100 61 88 75 58 100 100 100 100 100 100 100 100 100 90 25 2 0 49 70 41 3 0 0 0 0 0 0 0 0 28
0 0 0 0 0 0 0 43 100 100 100 100 100 100 100 96 100 100 100 100 100 98 28 68 100 100 100 100 100 100 100 72 6 31 5 0 0 8 100 37 0 0 0 0 0 0 1 4 7
0 0 0 0 0 0 0 0 1 100 100 100 95 51 74 81 86 97 100 100 100 100 80 31 82 100 100 100 100 100 100 95 90 86 29 5 5 0 4 0 0 0 0 0 0 0 1 0 40
0 0 0 0 0 0 0 0 0 0 3 100 100 100 73 86 34 46 50 99 94 100 100 100 100 93 100 100 100 100 100 100 99 30 5 5 1 0 0 0 0 0 0 0 0 0 0 0 0
0 2 3 0 0 0 0 0 0 0 0 10 100 78 38 46 58 52 99 100 100 100 100 100 100 100 100 100 100 82 92 100 92 58 6 5 0 0 0 0 0 0 1 1 0 0 0 0 0
0 11 0 0 0 0 0 3 0 0 0 0 45 100 84 84 100 100 66 59 100 66 81 93 82 96 100 100 99 85 88 49 49 5 2 0 0 0 0 0 0 0 5 5 5 4 4 0 0
0 30 0 0 0 0 0 4 2 0 0 0 2 67 82 100 100 100 100 5 9 100 100 88 90 94 51 13 17 60 12 15 6 0 3 0 0 0 0 0 0 0 2 5 24 5 5 5 5
0 0 0 0 0 0 0 0 0 0 0 0 0 1 100 100 100 100 59 5 24 100 100 100 44 66 33 50 17 34 5 14 4 31 0 0 0 0 0 4 26 95 100 99 100 100 100 100 100
0 0 0 0 0 0 0 0 0 0 0 0 0 0 67 100 100 100 94 46 72 18 30 82 40 51 5 29 84 32 16 8 5 6 5 5 27 48 80 1 18 99 100 100 100 100 100 100 78
0 0 0 0 0 0 0 0 0 0 0 0 0 0 0 62 100 100 100 91 5 18 49 61 27 85 14 25 5 8 9 27 41 100 17 16 36 5 2 4 74 100 100 100 100 100 66 5 22
0 0 0 0 0 0 0 0 0 0 0 0 0 0 0 0 92 100 100 100 100 99 100 100 88 65 100 97 49 67 100 100 100 100 100 100 59 8 6 17 97 78 100 99 64 11 15 5 5
4 2 1 0 0 0 18 1 0 0 0 0 0 0 0 0 0 97 100 100 100 100 100 98 76 41 97 73 17 68 100 100 100 100 100 100 100 100 100 100 97 24 3 5 2 0 0 0 0
12 23 3 1 0 0 0 0 0 0 0 0 0 0 0 0 0 2 97 100 100 100 100 100 100 100 78 34 60 94 100 100 100 100 100 100 100 90 100 14 5 5 5 6 1 2 3 0 0
88 5 5 5 0 0 0 0 0 0 0 0 0 0 0 0 0 0 3 100 100 100 100 96 100 100 100 100 96 100 100 100 100 100 100 5 5 6 10 7 5 5 5 5 9 5 4 4 4
5 12 5 5 5 4 4 0 2 0 0 0 0 0 0 0 0 0 0 95 100 100 100 100 100 100 100 100 100 100 100 100 100 100 92 14 5 5 22 30 15 5 5 5 6 21 32 55 5
6 7 9 5 5 52 52 11 0 0 0 0 0 0 0 0 0 0 0 16 100 100 99 99 100 100 100 100 100 79 32 81 100 62 1 1 1 2 4 4 5 3 4 4 4 0 0 0 0
9 65 76 85 5 4 10 3 0 0 0 0 0 0 0 0 0 0 0 0 4 5 15 31 5 9 73 97 75 48 93 95 5 0 0 5 3 0 0 0 0 0 0 0 0 0 0 0 0
20 7 6 23 56 43 32 28 0 0 0 0 0 0 0 0 0 0 0 0 0 5 6 7 5 5 5 3 5 5 5 0 0 2 5 5 4 0 0 0 0 0 0 0 0 0 0 0 0
17 96 76 6 8 81 6 44 6 5 0 0 0 0 0 0 0 0 0 0 5 11 73 9 5 5 5 5 5 5 0 0 1 5 5 5 0 0 0 0 0 0 0 0 0 0 0 5 4
39 68 100 62 80 72 2 13 1 4 0 0 0 0 0 0 0 0 0 0 5 5 17 5 5 5 5 5 5 4 0 2 4 0 0 0 0 0 0 0 0 0 0 0 0 3 5 5 2
100 100 100 100 99 28 3 4 0 4 0 0 0 0 0 0 0 0 0 5 5 6 59 9 5 16 5 61 5 5 2 5 0 0 0 0 0 0 0 0 0 0 0 2 5 5 5 4 0
100 100 100 98 63 1 78 16 0 5 0 0 0 0 0 0 0 0 1 5 33 16 5 5 14 13 5 5 5 5 5 0 0 0 0 0 0 0 0 0 0 0 5 5 5 5 3 5 4
100 100 99 100 74 92 81 0 64 25 1 0 0 0 0 0 0 0 5 6 5 5 5 5 5 5 0 4 5 4 0 0 0 0 0 0 0 0 0 0 1 5 5 5 5 5 5 5 5
98 81 100 100 76 5 20 34 1 1 53 29 0 0 0 0 0 0 5 7 5 10 5 5 5 5 5 0 0 0 5 5 5 0 0 0 0 0 1 4 5 5 5 5 5 5 5 5 5
100 100 99 40 6 54 4 6 13 96 100 100 51 0 0 0 0 0 0 5 5 30 5 5 5 5 5 0 0 5 5 5 0 0 0 0 0 1 1 5 5 5 5 5 5 5 5 5 5
100 100 100 100 68 66 100 100 100 100 100 100 100 57 4 0 0 2 4 5 5 5 5 5 5 5 3 0 5 5 5 0 0 0 5 5 3 3 5 5 58 17 5 5 5 5 5 5 5

GFSSGP_prec_cloud_027.txt.gz
Cloud_Cover
0 0 0 0 0 99 100 95 100 100 100 29 12 5 29 27 5 32 26 11 5 2 14 11 15 13 33 94 84 100 10 5 5 3 5 73 12 57 0 0 0 0 0 0 0 10 8 0 0
0 0 0 0 0 0 56 100 100 100 100 100 22 16 24 73 9 26 5 10 44 25 17 0 0 9 83 100 100 100 100 67 87 22 6 7 10 1 3 0 0 0 0 0 0 0 0 0 0
0 0 0 0 0 0 0 19 100 100 100 100 100 65 4 5 5 5 8 5 76 91 16 2 0 3 42 100 68 100 100 100 88 98 100 28 12 12 5 5 3 0 0 0 0 0 0 0 0
0 0 0 0 0 0 0 64 96 100 100 100 100 100 99 37 5 8 66 100 100 100 100 14 5 0 30 60 61 41 100 100 97 32 100 100 100 99 12 0 0 0 0 0 0 0 0 0 0
0 0 0 0 0 0 0 0 0 92 100 100 100 100 100 100 100 38 5 79 100 100 100 100 30 5 1 5 86 92 100 100 98 100 100 100 100 58 13 7 0 0 0 0 0 0 0 0 3
0 0 0 0 0 0 0 0 0 0 100 100 100 100 100 100 100 100 88 5 7 99 100 100 100 32 9 5 100 100 100 100 100 100 88 70 22 76 97 41 4 2 0 0 0 0 0 0 0
0 0 0 0 0 0 0 0 0 0 0 38 100 100 100 100 100 100 78 14 19 92 100 100 100 89 43 47 78 100 100 100 100 100 100 100 100 100 68 9 12 5 0 0 0 0 0 0 0
0 0 0 0 0 0 0 0 0 0 0 0 100 100 100 100 100 100 100 99 80 64 100 100 100 100 100 100 41 14 98 100 100 100 100 100 100 27 86 5 5 0 0 0 0 0 0 0 0
0 0 5 0 0 0 0 0 0 0 0 0 0 53 100 100 100 100 100 100 92 100 100 93 77 83 100 100 100 100 100 100 100 100 89 94 28 64 10 8 0 1 0 0 0 1 5 4 3
0 31 0 0 0 0 0 0 1 0 0 0 0 0 88 100 100 100 100 100 100 69 14 29 25 31 93 68 80 36 96 100 100 100 80 16 18 24 5 3 3 0 0 0 2 21 26 5 16
0 15 0 0 0 0 0 0 0 1 0 0 0 0 0 26 100 100 100 100 100 10 19 36 92 39 72 59 91 33 58 93 51 87 18 8 5 5 5 1 0 0 5 5 5 5 16 11 30
0 0 0 0 0 0 0 0 0 0 0 0 0 0 0 0 82 38 97 100 100 100 100 100 66 62 90 86 60 31 22 77 23 78 17 23 10 5 5 5 2 0 0 20 65 70 100 100 100
0 0 0 0 0 0 0 0 0 0 0 0 0 0 0 0 0 0 0 64 100 100 99 73 61 5 73 93 56 24 40 10 7 33 80 48 42 8 5 5 5 4 97 100 100 100 100 91 21
0 0 0 0 0 0 0 0 0 0 0 0 0 0 0 0 0 0 0 0 98 100 100 98 81 24 25 63 24 56 13 10 28 91 100 100 100 100 55 5 4 85 94 100 100 100 40 5 4
2 0 0 0 0 0 0 0 0 0 0 0 0 0 0 0 0 0 0 0 4 72 100 100 88 60 87 68 45 44 8 33 91 100 100 100 100 100 80 49 96 50 9 11 11 2 5 5 5
48 4 4 0 0 0 0 0 0 0 0 0 0 0 0 0 0 0 0 0 0 38 88 51 86 100 88 100 79 38 100 100 100 100 100 100 100 100 100 99 20 0 0 1 5 0 5 5 5
100 29 4 5 0 0 0 0 0 0 0 0 0 0 0 0 0 0 0 0 0 0 63 8 49 100 100 100 65 59 100 100 100 100 100 100 97 100 100 90 4 3 0 5 5 2 5 5 27
84 91 16 5 3 0 0 0 0 0 0 0 0 0 0 0 0 0 0 0 0 0 3 100 100 100 100 100 91 96 100 100 100 100 100 100 90 22 41 9 5 3 3 0 4 5 5 4 5
9 29 32 24 9 1 0 0 0 0 0 0 0 0 0 0 0 0 0 0 0 0 0 81 100 100 100 100 100 100 100 100 100 100 100 100 82 100 46 4 0 0 0 0 0 0 0 0 0
5 60 38 23 5 5 2 0 0 0 0 0 0 0 0 0 0 0 0 0 0 0 0 4 100 100 100 100 100 100 100 100 100 100 100 100 6 4 4 3 0 0 0 0 0 0 0 0 0
5 53 97 48 14 3 2 0 0 0 0 0 0 0 0 0 0 0 0 0 0 0 0 0 24 100 100 100 100 100 100 100 100 100 100 66 4 0 0 0 0 0 0 0 0 0 0 0 0
96 5 5 5 23 54 5 16 0 0 0 0 0 0 0 0 0 0 0 0 0 0 0 0 0 30 100 100 97 77 41 75 100 100 6 0 0 1 0 0 0 0 0 0 0 0 0 0 0
64 89 21 32 10 16 5 79 5 0 0 0 0 0 0 0 0 0 0 0 0 0 0 0 0 2 62 46 16 33 86 98 54 5 5 5 2 0 0 0 0 0 0 0 0 0 0 0 0
97 100 100 100 72 95 5 10 4 5 4 2 0 0 0 0 0 0 0 0 0 0 0 0 0 5 32 59 44 10 5 29 18 5 5 5 1 0 0 0 0 0 0 0 0 0 0 0 0
100 100 100 100 100 73 5 3 4 100 64 34 2 0 0 0 0 0 0 0 0 0 0 0 0 5 5 6 5 5 30 73 72 75 5 5 0 0 0 0 0 1 0 0 0 0 1 4 2
100 100 100 100 49 5 50 6 17 95 100 100 5 0 0 0 0 0 0 0 0 0 0 0 3 5 5 5 5 5 5 69 9 5 5 0 0 0 0 0 0 0 0 0 0 0 0 0 0
100 100 100 100 100 100 42 1 0 1 98 100 4 0 0 0 0 0 0 0 0 0 3 5 0 5 5 5 9 8 6 5 5 1 4 5 5 0 0 0 0 0 0 0 0 0 1 4 5
100 100 100 100 100 98 1 1 2 12 53 37 3 0 0 0 0 0 0 0 0 2 5 0 0 3 5 5 5 5 5 5 2 5 5 5 1 0 0 0 3 1 0 0 1 5 5 5 5
100 100 91 92 86 99 17 0 36 63 100 9 3 67 2 0 0 0 0 0 0 2 0 5 0 5 4 5 5 46 27 5 5 5 5 0 0 0 1 0 4 0 3 5 5 5 5 6 46
100 100 100 100 100 29 1 18 53 81 100 100 81 100 20 8 1 0 0 0 0 0 1 0 3 5 5 5 42 66 62 5 5 5 0 0 0 5 0 4 3 5 5 5 5 45 81 80 10

GFSSGP_prec_cloud_030.txt.gz
Cloud_Cover
0 0 0 0 0 0 0 0 5 90 98 100 50 66 65 24 5 5 69 6 5 0 0 58 0 0 6 3 0 0 5 7 21 75 84 49 73 7 5 0 0 0 0 0 0 86 6 0 0
0 0 0 0 0 0 0 0 0 74 100 100 100 81 72 68 65 22 30 82 55 5 3 0 3 0 1 14 3 4 5 39 72 6 95 100 37 22 7 0 3 3 1 0 0 2 0 0 0
0 0 0 0 0 0 0 0 0 0 9 100 100 100 100 49 6 83 94 93 80 34 13 0 0 33 0 12 3 0 5 34 13 5 30 100 74 15 44 100 92 3 1 0 0 0 0 0 0
0 0 0 0 0 0 0 0 0 0 0 72 100 100 100 100 100 67 8 66 82 76 48 3 0 2 0 0 2 0 0 5 5 18 58 8 21 82 80 96 9 3 0 0 0 0 0 0 0
0 0 0 0 0 0 0 0 0 0 0 0 15 100 100 100 100 100 67 43 27 80 58 100 10 3 41 5 23 2 0 0 0 5 8 69 100 100 80 72 61 7 2 5 2 1 3 0 0
0 0 0 0 0 0 0 0 0 0 0 0 0 96 100 100 100 100 100 99 70 69 87 46 100 89 58 87 12 5 4 4 4 3 99 66 100 100 100 65 61 13 31 52 5 5 2 0 0
0 0 0 0 0 0 0 0 0 0 0 0 0 1 100 100 100 100 100 100 100 100 100 73 83 100 100 100 98 15 5 3 4 4 90 100 100 100 100 99 89 100 100 42 21 12 0 0 0
0 0 0 0 0 0 0 0 0 0 0 0 0 0 37 97 100 100 100 100 100 100 100 100 100 96 95 97 99 100 85 5 6 40 58 97 100 100 100 100 100 100 5 5 18 5 0 0 0
0 0 2 0 0 0 0 0 0 0 0 0 0 0 0 0 94 100 100 100 100 100 100 100 100 95 72 95 71 89 100 100 100 100 70 100 89 100 100 100 88 77 5 5 4 0 0 0 0
0 38 0 0 0 0 0 0 0 0 0 0 0 0 0 0 1 100 100 100 100 100 100 99 94 100 51 54 96 90 62 80 59 13 5 36 34 39 67 77 50 38 5 4 4 5 0 0 0
0 12 0 0 0 0 0 0 0 0 0 0 0 0 0 1 0 0 75 100 100 100 100 92 94 100 100 92 98 97 52 44 9 26 9 11 37 88 80 75 34 6 4 4 5 16 25 38 8
0 0 0 0 0 0 0 0 0 0 0 0 0 0 0 0 0 0 0 35 100 100 100 100 97 97 100 97 100 100 64 82 30 28 42 38 67 37 6 15 5 5 5 17 10 71 100 100 99
0 0 0 0 0 0 0 0 0 0 0 0 0 0 0 0 0 0 0 0 0 40 98 100 100 80 72 60 84 100 100 64 18 12 19 58 92 92 12 8 5 6 90 100 100 80 92 72 4
11 0 0 0 0 0 0 0 0 0 0 0 0 0 0 0 0 0 0 0 0 0 8 100 100 100 100 93 73 100 100 62 34 100 100 100 100 100 98 85 51 100 99 99 27 7 1 0 0
11 4 0 0 0 0 0 0 0 0 0 0 0 0 0 0 0 0 0 0 0 0 0 0 10 42 100 86 40 100 100 100 100 100 100 100 100 100 100 100 100 91 19 57 9 4 4 0 0
97 87 32 0 0 0 0 0 0 0 0 0 0 0 0 0 0 0 0 0 0 0 0 0 0 0 11 52 67 100 67 100 100 100 100 100 100 100 100 97 83 28 79 16 5 6 5 3 3
65 80 48 26 4 1 2 1 0 0 0 0 0 0 0 0 0 0 0 0 0 0 0 0 0 0 0 6 80 69 20 100 100 100 100 100 100 100 100 93 86 99 26 21 45 54 4 0 0
100 38 100 100 24 5 2 0 0 0 0 0 0 0 0 0 0 0 0 0 0 0 0 0 0 0 0 0 7 14 54 100 100 100 100 100 100 100 93 27 80 79 96 38 42 10 0 0 0
49 80 100 100 24 23 3 0 0 0 0 0 0 0 0 0 0 0 0 0 0 0 0 0 0 0 0 0 4 5 96 100 100 100 100 100 100 100 41 50 100 100 25 19 5 5 0 0 0
98 100 100 75 4 1 0 0 0 0 0 0 0 0 0 0 0 0 0 0 0 0 0 0 0 0 0 0 14 75 100 100 100 100 100 100 100 100 41 100 98 89 40 5 4 0 0 0 0
5 5 5 6 4 2 5 0 0 0 0 0 0 0 0 0 0 0 0 0 0 0 0 0 0 0 0 0 2 99 100 100 100 100 100 100 100 100 100 30 42 18 5 2 2 0 0 0 0
79 5 5 5 42 83 4 17 0 0 0 0 0 0 0 0 0 0 0 0 0 0 0 0 0 0 0 0 0 98 100 100 100 100 100 100 100 59 6 5 5 5 5 5 0 0 0 0 0
48 36 47 7 56 84 46 71 0 0 0 0 0 0 0 1 0 0 0 0 0 1 2 0 0 0 0 0 0 10 36 85 100 100 100 95 36 5 5 5 5 5 5 2 0 0 0 0 0
81 99 100 100 97 95 29 35 0 5 4 27 5 0 0 0 0 0 0 0 0 0 0 0 0 0 0 0 0 48 94 100 100 100 99 5 17 5 16 14 45 10 5 0 0 0 0 0 0
100 100 100 100 100 50 31 20 4 1 94 11 5 5 5 0 0 0 0 0 0 0 0 0 0 0 0 5 97 100 100 100 100 44 3 5 5 5 26 52 5 5 0 0 0 0 0 0 0
66 100 100 100 32 8 6 2 0 31 14 30 3 5 5 5 0 0 0 0 0 0 0 0 0 0 55 100 100 100 66 30 7 3 5 5 5 5 5 5 5 0 0 0 0 0 0 0 0
97 100 50 100 100 100 7 0 0 0 4 5 5 5 13 5 0 0 0 0 0 0 0 0 0 8 67 98 92 9 25 5 5 3 5 5 19 8 5 5 0 0 0 0 0 0 0 4 5
94 50 93 100 100 98 5 0 0 0 4 80 34 30 5 5 5 0 0 0 0 0 0 0 1 3 22 39 0 5 5 2 5 5 42 40 48 28 5 4 0 0 1 0 0 4 5 5 5
100 100 100 96 98 88 8 3 1 0 9 7 89 5 5 5 5 2 0 0 3 0 0 1 47 57 56 7 1 5 5 1 5 5 42 18 36 6 5 2 5 5 5 1 5 5 5 5 5
100 100 100 100 100 100 100 2 5 86 99 100 100 40 5 5 14 6 0 0 0 0 0 11 88 86 65 5 1 5 5 3 5 5 5 5 5 5 5 5 5 5 5 5 5 5 5 5 5

GFSSGP_prec_cloud_033.txt.gz
Cloud_Cover
0 3 2 0 0 0 0 0 0 0 0 5 4 4 30 36 5 5 20 5 5 2 2 0 0 0 5 0 0 0 0 0 0 4 4 15 12 40 100 100 89 5 0 0 20 100 5 69 15
1 1 0 0 0 0 0 0 0 0 0 1 5 5 53 70 72 64 10 41 41 24 7 0 0 0 2 0 0 0 0 0 0 0 8 45 20 5 21 97 100 5 5 73 94 8 0 0 0
0 0 0 0 0 0 0 0 0 0 0 0 0 2 24 43 79 68 72 79 100 90 82 5 12 0 1 13 0 0 0 0 0 0 40 100 50 5 5 23 79 31 8 52 32 4 0 0 0
4 0 0 0 0 0 0 0 0 0 0 0 0 0 5 80 62 83 74 6 88 97 48 12 43 7 2 0 1 0 0 0 0 0 0 6 1 5 5 5 0 5 4 5 5 5 0 0 0
4 0 0 0 0 0 0 0 0 0 0 0 0 0 1 21 100 100 100 100 98 88 90 92 15 21 5 5 5 1 0 0 0 0 2 3 100 48 88 5 5 45 86 57 4 0 5 1 5
0 0 4 3 0 0 0 0 0 0 0 0 0 3 0 0 4 79 100 100 100 100 97 98 100 36 5 5 11 7 1 0 0 0 14 45 100 100 29 55 99 100 58 100 87 61 90 86 40
4 0 0 1 0 0 0 0 0 0 0 0 0 0 1 0 0 0 14 96 100 100 100 100 100 100 100 13 9 12 52 18 5 18 58 5 32 100 47 72 100 100 100 93 100 100 100 100 5
5 0 0 0 0 0 0 0 0 0 0 0 0 0 0 0 0 0 0 95 100 100 100 100 100 100 100 100 100 100 100 100 100 100 100 79 6 10 38 40 98 100 76 99 92 89 8 12 5
5 0 0 0 0 0 0 0 0 0 0 0 0 0 0 0 0 0 0 4 100 97 72 100 100 100 100 100 100 100 100 96 36 43 40 50 28 74 80 40 13 11 5 23 63 14 9 5 20
0 21 0 0 0 0 0 0 0 0 0 0 0 0 0 0 0 0 0 0 39 100 99 59 69 95 100 100 100 100 100 97 34 62 26 5 5 5 5 5 5 52 12 5 5 5 10 5 5
0 18 0 0 0 0 0 0 0 0 0 0 0 0 0 0 0 0 0 0 0 9 100 100 100 94 100 85 100 100 100 82 72 74 84 5 5 55 24 5 5 24 32 14 13 16 5 8 5
0 0 0 0 0 0 0 0 0 0 0 0 0 0 0 0 0 0 0 0 0 0 10 81 98 99 76 64 39 60 43 56 91 96 77 12 5 5 5 8 6 9 5 22 54 46 9 86 92
0 0 0 0 0 0 0 0 0 0 0 0 0 0 0 0 0 0 0 0 0 0 0 2 11 100 100 98 57 41 40 94 95 8 5 5 6 21 26 29 70 24 69 40 92 33 5 5 5
4 0 0 0 0 0 0 0 0 0 0 0 0 0 0 0 0 0 0 0 0 0 0 0 0 6 90 99 100 84 21 45 41 31 49 98 100 100 62 67 81 98 91 31 5 5 5 6 61
5 5 5 4 0 0 0 0 0 0 0 0 0 0 0 0 0 0 0 0 0 0 0 0 0 0 0 5 48 100 71 10 30 99 100 100 100 100 100 100 100 100 92 70 20 8 31 45 68
30 68 63 5 0 0 0 0 0 0 0 0 0 0 0 0 0 0 0 0 0 0 0 0 0 0 0 0 4 1 3 6 97 100 100 100 100 100 100 100 100 78 96 19 65 22 100 39 51
75 69 100 29 10 3 2 1 0 0 0 0 0 0 0 0 0 0 0 0 0 0 5 0 0 0 0 3 0 0 0 1 97 100 100 100 100 100 100 100 100 100 75 34 100 100 100 79 49
16 78 100 100 100 100 7 1 0 0 0 0 0 0 0 0 0 0 0 0 0 0 0 5 0 0 2 25 0 0 0 10 39 100 100 100 100 100 100 100 100 100 82 99 100 100 100 99 36
76 5 30 62 100 100 5 0 0 0 0 0 0 0 0 0 0 0 0 0 0 0 0 0 0 2 0 0 1 3 5 58 52 99 100 100 100 100 100 100 100 100 100 100 100 100 100 84 10
84 84 85 85 100 59 28 0 0 0 0 0 0 0 0 0 0 0 0 0 0 0 0 0 0 0 0 0 0 0 25 79 23 84 100 100 100 100 100 100 100 100 100 100 100 80 38 34 91
94 64 21 16 5 0 2 0 0 0 0 0 0 0 0 0 0 0 0 0 0 0 0 0 0 0 0 0 0 0 60 72 64 99 100 100 100 100 100 100 100 100 100 100 81 48 36 8 5
100 100 22 5 47 89 3 3 0 0 0 0 0 0 0 0 0 0 0 0 0 0 0 0 0 0 0 0 0 0 1 1 25 97 100 100 100 100 100 100 100 100 80 73 44 6 5 5 5
44 13 20 5 33 100 98 94 0 1 9 5 5 0 0 0 0 0 0 0 0 0 0 0 0 0 0 0 0 0 15 0 52 100 100 100 100 100 100 100 100 100 57 5 5 5 5 5 9
58 46 61 45 86 95 5 90 0 8 100 51 3 0 0 0 0 0 0 0 0 0 0 0 0 0 0 0 0 13 4 44 100 100 100 100 70 79 5 41 14 100 43 28 5 5 5 5 5
94 100 83 99 100 42 5 53 0 2 72 100 4 0 0 0 0 0 0 0 0 0 0 0 0 0 0 1 3 70 95 100 100 100 100 97 92 5 8 16 56 87 58 5 5 5 5 5 5
52 85 51 42 23 7 5 12 0 0 1 98 93 5 0 0 0 0 0 0 0 0 0 0 0 0 2 0 6 70 95 100 100 100 100 100 8 5 5 5 70 80 5 5 5 5 5 3 0
99 99 38 100 17 100 42 1 0 0 0 32 54 69 26 0 0 0 0 0 0 1 0 0 0 0 2 1 2 56 100 100 100 99 92 5 51 8 5 18 6 5 5 5 15 5 5 5 5
94 78 90 100 93 100 10 4 0 0 0 12 8 99 97 4 5 5 4 0 0 0 0 0 0 0 2 16 94 100 100 100 97 16 5 34 49 5 5 15 19 54 27 5 5 12 5 5 5
100 100 100 99 93 98 67 2 5 0 22 0 1 5 73 12 1 5 5 5 1 0 0 0 1 4 88 99 100 100 100 34 0 0 5 64 38 5 5 5 42 9 5 5 5 5 5 5 1
8 77 100 100 100 100 100 28 98 65 80 89 0 0 5 74 0 5 5 5 5 6 17 0 26 82 100 100 100 91 12 5 2 2 5 51 14 5 5 77 66 5 5 5 5 5 5 5 4

GFSSGP_prec_cloud_036.txt.gz
Cloud_Cover
0 0 0 4 4 5 0 0 0 0 0 0 0 0 0 2 5 26 0 5 5 3 7 7 2 0 0 0 0 0 0 0 0 2 5 94 34 78 10 1 4 5 56 53 60 99 84 99 100
0 0 0 0 0 0 0 0 0 0 0 0 0 0 1 5 5 7 5 3 5 11 5 73 4 0 0 0 0 0 0 0 0 0 0 68 0 0 0 0 0 4 5 5 5 5 0 21 3
0 0 0 0 0 4 0 0 0 0 0 0 0 0 1 5 16 6 18 12 22 61 26 5 4 0 0 0 0 0 0 0 0 0 62 72 0 0 0 0 0 0 3 5 5 0 0 0 0
0 0 0 0 5 2 0 0 0 0 0 0 0 0 0 5 5 80 20 60 69 6 100 67 52 3 2 0 0 0 0 0 0 0 0 0 0 0 0 4 5 5 5 5 5 5 5 5 2
4 1 0 4 5 0 0 0 0 0 0 0 0 0 0 4 54 12 68 100 12 46 90 100 93 45 5 5 0 0 3 0 0 0 0 0 0 0 0 0 6 7 2 3 5 7 50 44 74
5 5 5 84 5 0 0 0 0 0 0 0 0 0 0 0 3 46 74 45 89 76 100 96 83 100 100 84 26 5 5 5 5 2 0 0 0 26 6 0 6 5 5 1 17 100 100 100 100
14 21 12 15 5 0 0 0 0 0 0 0 0 0 0 0 0 4 5 5 5 5 99 100 100 100 100 100 100 52 9 56 5 11 31 20 11 84 5 15 39 6 4 5 42 65 100 100 100
11 5 77 34 5 0 0 0 0 0 0 0 0 0 0 0 0 0 5 5 4 0 27 98 100 100 100 100 100 99 93 99 100 100 99 100 100 100 9 37 97 90 83 97 92 50 59 52 64
5 5 5 5 1 0 0 0 0 0 0 0 0 0 0 0 0 0 0 0 0 0 1 43 54 99 99 100 100 100 100 100 100 100 97 100 100 100 100 100 100 81 5 8 5 5 6 5 5
31 5 5 4 1 0 0 0 0 0 0 0 0 0 0 0 0 0 0 0 0 0 0 4 5 56 75 79 100 100 100 98 100 100 100 100 100 100 99 44 43 92 5 11 91 65 13 16 43
5 5 5 4 0 0 0 0 0 0 0 0 0 0 0 0 0 0 0 0 0 0 0 0 4 21 83 42 80 100 98 67 41 100 100 100 100 100 60 35 26 5 5 11 19 38 6 5 23
100 100 6 5 3 0 0 0 0 0 0 0 0 0 0 0 0 0 0 0 0 0 0 0 5 74 82 100 73 30 97 70 27 16 95 89 100 85 30 44 48 23 6 52 13 40 11 25 21
100 100 16 5 3 0 0 0 0 0 0 0 0 0 0 0 0 0 0 0 0 0 0 0 3 5 76 70 99 100 82 93 98 6 5 29 26 95 49 13 46 36 46 16 51 72 40 53 48
100 71 13 44 5 3 0 0 0 0 0 0 0 0 0 0 0 0 0 0 0 0 0 0 0 5 22 58 15 18 94 100 99 60 11 6 33 17 23 67 29 64 56 81 86 85 94 98 65
56 56 9 5 5 5 3 0 0 0 0 0 0 0 0 0 0 0 0 0 0 0 0 0 0 0 0 0 5 5 13 72 65 100 91 13 88 100 93 86 100 100 100 95 90 87 64 95 87
5 64 45 11 5 24 5 77 4 0 0 0 0 0 0 0 0 0 0 0 0 0 0 0 0 0 0 0 0 4 14 47 73 25 76 98 94 99 86 54 66 95 100 100 100 100 93 87 100
21 5 31 77 11 6 5 16 75 2 0 0 0 0 0 0 0 0 0 0 0 0 0 0 0 0 0 0 0 2 26 55 66 33 32 100 96 93 94 100 44 5 51 100 100 100 100 100 100
5 7 5 10 46 5 5 5 64 13 6 4 0 0 0 0 0 0 0 0 0 0 0 0 0 0 0 0 0 7 74 98 82 5 33 100 100 100 84 88 49 5 58 99 100 100 100 100 100
100 100 45 62 31 8 5 5 100 100 100 100 34 0 0 0 0 0 0 0 0 0 0 0 0 0 0 0 0 26 88 77 24 7 40 100 99 19 100 28 39 66 100 100 100 100 100 100 100
100 100 64 80 73 5 7 15 49 100 100 100 90 9 1 0 0 0 0 0 0 0 0 0 0 0 0 0 0 6 72 91 86 86 98 64 78 25 100 34 32 100 100 100 100 100 100 100 100
100 78 97 99 70 11 5 8 8 10 83 100 100 98 54 4 0 0 0 0 0 0 0 0 0 0 0 0 1 20 18 84 100 100 90 87 87 92 100 96 100 100 100 100 100 100 100 100 100
46 35 5 24 59 34 46 12 5 11 98 92 95 74 40 5 1 0 0 0 0 0 0 0 0 0 0 0 0 2 5 44 100 100 98 72 100 100 100 98 100 100 82 90 99 100 100 100 100
50 59 50 70 76 86 38 100 0 5 5 36 5 5 0 4 1 0 0 0 0 0 0 0 0 0 0 0 0 0 4 97 100 94 100 100 100 64 71 91 100 87 65 90 100 100 99 94 27
29 71 100 100 99 88 4 59 0 2 11 5 4 0 0 0 0 0 0 0 0 0 0 0 0 0 0 0 0 0 2 18 36 50 96 100 100 98 9 3 5 12 11 6 97 100 89 33 38
95 99 91 89 100 17 0 15 0 4 0 0 0 0 0 0 0 0 0 0 0 0 0 0 0 0 0 0 0 5 2 46 25 72 86 100 25 100 13 0 5 6 2 3 81 95 16 5 5
100 94 43 5 7 4 28 14 0 0 0 0 0 0 0 0 0 0 2 0 0 0 0 0 0 0 0 0 0 4 43 100 86 76 58 100 88 87 98 0 5 5 0 5 9 5 5 5 5
83 94 14 95 84 93 8 0 0 0 0 0 0 0 0 0 0 0 5 1 0 0 0 0 0 0 0 0 0 3 75 79 100 72 100 100 100 27 26 0 4 5 3 5 5 5 5 53 69
50 54 90 100 90 59 6 4 41 97 5 0 0 2 0 0 5 0 5 15 0 0 0 0 0 0 2 3 2 14 100 100 98 100 100 100 100 80 5 5 5 5 5 5 5 5 5 8 7
100 100 78 88 97 98 52 30 100 94 1 0 0 0 0 0 71 5 28 97 3 0 0 0 0 0 5 5 5 17 100 100 100 100 100 100 41 5 2 5 5 5 5 15 79 18 20 5 5
7 34 100 100 88 100 100 39 100 100 49 5 0 0 0 1 74 10 68 65 4 1 2 0 0 5 5 5 5 72 100 100 100 100 100 100 86 6 5 47 5 5 39 100 55 5 5 5 5

GFSSGP_prec_cloud_039.txt.gz
Cloud_Cover
0 2 0 0 0 0 4 0 0 0 0 0 0 0 0 4 86 74 16 0 0 3 3 6 5 5 5 1 0 0 0 0 0 0 9 45 21 18 3 5 5 13 2 0 41 86 75 100 100
0 0 0 0 0 5 5 5 5 2 0 0 0 0 0 1 2 2 5 3 1 5 9 99 3 4 3 1 0 0 0 0 0 0 8 18 2 0 0 0 0 0 0 0 0 6 46 42 32
0 0 0 0 0 5 0 3 0 0 0 0 0 0 0 0 0 0 1 1 1 5 8 64 5 0 1 2 4 4 0 0 0 0 10 0 0 0 0 0 0 0 0 0 0 0 0 0 5
0 0 0 0 0 0 0 1 0 0 0 0 0 0 0 0 0 5 5 5 5 5 5 5 5 5 5 0 4 5 3 5 0 9 8 0 0 0 0 0 0 0 0 0 0 4 5 3 0
5 5 0 0 0 0 0 0 0 0 0 0 0 0 0 0 0 5 5 6 5 5 14 10 1 5 5 97 29 15 5 5 5 5 2 0 0 0 0 0 0 0 0 0 0 0 28 5 3
4 4 1 1 0 0 0 0 0 0 0 0 0 0 1 0 0 5 5 5 5 54 11 55 14 20 30 54 94 93 100 52 5 16 7 13 6 6 15 4 3 0 0 0 0 0 5 5 5
5 5 4 5 4 3 2 0 0 0 0 0 0 0 0 0 0 0 5 5 24 20 14 30 46 9 96 100 100 95 100 86 100 100 94 66 9 43 62 14 11 5 5 1 2 2 24 48 79
9 5 5 9 15 5 0 0 0 1 0 0 1 0 2 0 0 0 0 5 5 5 5 5 18 67 61 47 100 100 100 100 100 100 100 100 100 47 61 94 91 58 72 8 9 38 98 100 96
41 5 36 5 5 5 2 0 5 3 0 5 0 0 0 0 0 0 0 5 5 5 4 0 5 82 64 38 43 74 100 100 100 100 100 100 100 100 95 58 56 34 12 79 100 100 96 100 24
64 6 72 14 4 5 0 0 0 1 0 0 0 0 0 0 0 0 0 0 2 0 0 0 0 7 7 40 93 64 84 79 98 100 100 100 100 100 100 100 100 100 100 100 100 100 70 46 44
87 7 89 5 5 5 5 0 0 4 2 1 0 0 0 0 0 0 0 0 0 0 0 0 1 11 19 16 52 98 100 82 62 100 100 100 100 100 100 100 100 100 100 100 100 100 68 61 23
98 11 86 6 5 5 5 5 0 0 0 0 0 0 0 0 0 0 0 0 0 0 0 0 0 4 4 10 20 84 79 20 31 67 72 94 100 100 100 100 99 100 100 100 100 72 53 34 27
71 25 64 98 93 12 5 5 2 1 0 0 0 0 0 0 0 0 0 0 0 0 0 0 0 1 2 5 22 18 16 33 86 57 98 54 13 41 23 77 16 81 88 82 94 51 57 53 23
100 91 84 44 100 100 98 18 5 1 0 0 0 0 0 0 0 0 0 0 0 0 0 0 0 0 0 0 4 53 58 46 100 19 21 100 61 46 77 28 19 36 12 10 39 94 95 98 57
100 69 5 5 18 100 94 70 5 0 0 0 0 0 0 0 0 0 0 0 0 0 0 0 0 0 0 0 6 5 11 37 100 54 26 26 92 100 100 94 96 25 25 36 60 80 96 96 68
53 61 27 23 7 5 16 67 4 0 0 2 1 0 0 0 0 0 0 0 0 0 0 0 0 0 0 0 6 4 7 62 100 100 66 35 5 6 67 8 35 97 75 66 12 5 5 14 5
71 100 100 100 82 5 20 76 5 2 4 5 4 3 0 0 0 0 0 0 0 0 0 0 0 0 0 0 0 0 0 85 100 100 100 29 5 5 2 67 63 5 10 10 5 5 15 5 11
33 23 9 19 6 5 5 5 51 5 5 30 5 44 6 0 4 4 0 0 0 0 0 0 0 0 0 0 0 0 0 100 100 100 100 75 1 2 4 5 59 18 5 5 5 17 5 5 27
96 32 5 6 5 4 4 5 68 31 9 5 5 5 5 30 5 5 5 4 0 0 0 0 0 0 0 0 0 0 0 92 100 100 100 22 0 82 96 0 51 100 7 46 92 99 92 26 12
100 77 5 5 5 4 5 5 5 14 5 5 5 5 26 100 100 96 81 66 5 0 0 0 0 0 0 0 0 0 77 95 100 100 62 8 33 89 58 29 87 100 87 84 98 99 89 64 55
100 100 85 26 5 5 5 5 5 5 44 34 21 39 38 99 100 100 27 5 5 3 0 0 0 0 0 0 0 9 3 25 100 100 96 100 52 100 100 98 100 100 100 99 90 86 74 68 58
100 100 100 100 97 80 88 7 36 99 100 98 100 49 16 26 92 100 78 5 2 4 5 0 0 0 0 0 0 0 0 4 74 100 100 100 91 86 100 100 71 100 100 95 100 87 76 38 41
100 100 100 100 100 97 100 74 18 100 98 100 61 45 39 5 0 4 5 5 4 1 5 1 0 0 0 0 0 0 0 0 23 100 100 100 98 100 100 100 100 99 82 5 1 20 5 5 39
100 100 100 100 98 88 93 88 21 72 46 35 12 4 0 0 0 0 0 0 0 0 3 5 0 0 0 0 0 0 0 0 35 100 100 100 100 94 100 100 100 100 84 5 5 5 2 4 4
96 90 68 74 100 5 4 0 0 99 15 0 0 0 0 0 0 0 0 0 0 0 0 4 2 0 0 0 0 0 16 0 8 60 100 100 100 100 88 100 100 100 100 20 5 1 0 1 5
100 98 9 5 5 4 4 2 3 3 6 0 0 0 0 0 0 0 0 0 0 0 0 0 0 0 0 0 0 29 14 0 17 73 100 100 100 100 100 100 100 100 87 5 0 0 0 4 4
80 98 15 97 30 37 2 5 0 1 4 0 0 0 0 0 0 0 0 0 0 0 0 0 0 0 3 0 2 28 0 2 82 100 93 88 100 100 100 100 100 100 100 82 6 4 5 5 5
66 58 82 98 86 5 0 0 5 61 71 80 100 59 1 0 0 0 0 0 0 0 0 0 0 5 7 4 26 1 5 54 100 90 100 74 95 94 100 100 100 100 100 71 5 5 5 5 5
76 98 55 89 100 86 65 26 100 100 100 93 82 100 25 5 0 0 0 0 0 0 0 3 6 30 96 5 1 5 13 59 94 85 99 100 100 100 100 100 100 93 33 5 5 5 5 17 8
70 77 98 100 47 100 100 39 96 100 87 51 100 100 41 2 0 0 0 0 0 1 49 50 69 51 81 5 5 5 5 52 100 100 100 100 65 100 98 100 100 100 35 19 59 5 46 46 5

GFSSGP_prec_cloud_042.txt.gz
Cloud_Cover
4 5 4 4 5 0 0 0 0 0 0 0 5 5 2 2 19 6 39 5 0 0 0 2 0 5 4 5 5 5 5 5 5 5 7 6 11 8 0 0 0 0 53 75 74 49 98 99 100
5 5 1 0 2 3 0 0 0 0 0 0 0 0 0 0 5 5 3 5 5 0 1 3 0 1 5 3 0 1 4 1 1 0 97 52 25 4 0 0 0 0 0 0 0 0 33 28 55
5 5 2 1 5 5 0 20 5 0 0 0 0 0 0 0 0 0 5 4 5 1 12 0 0 0 0 0 0 0 0 0 0 2 45 2 2 0 1 0 0 0 0 0 0 0 0 0 0
0 0 0 0 1 0 0 19 5 2 0 0 0 0 0 0 0 0 0 0 0 0 0 4 5 0 0 0 0 0 0 0 0 0 3 0 0 0 0 0 0 0 0 0 0 0 0 0 0
0 0 0 0 2 0 0 1 4 0 0 0 0 0 0 0 0 0 0 0 0 11 0 0 0 4 1 1 1 0 0 0 0 41 5 5 5 1 0 5 1 0 0 0 0 0 0 0 0
5 0 1 3 1 0 0 0 0 0 0 0 0 0 4 0 0 0 0 5 3 5 5 1 4 5 3 1 5 5 5 4 0 1 8 83 80 48 32 19 13 5 5 2 2 3 0 0 2
5 5 5 4 0 0 0 0 0 0 0 0 0 0 0 0 0 0 0 2 5 3 5 5 2 5 0 0 3 4 5 5 5 5 62 60 95 100 100 48 6 37 52 36 5 5 5 5 5
13 5 1 2 5 4 0 1 5 0 0 0 0 0 0 5 1 0 0 0 5 5 5 5 5 3 3 0 4 5 1 0 5 24 87 100 100 100 100 100 100 100 100 71 76 11 6 18 5
20 5 6 57 5 78 0 0 4 0 0 0 0 0 0 3 0 0 0 0 0 1 4 0 4 0 32 0 1 5 5 3 0 1 31 100 100 100 100 100 100 100 100 100 100 100 99 48 90
5 5 96 72 14 5 0 0 0 0 0 0 0 0 0 0 0 0 0 0 0 2 5 0 0 0 3 59 1 4 5 5 4 0 0 2 66 100 100 100 100 100 100 100 100 100 100 100 96
64 86 100 100 33 5 5 1 0 0 0 1 0 0 0 0 0 0 0 0 0 0 0 0 10 2 0 43 0 64 5 5 5 5 0 0 6 4 68 100 100 100 100 100 100 100 100 100 100
100 100 100 100 66 16 6 4 4 0 0 0 0 0 0 1 0 0 0 0 0 0 0 0 0 32 31 0 0 15 86 35 29 5 5 5 0 0 2 10 41 91 99 100 100 100 100 100 100
100 100 100 100 90 100 8 9 5 5 0 3 0 0 0 0 0 0 0 0 0 0 0 0 0 0 48 48 0 0 0 0 53 23 5 5 5 0 0 5 42 71 92 20 28 44 43 9 34
100 100 100 100 100 100 32 6 5 6 1 0 0 0 0 0 0 0 0 0 0 0 0 0 0 0 0 8 16 0 49 20 4 20 5 5 5 5 0 5 5 30 72 29 5 5 5 5 5
100 100 100 100 100 78 9 5 5 100 75 59 5 5 3 0 0 4 0 0 0 0 0 0 0 0 0 0 20 19 21 98 29 38 6 5 5 5 5 5 3 5 5 8 86 49 5 33 46
100 100 100 100 100 100 54 74 5 17 100 82 5 5 5 0 1 0 0 0 0 0 0 0 0 0 0 0 0 0 0 100 44 53 57 5 5 2 5 5 3 4 5 5 5 5 5 5 5
100 100 100 100 100 100 76 59 6 5 9 13 5 5 1 1 0 0 0 0 0 0 0 0 0 0 0 0 0 0 0 63 51 83 100 68 1 0 0 4 4 5 4 5 5 5 5 5 5
100 100 100 100 100 100 52 6 5 5 5 4 5 5 5 3 4 1 5 5 4 2 0 0 0 0 0 0 0 0 0 56 96 100 100 100 10 0 0 0 0 1 2 1 5 5 69 47 8
100 100 100 100 100 95 6 5 5 5 5 6 5 5 27 7 5 5 5 5 9 70 24 5 0 0 0 0 0 0 0 4 100 100 100 93 3 5 0 0 0 0 0 0 0 35 87 5 45
38 30 16 5 7 4 5 5 5 5 2 5 25 8 5 5 5 5 5 5 5 5 83 100 92 5 2 0 0 0 12 34 90 100 92 98 43 5 0 5 62 98 96 85 5 20 90 26 6
27 6 6 8 5 5 5 4 5 5 5 5 5 5 5 5 5 5 5 4 5 5 60 100 100 94 5 2 0 0 0 0 21 39 96 44 48 4 5 2 45 99 100 100 99 82 62 100 69
100 97 99 26 5 33 5 5 5 5 15 44 7 5 5 5 5 5 2 0 0 4 33 78 100 100 38 5 1 0 0 0 0 1 3 45 100 86 76 39 48 100 100 100 99 100 100 98 80
89 100 100 100 100 100 100 52 56 98 89 14 52 5 32 9 7 4 5 5 5 5 4 55 96 100 98 5 5 0 0 0 4 10 0 100 100 100 100 99 73 94 100 100 100 100 100 100 100
100 100 100 98 99 90 100 100 75 100 100 100 99 81 40 5 18 33 97 73 3 0 4 3 34 67 56 5 4 0 5 0 0 15 44 100 100 100 100 100 83 68 100 100 100 100 96 94 100
100 100 100 96 91 42 5 5 72 100 100 100 29 5 5 5 41 89 98 93 5 0 0 3 5 5 10 8 5 1 0 0 0 0 30 56 100 100 100 100 100 100 100 100 100 100 100 99 100
100 98 5 5 5 9 14 14 16 100 100 99 3 0 0 5 0 0 0 0 0 0 0 0 0 0 0 0 0 0 4 4 0 0 0 14 100 100 100 100 100 42 100 100 100 100 100 100 100
84 63 23 84 35 9 75 77 5 3 5 5 5 0 0 1 1 0 0 0 0 0 0 0 0 0 0 0 0 1 0 5 3 0 42 94 100 100 100 100 98 90 100 100 100 100 100 100 100
80 50 71 51 60 10 3 2 5 5 5 6 5 5 39 34 50 75 28 26 0 2 0 0 0 0 0 0 3 65 5 1 5 22 86 100 100 100 100 97 86 97 96 100 100 100 100 100 100
40 94 92 77 50 5 5 6 4 10 80 92 100 100 98 100 57 29 86 100 100 100 30 0 0 0 31 50 98 47 6 14 71 100 100 100 100 100 100 86 48 85 92 97 100 100 100 100 100
91 41 18 87 5 40 32 43 5 30 40 24 6 7 23 58 46 84 0 9 89 46 4 0 0 96 100 100 97 35 15 8 76 100 97 100 100 100 100 100 93 96 100 80 98 96 94 100 100

GFSSGP_prec_cloud_045.txt.gz
Cloud_Cover
5 5 5 5 5 6 5 5 5 4 5 5 5 2 0 3 4 3 5 5 5 5 2 0 0 0 1 11 16 5 5 5 5 14 21 66 15 5 0 0 0 56 99 100 77 99 47 96 51
6 5 4 5 57 16 4 1 3 0 5 2 0 0 0 3 5 0 0 4 5 5 14 2 0 0 1 0 0 0 0 0 1 5 7 12 7 5 5 5 4 5 12 5 0 5 17 11 0
7 5 5 5 36 70 5 0 0 2 5 1 0 0 0 4 0 0 0 0 2 5 4 7 0 0 0 0 0 0 0 0 0 14 15 19 0 2 3 0 0 0 1 3 5 2 0 0 0
5 5 2 5 28 5 3 5 5 5 0 0 0 0 0 0 0 0 0 0 2 5 0 0 0 0 0 0 0 0 0 0 0 20 0 0 0 0 0 0 0 0 0 0 0 1 3 0 0
4 5 0 5 5 0 3 0 5 5 2 0 0 0 0 0 0 0 0 0 0 0 0 0 0 0 0 2 1 0 0 0 5 1 0 0 0 0 0 0 2 0 4 5 5 0 0 5 3
5 2 1 7 3 0 0 0 0 0 2 0 1 0 0 0 0 0 0 0 0 2 0 0 0 0 5 5 0 0 0 2 32 2 4 2 0 0 0 0 2 5 5 5 5 5 6 7 16
4 4 5 5 4 0 0 0 0 0 0 0 0 0 3 0 0 0 4 4 2 0 0 3 4 0 1 0 0 0 0 0 0 0 0 0 5 53 7 3 2 5 5 32 6 14 14 24 52
5 5 5 5 90 5 5 0 0 0 0 0 0 0 0 0 0 0 0 0 0 0 0 15 7 0 0 0 0 0 0 0 0 0 0 0 1 5 5 87 99 39 91 14 45 99 98 100 100
5 4 17 100 100 99 1 0 0 0 0 0 0 0 0 0 0 0 0 0 0 0 0 1 18 4 1 2 0 0 0 0 5 0 0 0 0 0 5 7 85 100 100 100 100 100 100 100 100
5 5 89 79 95 98 4 0 0 0 1 0 0 0 0 0 0 0 0 0 0 0 0 0 0 1 0 0 0 0 0 0 3 5 3 0 0 0 0 0 0 1 42 98 93 100 100 100 100
11 51 100 75 56 5 5 3 0 4 4 1 0 0 0 0 0 0 0 0 0 0 0 0 0 0 0 2 3 0 0 0 3 5 5 5 2 0 0 18 1 2 0 0 17 86 100 100 99
57 69 100 100 49 5 5 5 0 0 5 4 0 0 0 0 0 0 0 0 0 0 0 0 0 0 0 0 2 0 0 0 0 0 4 5 5 5 4 18 12 2 0 0 0 0 5 18 33
62 41 97 100 66 5 72 12 5 5 4 4 0 0 0 0 0 0 0 0 0 0 0 0 0 0 0 0 0 0 0 0 0 0 0 5 5 5 5 2 0 0 0 1 2 1 0 1 4
99 100 81 99 100 94 98 100 68 21 5 3 0 0 0 2 4 0 0 0 0 0 0 0 0 0 0 0 0 0 0 0 0 0 0 3 5 5 5 4 0 2 0 5 5 4 1 2 2
100 100 100 100 100 100 100 100 91 100 80 53 3 1 5 5 5 0 0 0 0 0 0 0 0 0 0 0 0 0 0 0 0 0 0 0 2 70 67 5 0 0 5 0 3 5 5 5 5
100 100 100 100 100 100 97 99 100 100 94 48 99 79 6 8 5 5 5 0 0 0 0 0 0 0 0 0 0 0 0 0 0 0 0 0 0 4 5 5 2 0 5 0 0 1 4 5 5
100 100 100 100 100 99 11 100 100 91 64 9 16 8 5 17 13 5 5 5 0 0 0 0 0 0 0 0 0 0 0 0 21 0 0 0 0 0 0 0 0 0 0 0 0 0 0 0 5
100 100 100 100 100 100 10 75 100 100 14 98 95 20 9 57 20 5 4 5 0 0 0 0 0 0 0 0 0 0 0 48 3 95 2 0 0 0 0 0 0 0 0 0 0 0 0 0 0
100 100 100 100 100 100 100 100 100 100 77 69 96 26 5 5 5 47 9 5 0 0 0 0 0 0 0 0 0 0 0 0 44 100 100 0 0 0 0 0 0 0 0 2 5 5 5 2 0
100 100 100 100 100 100 100 100 100 100 100 100 100 100 93 5 5 5 5 5 5 5 2 0 1 0 3 0 4 2 5 7 90 70 100 92 0 0 0 0 1 0 3 5 4 5 5 56 73
79 94 100 100 100 100 100 100 100 100 100 100 100 71 25 22 19 5 5 5 5 5 5 5 5 5 3 10 0 0 2 20 98 100 99 94 17 0 18 28 3 5 76 5 7 44 94 100 100
49 78 95 87 100 100 100 100 100 100 100 100 85 89 26 6 5 2 3 4 5 5 5 5 26 5 5 6 37 0 1 6 5 69 19 11 5 5 98 96 8 48 11 30 19 5 100 100 100
24 44 86 25 12 5 5 5 100 84 96 95 30 18 12 5 1 0 0 2 4 3 5 5 1 5 5 5 1 0 5 7 5 21 15 98 92 57 60 18 98 97 100 88 55 36 47 100 100
100 100 23 13 7 44 52 3 5 97 100 100 99 64 70 87 76 73 40 17 21 38 22 5 19 21 5 5 2 5 5 12 5 5 4 20 27 68 17 83 100 100 100 100 83 98 98 100 100
77 100 94 54 93 69 54 9 10 92 100 100 100 99 79 88 93 98 100 90 96 88 27 5 5 4 5 0 0 0 4 5 5 5 5 5 43 68 20 68 100 100 100 100 92 100 85 98 100
60 38 93 81 92 100 94 99 100 100 99 89 78 100 83 95 20 10 10 20 11 18 15 5 5 5 5 5 3 5 0 5 5 5 6 23 38 48 41 70 100 100 100 100 100 89 76 100 100
11 99 100 100 100 99 100 100 100 100 98 47 15 0 1 1 5 0 4 5 0 0 0 5 0 0 0 0 0 0 0 4 70 66 12 54 100 95 60 84 100 100 100 100 100 73 100 24 58
55 86 100 100 87 42 66 97 75 3 1 2 5 5 5 6 25 5 3 2 0 0 0 0 0 0 0 0 0 0 0 2 5 5 5 14 98 100 62 100 100 100 100 100 100 100 57 84 100
97 90 58 17 6 34 42 36 12 5 5 5 5 28 31 97 100 49 3 4 0 0 0 0 0 0 0 0 0 0 0 4 0 1 1 2 98 98 100 100 100 100 100 100 90 99 83 98 100
91 44 41 47 56 46 14 20 39 0 5 8 50 5 5 5 86 53 21 5 4 0 0 4 0 3 2 0 0 3 0 0 0 0 6 91 100 100 100 100 100 100 100 100 99 100 84 100 93

GFSSGP_prec_cloud_048.txt.gz
Cloud_Cover
100 94 17 5 24 5 3 5 8 42 56 0 0 0 0 0 5 7 2 5 5 32 23 5 2 2 4 10 7 5 5 5 5 8 100 100 2 4 0 0 20 77 48 37 59 100 100 36 20
18 11 41 5 86 72 19 2 5 5 3 4 5 0 0 0 0 2 5 3 0 5 15 5 0 0 0 6 12 4 4 4 7 12 94 80 0 0 0 0 2 100 100 100 100 57 12 0 0
5 58 17 15 42 100 69 4 5 5 5 4 1 5 5 4 0 0 0 0 0 5 5 5 5 0 3 6 0 0 0 1 1 2 15 29 0 0 0 0 6 57 28 19 2 0 0 0 0
72 75 100 86 100 100 52 0 5 5 5 5 4 0 5 5 2 0 0 0 0 13 3 5 4 0 0 0 0 4 0 0 0 20 22 20 0 0 0 0 0 0 0 0 0 0 0 0 0
66 7 8 85 100 100 19 2 5 5 5 5 5 5 5 5 5 0 0 0 5 28 0 3 0 0 0 0 0 5 0 0 10 29 10 0 0 0 0 0 0 0 0 0 0 0 0 0 0
48 54 66 100 100 86 8 0 2 0 5 0 4 5 5 5 30 5 0 0 0 18 6 13 0 0 0 0 5 2 0 0 0 0 0 0 0 0 0 0 0 0 0 0 0 0 0 0 4
6 95 92 100 80 16 96 1 4 5 5 5 0 5 5 5 5 0 0 0 6 5 16 29 0 0 5 0 0 0 0 0 0 0 0 0 0 4 0 0 0 0 0 4 5 5 2 0 5
5 9 100 100 86 100 19 2 0 5 5 5 3 0 5 5 42 5 0 4 38 33 26 35 0 3 5 5 3 0 0 0 0 0 0 0 0 0 0 0 0 0 0 3 0 2 6 74 60
5 25 100 100 68 100 20 4 0 1 1 0 5 0 0 5 4 5 37 89 92 76 52 55 36 8 3 0 1 5 0 0 0 0 5 0 0 0 0 0 0 0 5 5 5 16 60 20 17
5 5 100 100 100 99 3 0 0 3 5 4 0 0 0 2 1 3 6 94 100 100 98 68 52 35 3 0 5 1 0 0 0 0 5 5 4 0 0 0 0 0 0 0 0 0 0 2 37
5 12 100 100 100 7 3 0 0 4 5 69 0 0 0 0 0 0 0 0 33 38 74 73 54 25 4 0 6 5 11 3 0 0 0 5 3 5 5 7 1 3 0 0 0 0 0 0 0
100 100 100 100 78 64 56 2 4 5 48 30 3 0 0 1 1 0 0 0 0 0 0 13 24 15 15 0 19 0 0 4 2 0 0 0 0 15 29 12 22 20 7 1 4 2 0 0 0
100 100 100 100 78 5 39 45 6 5 10 5 5 0 0 0 0 3 0 0 0 0 0 0 1 0 17 17 29 9 1 0 0 0 0 0 0 7 10 20 21 15 0 0 0 4 5 5 2
100 100 100 100 98 95 100 100 100 22 5 5 5 3 4 5 2 0 0 0 0 0 0 0 0 0 5 27 23 7 0 0 0 0 0 0 0 0 2 5 7 5 1 0 4 3 0 5 5
100 100 100 100 100 100 100 99 68 79 5 5 5 5 4 0 5 5 0 0 0 0 0 0 0 0 0 0 1 0 0 0 0 0 0 0 0 0 4 1 5 5 0 5 2 0 0 0 0
100 100 100 100 100 93 29 96 100 100 19 5 5 5 15 31 5 17 5 4 0 0 0 0 0 0 0 0 0 0 0 0 0 0 0 0 0 0 0 0 0 1 3 0 0 0 0 0 0
100 100 100 100 100 100 64 100 100 100 89 38 36 97 50 5 14 92 77 5 0 0 0 1 0 0 0 1 3 3 0 3 0 1 0 0 0 0 0 0 0 0 0 0 0 0 0 0 0
100 100 100 100 100 100 95 100 100 100 100 100 100 100 100 100 83 94 100 66 8 5 4 2 5 5 0 4 7 42 5 10 28 12 5 5 5 3 0 0 0 0 0 0 0 0 0 5 5
100 100 100 100 100 99 94 88 100 100 100 100 99 94 99 100 100 92 52 90 28 21 5 5 5 5 0 0 1 5 0 5 30 44 63 100 99 24 0 0 0 0 0 0 0 0 0 2 0
100 100 100 100 100 99 100 100 100 100 100 100 100 100 100 100 100 100 67 8 23 17 5 4 5 5 3 0 0 0 0 2 5 45 100 100 100 96 72 72 39 3 0 6 10 1 4 5 4
98 100 100 100 100 100 100 100 100 100 100 100 100 100 100 100 100 100 100 100 100 57 15 5 2 5 0 5 4 28 52 89 79 64 86 100 100 100 100 90 14 5 7 96 25 4 5 24 5
100 100 100 100 100 100 100 100 100 100 100 100 100 100 100 100 100 100 100 100 100 83 21 5 5 0 0 1 5 5 8 12 4 0 12 69 32 22 100 100 100 100 100 73 83 53 38 32 12
100 100 100 97 95 100 100 100 100 100 100 100 100 100 100 100 100 100 100 100 86 66 5 5 5 5 0 5 5 11 33 57 74 37 39 5 25 53 100 100 100 100 100 66 61 100 100 88 73
100 100 100 100 78 97 100 95 100 100 100 100 100 100 96 85 98 87 91 54 21 3 4 4 2 2 2 1 2 3 5 19 80 100 18 4 0 4 89 100 100 100 100 100 83 100 100 100 93
100 75 84 100 99 97 10 5 80 100 100 100 96 49 59 15 20 13 16 5 5 5 44 67 34 5 5 5 5 0 4 5 10 81 85 2 4 5 61 100 100 100 100 100 100 100 100 100 48
100 44 39 79 49 5 5 5 66 5 57 100 100 93 5 5 5 5 15 40 88 86 65 75 87 93 84 29 5 5 5 1 2 18 15 7 4 9 5 48 100 100 100 100 100 100 100 100 100
58 38 90 96 21 47 5 28 77 91 34 5 5 7 5 5 53 90 41 5 5 5 5 12 5 5 5 1 4 5 5 4 1 3 5 5 7 26 10 91 100 100 100 100 100 100 100 100 100
100 100 56 28 17 5 8 89 100 100 68 5 5 3 9 28 80 87 11 5 3 3 3 1 0 0 0 0 4 5 3 0 1 1 1 4 15 53 30 91 100 100 100 100 100 100 99 100 100
96 94 100 18 5 58 87 100 100 100 92 93 68 21 6 5 1 2 3 5 3 1 0 2 0 0 7 0 0 0 3 0 0 2 0 1 12 88 94 100 100 100 100 100 100 100 100 100 100
90 46 11 39 84 66 42 93 5 8 61 89 98 11 5 4 3 3 5 5 34 5 5 4 0 0 0 0 0 0 0 1 25 41 41 42 70 100 100 100 100 100 100 100 100 100 100 100 100

GFSSGP_prec_cloud_051.txt.gz
Cloud_Cover
33 36 26 78 5 5 2 0 0 4 1 0 0 5 5 5 5 6 5 51 5 21 8 5 9 35 14 5 8 5 5 5 60 97 79 40 4 4 3 0 83 58 3 60 34 78 73 100 27
99 75 99 73 69 5 5 1 2 5 5 4 4 1 5 1 5 9 8 4 5 6 5 24 56 100 11 16 11 10 7 4 33 60 100 83 0 0 0 1 31 49 6 95 100 100 71 1 0
13 28 91 100 100 59 5 5 5 5 19 10 68 5 2 4 4 4 1 32 32 13 4 3 23 5 20 9 6 12 5 11 12 29 37 58 5 0 0 1 16 100 100 96 64 2 0 0 0
90 40 64 100 100 99 3 4 6 5 5 5 5 5 5 2 0 0 5 17 16 34 0 1 4 5 0 0 9 5 10 11 11 1 25 0 7 0 0 0 14 30 18 15 0 0 0 0 0
56 99 27 99 100 100 88 6 5 5 5 5 5 0 4 5 5 5 10 5 34 58 7 0 3 1 0 17 0 1 3 0 3 23 23 0 0 0 0 0 0 0 0 0 0 0 0 0 0
84 40 100 100 100 100 6 4 5 16 60 6 5 1 5 5 5 6 22 23 36 51 32 5 0 0 0 0 0 0 0 0 37 10 14 0 0 0 0 0 0 0 0 0 0 0 0 0 0
91 86 100 100 100 87 17 0 5 23 100 32 2 3 5 5 5 4 1 5 28 46 41 22 0 0 0 1 5 5 0 0 3 13 0 0 0 0 0 0 0 2 0 4 0 0 0 0 0
55 40 100 100 100 100 97 5 5 98 70 10 0 2 5 2 0 5 4 22 36 40 34 27 0 0 2 1 5 3 0 3 0 0 0 0 0 0 0 0 0 0 8 6 0 0 0 0 0
19 65 96 100 100 100 100 83 5 100 100 76 20 1 4 5 5 9 56 95 96 86 59 67 19 11 5 0 0 2 5 3 0 0 0 0 3 1 0 0 0 0 0 5 0 0 0 0 0
34 34 100 100 100 99 14 8 5 50 100 100 100 90 5 20 72 58 100 100 100 100 92 100 50 28 10 1 5 4 0 5 9 0 0 0 0 2 0 0 0 0 0 0 0 0 0 0 0
88 70 100 100 100 99 5 5 5 5 19 96 100 79 5 4 6 18 86 72 100 100 100 100 97 35 12 0 12 11 15 19 12 0 0 0 1 4 0 20 5 3 0 0 0 0 0 0 0
100 100 100 100 100 100 5 5 5 34 100 100 95 31 5 5 5 11 10 73 99 100 100 100 100 70 28 0 9 2 6 11 20 8 0 4 7 5 47 32 25 13 17 6 0 0 0 0 0
100 100 100 100 100 100 22 5 5 5 12 11 6 5 5 5 10 5 4 4 74 100 100 100 100 81 54 15 18 3 1 2 0 5 0 7 5 15 37 35 29 22 20 5 5 0 0 0 0
100 100 100 100 100 88 83 37 5 9 5 2 4 5 5 6 36 5 5 3 0 3 18 46 70 61 48 27 43 16 0 0 0 0 0 0 0 7 26 30 32 22 16 59 6 3 3 0 0
100 100 100 100 100 100 100 96 47 18 4 0 0 5 5 5 5 79 5 1 5 0 0 1 27 32 37 39 66 28 4 0 0 0 0 0 0 0 1 12 28 14 6 52 5 4 2 0 0
100 100 100 100 100 100 90 100 99 47 26 2 7 5 9 59 77 94 79 5 0 5 5 0 0 24 25 42 68 55 17 0 1 0 0 0 0 0 0 1 4 2 4 1 0 0 0 0 0
100 100 100 100 100 100 100 100 100 97 69 5 5 83 64 86 100 81 99 7 0 0 5 5 5 4 4 22 50 53 23 5 5 5 1 4 2 0 0 0 1 0 0 0 0 0 0 0 0
100 100 100 100 100 100 100 100 100 100 100 100 58 97 100 65 96 37 5 7 16 4 5 5 5 5 5 4 58 69 58 10 34 5 5 24 20 5 5 5 5 5 1 1 0 1 0 0 0
100 100 100 100 100 100 100 100 100 100 100 100 100 34 83 100 100 65 96 41 63 39 5 5 1 5 6 5 96 100 99 44 6 11 5 31 93 5 28 47 22 5 5 5 5 5 5 4 2
100 100 100 100 100 100 100 100 100 100 100 100 100 100 100 100 100 100 84 85 100 98 13 37 56 5 5 17 6 6 5 24 5 5 5 13 10 23 69 50 79 75 100 99 43 43 10 11 5
100 100 100 100 100 100 100 100 100 100 100 100 100 100 100 100 100 100 92 56 82 88 100 100 12 5 3 8 19 22 19 46 50 34 5 37 100 97 14 53 100 100 100 100 100 100 100 80 5
100 100 100 100 100 100 100 100 100 100 100 100 100 100 100 100 100 100 100 100 100 100 100 100 100 92 87 100 88 64 66 29 16 5 5 5 5 20 10 44 88 100 100 100 100 100 100 66 36
100 100 100 100 99 100 100 100 100 100 100 100 100 100 100 100 100 100 100 100 53 22 82 94 100 100 99 96 28 57 31 90 30 6 2 15 20 7 5 5 51 96 100 100 100 100 100 100 100
100 100 100 64 89 100 100 100 100 100 98 100 100 85 98 100 99 100 100 100 99 82 47 37 70 72 62 78 61 60 5 6 44 69 64 58 50 32 70 54 84 100 100 100 100 100 100 100 100
50 50 100 100 99 100 100 100 100 100 100 100 96 100 90 82 92 97 99 94 56 37 22 13 7 5 5 5 5 5 21 58 35 35 42 80 56 89 18 26 99 100 100 85 96 100 97 100 100
8 52 69 44 68 68 100 100 100 100 100 100 100 60 5 5 5 5 5 5 5 5 5 22 72 72 26 5 15 13 5 5 6 5 8 70 10 41 99 88 10 58 79 72 100 100 96 100 100
58 87 100 96 99 100 100 100 100 96 5 5 5 5 5 5 5 5 5 1 1 5 5 6 27 24 16 54 14 47 60 52 62 54 58 12 80 74 34 87 98 53 44 88 100 100 100 100 100
99 99 100 95 67 100 100 100 97 39 5 5 0 0 0 0 0 0 4 5 14 61 70 68 87 97 100 80 18 14 7 8 8 19 47 62 80 100 100 100 100 88 91 100 100 100 100 100 100
100 100 100 100 100 100 100 94 49 24 5 5 5 5 2 5 23 91 100 100 92 35 9 5 15 5 8 6 5 20 42 26 20 20 15 10 9 43 82 51 74 99 100 100 100 100 100 100 100
100 100 100 94 60 43 42 69 2 5 5 37 5 5 49 80 9 7 8 5 5 4 4 5 7 37 78 5 11 39 49 37 38 47 48 72 76 91 71 61 96 100 100 100 100 100 100 100 100

GFSSGP_prec_cloud_054.txt.gz
Cloud_Cover
5 5 5 5 0 2 0 0 0 0 0 2 5 5 1 5 4 0 4 5 5 5 6 38 54 43 16 73 15 62 54 29 74 85 20 5 20 5 5 5 5 90 5 6 85 52 14 98 3
5 5 5 5 0 0 0 0 0 1 0 0 2 19 5 5 9 28 20 1 4 7 5 5 5 5 7 35 17 8 11 5 98 100 13 5 5 5 5 7 23 5 1 2 72 93 13 0 0
5 5 4 6 5 0 0 0 0 0 0 0 0 2 5 5 25 67 5 1 14 22 5 5 4 60 46 2 8 9 5 19 100 88 100 26 0 0 0 11 52 3 2 88 25 5 0 0 0
5 5 5 5 47 3 0 0 5 0 0 0 0 0 3 5 21 24 22 29 30 29 0 3 69 99 54 7 0 2 2 39 21 65 21 20 19 0 0 6 41 100 25 19 6 0 0 0 0
5 8 4 85 100 65 0 0 5 4 3 1 0 0 0 2 5 19 48 74 53 41 3 2 66 56 98 3 5 2 2 13 21 6 23 24 0 0 0 0 0 0 20 0 0 0 0 0 0
5 5 5 100 100 95 59 5 5 5 1 42 9 1 0 4 8 71 54 43 45 55 14 1 2 4 5 2 0 4 5 1 0 74 28 19 0 0 0 0 0 0 0 0 0 0 0 0 0
5 65 90 100 100 97 52 6 94 8 29 6 68 12 66 7 17 57 47 46 76 68 30 12 5 5 5 0 0 1 2 0 0 87 2 0 0 0 0 0 0 0 0 0 0 0 0 1 6
6 5 91 100 100 100 74 5 57 100 92 36 9 97 100 64 55 70 60 86 95 69 39 31 9 5 0 0 2 2 0 0 4 100 0 0 0 0 0 0 0 6 3 2 0 0 0 6 0
52 5 97 100 100 100 100 5 5 99 100 11 13 83 96 69 85 75 100 100 100 100 96 56 23 12 9 2 5 4 0 0 0 19 0 0 0 0 0 0 0 0 5 1 0 0 0 0 0
95 100 100 100 100 100 100 7 5 39 100 74 6 30 15 60 100 100 100 100 100 100 100 72 33 24 16 5 5 30 5 0 2 5 0 0 0 0 0 2 2 0 0 0 9 8 0 0 0
100 100 100 100 100 100 78 5 5 5 78 100 100 100 89 100 100 100 100 100 100 100 100 100 90 29 16 5 25 68 68 30 19 5 5 0 2 3 12 13 0 5 5 1 0 3 0 0 0
100 100 100 100 100 100 75 6 5 12 84 100 100 100 100 99 97 100 100 100 100 100 100 100 100 84 32 5 27 19 24 32 32 11 1 11 17 4 10 38 19 10 16 8 5 5 0 0 0
100 100 100 100 100 100 98 43 8 68 97 99 100 100 100 89 7 5 44 90 100 100 100 100 100 100 94 21 26 23 11 19 15 22 5 10 13 9 20 42 36 28 24 8 5 5 5 0 0
100 100 100 100 100 100 100 70 78 100 45 54 92 100 100 100 61 40 94 100 85 79 100 100 100 100 100 64 37 17 1 0 8 18 5 7 8 5 22 69 56 36 26 16 5 5 5 0 0
100 100 100 100 100 100 100 100 100 100 97 58 5 5 48 97 99 100 100 100 98 5 4 100 100 100 100 95 52 29 5 0 3 0 1 0 1 0 6 32 48 29 26 1 5 5 1 0 0
100 100 100 100 100 100 100 100 100 100 61 6 56 15 84 100 100 89 96 100 76 5 5 12 71 96 100 100 100 97 40 3 2 3 5 13 5 5 5 20 32 25 23 4 5 1 0 0 0
100 100 100 100 100 100 98 100 100 100 100 80 14 48 100 100 100 100 48 5 21 5 5 5 5 22 59 100 92 100 100 55 15 8 5 5 5 10 5 7 11 10 11 5 3 1 4 7 8
100 100 100 100 100 100 95 99 100 100 100 100 99 98 73 89 100 52 13 20 37 56 80 6 5 5 19 51 99 100 100 97 57 33 5 7 5 10 8 14 5 5 5 5 0 1 4 5 12
100 100 100 100 100 100 100 100 100 100 100 100 83 57 45 100 100 100 100 49 70 70 6 5 5 48 13 90 100 100 100 100 100 43 71 31 42 5 5 5 5 8 100 87 25 5 6 45 65
100 100 100 100 100 100 100 100 100 100 100 97 100 76 6 26 100 100 96 100 100 100 100 100 88 5 5 6 51 51 82 100 100 100 78 67 17 8 5 5 5 20 100 100 93 100 95 92 36
100 100 100 100 100 100 100 100 100 100 100 90 11 7 46 82 80 97 100 88 100 100 100 99 94 97 94 68 100 100 100 100 100 100 54 93 8 19 5 4 5 42 50 68 97 97 100 90 94
100 100 100 100 100 100 100 100 100 100 100 100 100 98 69 80 86 15 54 73 100 88 92 100 100 100 97 100 100 100 100 100 100 100 95 56 24 9 5 5 5 23 66 35 37 95 84 100 100
100 100 100 100 100 100 100 100 100 100 100 100 100 100 100 100 100 51 9 20 99 100 100 100 100 100 100 100 100 84 98 100 100 100 100 100 100 48 40 18 37 98 33 21 97 100 65 100 100
100 100 100 100 100 100 100 100 100 100 100 100 100 100 100 100 67 10 18 37 15 16 73 100 100 100 100 100 96 32 58 91 100 100 100 99 52 58 32 39 8 73 96 100 73 91 75 97 100
100 89 96 100 100 100 100 100 100 100 100 100 100 100 100 97 100 98 90 100 100 100 100 99 93 100 100 100 100 100 100 100 93 94 100 100 100 98 94 58 100 100 75 98 100 100 100 100 100
54 43 87 81 100 100 100 100 100 100 100 99 50 8 16 20 99 100 100 98 79 73 65 53 80 92 94 90 39 14 31 46 48 32 26 39 62 98 88 59 74 91 100 79 100 100 96 100 100
100 100 96 71 100 100 100 100 100 100 100 88 62 32 28 26 5 5 5 48 60 56 18 5 5 5 5 5 5 6 7 5 5 7 5 89 96 100 100 100 100 100 100 99 100 100 100 100 100
46 55 100 90 23 68 79 50 87 72 27 53 97 78 52 7 5 5 1 1 1 3 5 5 2 5 5 5 5 2 0 2 4 16 41 33 28 32 89 100 100 100 100 100 100 100 100 100 100
100 100 100 100 100 92 100 100 97 76 56 42 16 12 12 34 5 5 5 5 2 1 0 0 1 5 5 5 5 5 27 35 40 42 53 55 70 100 100 100 100 100 100 100 100 100 100 100 100
100 100 100 100 100 100 100 71 10 5 5 18 100 99 98 32 5 5 5 5 0 0 0 0 0 0 1 5 23 59 100 100 100 99 74 78 100 100 100 100 100 100 100 100 100 100 100 100 100

GFSSGP_prec_cloud_057.txt.gz
Cloud_Cover
0 0 0 0 0 2 0 0 0 0 5 6 18 5 48 5 5 5 8 6 5 5 5 100 73 20 18 5 8 14 32 60 100 100 90 10 7 5 5 5 5 5 5 30 70 52 1 0 0
5 0 0 4 0 5 0 0 0 0 4 5 26 13 5 5 5 31 4 10 5 5 22 77 38 5 5 5 5 5 5 40 84 100 23 18 5 5 5 1 1 2 0 57 89 42 0 0 0
5 5 2 5 6 5 2 0 0 0 0 5 14 62 6 5 5 1 0 13 5 5 5 5 5 5 5 9 5 5 5 5 43 100 70 5 5 3 17 14 0 0 12 26 100 21 0 0 0
5 6 5 3 74 5 0 0 0 0 0 0 2 14 61 5 5 1 0 21 34 16 0 5 5 5 5 5 0 0 2 4 100 100 90 3 0 0 21 0 0 0 0 0 0 0 0 0 0
83 41 5 65 79 14 2 0 0 0 0 0 0 4 5 28 5 10 31 31 15 24 0 0 83 12 12 5 0 0 0 0 14 100 38 100 3 0 8 0 2 76 0 0 0 0 0 0 3
29 10 18 100 98 80 4 0 0 0 0 0 0 0 5 5 10 100 100 75 30 37 0 0 100 60 17 3 6 0 3 54 98 8 3 93 0 0 0 4 0 0 5 0 0 0 0 0 0
8 31 79 100 100 84 5 0 0 0 0 0 0 0 2 0 22 100 100 71 47 33 0 4 15 22 85 14 9 3 4 0 6 10 50 5 0 0 0 0 0 0 0 0 0 0 0 2 0
7 5 89 100 100 100 6 0 0 5 0 0 0 0 0 0 92 100 100 98 100 58 3 4 5 3 5 1 0 0 4 5 0 94 100 0 0 0 0 0 0 0 1 2 0 10 1 4 0
20 6 100 100 100 100 68 1 5 5 2 0 0 5 1 3 100 100 100 100 100 99 56 90 35 5 5 0 0 5 5 5 0 100 100 0 0 0 0 0 0 0 1 0 8 3 0 0 0
52 48 100 100 100 100 96 4 0 5 5 5 0 57 30 99 100 100 100 100 100 100 100 91 38 24 4 1 4 4 26 7 37 43 61 0 0 0 0 1 0 0 0 0 0 0 0 0 0
65 100 100 100 100 100 97 10 5 5 7 12 5 86 100 100 100 100 100 99 100 100 100 100 59 31 6 5 0 4 5 73 86 24 4 5 0 0 2 1 5 3 2 6 10 24 0 0 0
100 100 100 100 100 100 100 24 5 14 100 89 6 21 24 8 100 100 100 100 100 100 100 100 100 72 30 1 1 4 64 60 93 66 5 5 5 2 22 31 4 4 5 4 17 5 5 5 3
100 100 100 100 100 100 100 85 6 5 11 97 85 59 18 5 5 5 62 89 96 100 100 100 100 100 99 50 17 4 45 8 66 33 5 4 4 4 6 38 53 21 0 0 0 4 5 5 5
100 100 100 100 100 100 100 100 38 100 28 11 67 100 97 48 7 5 30 71 45 49 96 100 100 100 100 100 68 5 3 4 5 35 10 0 5 4 0 12 27 54 20 0 3 2 1 5 3
100 100 100 100 100 100 100 100 100 91 8 100 100 100 100 82 5 26 5 6 84 98 12 6 88 100 100 100 96 48 2 0 0 0 22 0 0 0 0 0 39 33 46 5 0 0 0 4 0
100 100 100 100 100 100 100 100 100 100 100 100 100 100 100 100 100 100 100 11 5 34 12 5 5 74 100 100 100 100 63 16 2 5 5 5 2 2 5 2 5 19 55 38 1 5 5 2 0
100 100 100 100 100 100 100 100 100 100 100 100 100 100 100 100 100 100 94 5 5 5 5 5 5 24 99 100 100 100 100 88 24 16 63 47 22 5 5 34 6 12 44 49 5 5 3 5 4
100 100 100 100 100 100 100 100 100 100 100 100 100 100 100 100 100 100 98 56 52 5 5 5 14 26 49 100 100 100 100 100 97 67 7 77 36 44 31 43 26 37 46 46 21 7 4 4 5
100 100 100 100 100 100 100 100 100 100 100 100 100 100 98 79 100 100 100 100 100 87 60 78 83 100 98 100 100 100 100 100 100 100 68 37 63 66 52 100 100 100 42 36 73 19 5 21 5
100 100 100 100 100 100 100 100 100 100 100 100 100 100 43 58 100 100 100 100 100 100 100 100 100 77 88 68 97 100 95 100 80 100 100 89 95 80 28 49 88 96 84 32 74 41 42 5 8
100 100 100 100 100 100 100 99 100 100 100 100 100 100 89 66 65 70 93 100 100 95 100 100 100 100 100 100 100 100 100 100 100 100 100 100 90 95 65 98 100 100 74 28 30 16 60 21 5
100 100 100 100 100 100 100 100 100 100 99 93 100 100 100 100 34 6 9 58 86 83 100 100 100 100 100 100 100 97 100 100 100 100 100 100 100 100 100 100 100 100 100 100 100 100 100 100 96
100 100 100 100 100 100 100 100 100 100 100 100 100 40 39 20 11 5 5 24 87 89 91 80 74 82 96 99 100 100 100 100 100 100 100 100 100 100 100 84 53 48 64 100 96 87 96 100 82
100 100 100 100 100 100 100 100 100 100 100 100 100 97 66 91 76 75 70 35 36 47 46 20 58 92 100 100 92 92 97 98 100 100 100 100 100 100 100 100 98 67 89 98 100 100 100 100 100
100 100 100 100 100 100 100 100 100 100 100 100 100 89 63 38 46 75 100 100 96 75 68 28 22 34 56 100 100 100 100 100 100 100 100 100 100 100 100 100 100 100 100 100 100 100 100 100 100
100 100 100 100 98 100 100 100 100 100 100 100 100 100 100 100 100 100 100 73 80 97 96 96 99 84 24 35 71 97 100 98 100 100 100 100 100 100 100 100 100 100 82 100 100 100 100 100 100
100 98 100 100 100 100 100 100 100 100 100 100 100 100 98 99 100 100 98 94 68 29 5 5 5 6 6 47 46 29 5 5 5 5 5 60 62 48 96 100 100 100 100 100 100 100 100 100 100
100 96 61 87 100 98 59 70 100 99 64 87 100 94 65 69 68 75 67 36 16 5 6 17 57 30 22 4 2 2 5 4 2 3 4 27 54 81 95 100 100 100 100 100 100 100 100 100 100
100 100 86 86 72 53 52 77 63 59 100 100 78 87 59 19 12 6 5 5 5 5 5 5 5 0 0 0 0 31 97 96 87 81 77 96 100 100 100 100 100 100 100 100 100 100 100 100 100
100 100 100 100 100 100 100 92 6 5 6 8 7 36 75 74 31 20 30 9 5 12 5 5 0 0 0 0 1 83 100 100 100 100 100 100 100 100 100 100 100 100 100 100 100 100 100 100 100

GFSSGP_prec_cloud_060.txt.gz
Cloud_Cover
5 0 0 0 0 0 0 0 0 0 0 3 3 5 0 0 0 1 0 5 5 5 38 5 8 6 72 96 25 5 5 93 100 100 100 44 5 5 5 5 5 5 9 92 61 19 7 3 0
5 4 0 0 0 5 0 0 0 0 0 0 0 3 1 0 0 5 5 0 2 5 10 14 11 6 36 67 7 5 5 33 100 100 92 4 5 3 5 6 6 5 32 70 55 3 5 1 0
5 5 0 0 0 5 2 0 0 5 1 0 0 0 0 0 0 0 4 27 5 5 6 12 5 5 5 16 9 5 5 5 100 100 55 5 5 9 10 8 0 2 74 100 98 0 0 0 0
5 5 2 0 2 5 0 0 0 0 5 3 5 5 5 5 5 0 0 5 5 5 5 18 5 5 75 5 5 5 5 5 5 69 5 5 5 25 6 34 4 1 4 39 27 0 0 0 0
18 5 1 0 4 5 0 0 0 0 0 3 5 5 5 3 5 5 0 0 5 5 8 15 5 11 11 5 5 0 0 0 44 99 3 12 4 6 8 0 0 0 0 0 0 0 0 0 2
85 5 4 4 5 19 3 0 0 0 0 0 5 43 16 5 5 4 5 1 0 8 6 32 35 1 20 5 5 0 1 61 65 100 0 100 0 0 21 0 0 0 0 0 0 0 0 0 0
96 44 10 7 86 98 8 0 0 0 0 0 0 5 50 65 5 89 17 2 4 4 0 0 100 100 68 68 6 5 35 100 98 95 13 9 0 0 0 1 0 0 0 0 0 0 0 0 0
99 66 78 55 100 100 9 2 5 0 0 0 0 0 4 5 23 100 100 15 19 8 0 0 3 98 100 44 98 13 5 4 15 0 56 0 0 0 0 0 0 0 0 0 0 0 15 10 0
100 99 98 100 100 100 16 0 0 0 0 0 0 0 0 0 88 100 100 99 58 20 3 0 0 4 5 11 17 5 5 2 5 8 100 29 0 0 0 0 0 0 0 10 1 0 3 0 0
77 83 100 100 100 100 100 5 0 0 0 0 0 0 0 8 100 100 100 100 100 97 34 6 3 0 0 4 5 5 5 5 5 5 99 87 0 0 0 0 0 0 1 0 0 0 0 0 0
67 100 100 100 100 100 98 7 3 1 0 4 4 5 5 15 100 100 100 100 88 94 46 35 19 5 2 5 26 5 5 5 5 16 19 10 4 1 1 1 0 0 0 1 0 15 0 0 0
66 100 100 100 100 100 100 27 5 5 5 5 5 5 5 5 96 100 99 83 13 98 100 100 97 53 13 14 5 5 5 5 36 69 5 5 5 5 3 6 2 0 0 0 0 3 0 1 0
100 96 100 100 100 100 100 79 5 5 5 5 47 14 5 5 0 20 46 49 96 63 100 100 100 99 60 24 19 5 5 5 42 90 56 5 5 5 5 10 95 6 0 0 0 0 0 0 0
100 100 100 100 100 100 100 100 68 5 5 34 43 62 84 16 5 5 5 5 5 5 24 99 100 100 100 98 31 32 6 5 16 74 29 5 5 5 0 4 30 100 71 1 0 0 0 0 1
100 100 100 100 100 100 100 100 100 69 5 94 100 100 100 97 90 5 5 5 5 5 5 12 31 100 99 100 100 73 50 58 9 79 57 5 5 4 0 3 3 21 100 89 4 5 0 5 5
100 100 100 100 100 100 100 100 100 94 6 90 100 100 96 98 86 93 43 5 5 5 5 5 5 15 47 100 100 100 100 28 5 4 3 4 1 1 0 4 5 5 45 100 49 5 5 5 5
100 100 100 100 100 100 100 100 100 100 99 25 99 100 100 100 100 78 5 5 5 5 10 44 66 86 15 48 100 100 100 93 19 4 0 0 4 4 5 5 5 5 15 100 89 28 18 76 41
100 100 100 100 100 100 100 100 100 100 100 79 92 100 100 100 100 100 100 94 75 35 32 45 44 19 5 5 100 100 100 100 77 16 2 1 4 5 5 5 5 5 5 100 100 73 100 100 84
100 100 100 100 100 100 100 100 100 100 100 100 100 100 100 100 100 100 100 100 100 78 37 5 5 5 5 5 100 100 100 100 100 100 49 33 66 17 7 5 5 5 60 88 100 100 100 90 100
100 100 100 100 100 67 100 100 100 100 100 100 100 100 100 100 100 100 100 100 100 100 98 65 39 49 9 5 5 5 42 100 100 100 100 100 99 47 37 29 78 74 15 11 56 82 100 100 100
100 100 100 100 100 100 100 100 100 100 100 100 100 100 100 100 100 100 97 100 100 100 100 100 99 97 100 100 53 23 15 83 100 100 100 100 92 93 95 100 100 100 100 100 66 81 98 100 100
100 100 100 100 100 100 100 36 100 100 100 100 100 100 100 100 100 100 100 100 98 95 79 100 100 100 100 100 100 100 95 36 93 100 86 61 96 100 100 100 100 100 100 100 100 98 91 100 100
100 100 100 100 100 100 100 100 100 100 100 100 100 100 100 100 17 5 5 69 100 100 100 100 74 78 86 100 100 100 100 100 100 85 100 100 100 100 100 100 100 100 100 100 100 100 100 100 100
100 100 100 100 100 100 100 100 100 100 100 100 100 100 100 94 43 45 51 86 100 100 91 95 78 64 92 85 89 62 66 97 100 100 100 100 100 100 100 100 100 100 100 100 100 100 100 100 100
100 100 100 100 100 100 100 100 100 100 100 72 56 58 49 41 55 78 50 23 5 5 5 5 5 31 85 92 99 98 100 100 100 100 100 100 100 100 100 100 100 100 100 100 100 100 100 100 100
100 94 95 100 100 100 100 100 100 100 100 100 81 54 82 99 100 88 64 14 5 5 5 5 9 5 28 98 100 100 100 100 100 100 100 100 100 100 100 100 100 100 100 100 100 100 100 100 100
100 100 84 79 100 100 100 100 100 100 100 100 100 100 100 100 60 63 58 27 8 26 14 51 86 85 67 62 49 46 64 54 44 17 58 67 68 100 100 100 100 100 100 100 100 100 100 100 100
100 100 98 100 100 99 96 100 100 100 100 100 100 100 100 100 93 66 84 58 62 68 87 87 43 13 33 19 5 10 6 5 5 5 5 5 5 4 70 100 100 100 100 100 100 100 100 100 100
53 16 11 56 72 22 9 100 100 100 60 44 68 89 100 100 100 93 95 86 87 96 96 89 84 32 4 5 25 19 9 46 86 93 81 72 72 86 95 100 100 100 100 100 100 100 100 100 100
100 99 99 99 100 100 100 100 100 99 60 100 100 80 79 85 52 64 58 21 13 12 16 10 5 5 5 5 5 2 21 32 47 98 93 100 100 52 100 100 100 100 100 100 100 100 100 100 100

GFSSGP_prec_cloud_063.txt.gz
Cloud_Cover
21 5 0 0 0 0 0 1 5 4 4 31 55 5 2 0 0 4 1 0 0 3 12 100 100 100 100 100 100 100 100 92 100 100 100 94 55 20 5 29 43 5 15 54 19 10 5 5 0
93 28 5 1 0 4 0 4 3 0 6 40 23 5 4 0 0 0 0 0 0 0 8 11 89 100 100 100 100 98 19 15 100 100 99 31 5 5 5 5 16 7 25 53 33 5 2 0 0
100 97 34 5 1 1 5 1 0 0 2 5 5 5 5 4 0 0 0 0 0 5 7 3 5 21 47 84 100 11 68 47 100 100 74 5 5 6 9 14 8 16 41 50 87 0 0 0 0
99 100 19 29 6 2 5 4 0 0 5 0 5 5 1 0 5 0 0 0 0 1 5 13 5 5 5 19 5 10 23 84 63 5 5 5 8 19 9 12 5 49 100 100 6 0 0 0 0
100 86 83 15 3 5 4 4 0 0 5 5 5 5 5 0 0 0 0 0 0 1 15 2 2 5 10 86 5 53 36 5 7 6 5 5 6 28 34 5 0 0 4 20 0 0 0 0 0
99 92 99 68 6 5 5 0 0 0 0 30 5 5 1 0 0 0 0 1 5 5 36 77 20 45 100 5 5 5 5 19 85 55 0 0 0 31 0 17 2 0 0 0 0 0 0 0 0
82 92 64 55 96 22 5 1 0 0 0 5 27 6 4 5 1 0 0 0 5 7 6 24 20 5 30 5 5 5 5 100 100 70 6 0 0 0 26 0 0 0 0 0 0 0 0 0 0
95 91 79 97 100 90 13 5 5 5 2 0 8 7 5 5 3 0 2 1 5 7 2 14 27 52 100 100 100 28 50 18 14 87 60 0 0 0 0 0 0 0 0 0 0 0 0 0 0
100 69 34 83 100 100 88 1 5 4 0 0 0 11 91 8 8 25 4 2 8 9 13 7 15 33 83 96 77 42 32 13 0 1 0 0 0 1 5 0 0 0 0 0 0 0 5 1 0
100 60 100 100 100 100 85 5 5 5 4 0 0 0 5 5 25 86 100 95 35 5 8 4 9 3 3 7 9 6 9 5 1 3 4 76 1 0 3 2 2 5 3 1 0 0 1 3 0
100 98 100 100 100 100 30 97 0 5 5 5 2 0 4 5 5 43 53 57 99 4 7 2 9 14 10 1 0 2 4 5 5 5 91 21 18 5 0 0 5 5 0 1 1 3 0 0 0
100 100 100 100 100 100 100 100 5 5 4 2 1 5 0 0 0 5 5 5 6 11 18 10 8 10 17 0 0 0 4 1 5 7 16 36 29 5 5 1 0 0 0 9 1 12 8 16 0
100 100 100 100 100 100 100 96 97 5 0 1 4 4 4 0 0 0 0 5 4 5 25 98 66 28 23 12 13 2 4 4 5 5 5 5 23 8 5 18 19 5 0 8 14 23 27 19 0
100 100 97 100 100 100 100 98 85 5 5 0 0 3 5 0 0 0 0 0 0 0 10 29 100 98 62 7 16 31 30 32 41 7 5 5 5 5 5 14 22 32 22 0 8 23 19 21 1
100 100 100 100 100 100 100 100 74 19 5 23 4 0 4 5 5 5 0 0 0 0 0 6 8 79 100 95 29 30 46 43 32 5 5 5 5 58 86 16 6 25 71 16 26 17 12 0 1
100 100 100 100 100 100 100 100 100 98 35 21 72 100 65 19 8 5 5 4 5 5 5 5 5 6 20 71 100 100 23 20 23 8 14 5 8 5 5 5 2 3 25 88 76 27 16 5 5
100 99 100 100 100 100 100 100 100 100 94 16 59 66 90 100 100 82 42 9 9 43 62 56 11 5 9 11 70 100 100 65 21 36 17 5 26 27 23 11 2 0 3 5 87 63 17 27 30
100 100 100 100 100 100 100 100 100 100 100 19 23 61 93 100 100 100 100 97 40 7 10 30 27 32 31 35 29 30 100 100 94 16 5 32 5 6 34 28 15 12 5 24 80 96 63 37 13
100 100 100 100 100 100 100 100 100 100 100 100 52 99 100 100 100 100 100 100 100 100 97 73 42 100 100 100 63 89 82 100 100 67 5 17 14 30 26 45 58 21 80 85 100 97 62 10 29
95 100 100 100 100 100 100 100 100 100 100 100 100 100 100 100 100 100 100 100 100 100 100 100 100 100 100 100 99 99 100 84 100 100 100 78 84 5 6 32 100 100 100 82 69 93 100 83 11
84 100 100 100 100 100 100 100 100 100 100 100 100 81 97 100 100 100 100 100 100 100 100 100 100 100 99 100 96 52 43 6 8 14 82 100 100 28 75 67 89 49 42 93 82 100 97 90 27
93 100 100 100 100 100 100 100 100 100 100 100 100 100 100 100 100 100 100 100 100 100 100 100 100 100 94 58 5 5 5 6 5 5 2 5 12 55 92 97 100 100 99 100 99 100 100 100 100
100 100 100 100 100 100 100 100 99 100 100 100 100 100 100 100 100 100 100 100 100 100 100 100 100 100 83 99 40 5 5 5 6 28 78 100 54 48 34 100 98 89 100 100 100 100 100 100 100
97 100 98 100 100 100 100 100 78 100 100 100 100 100 100 100 77 84 94 100 100 100 100 100 99 98 74 29 33 58 73 97 98 100 100 100 100 100 100 100 100 100 100 100 99 100 100 100 100
100 100 100 100 100 100 100 100 93 100 100 96 88 93 100 73 44 39 40 64 89 98 98 100 90 15 27 6 5 5 5 11 63 95 100 100 100 100 100 100 100 100 100 100 100 100 100 100 100
100 99 99 90 35 100 100 100 100 100 100 100 81 58 40 64 95 71 37 51 25 13 21 36 25 29 59 26 5 5 17 38 100 98 94 100 100 99 89 94 100 100 100 100 100 100 100 100 100
100 100 61 100 100 100 100 100 100 100 100 100 100 100 100 100 100 83 51 19 8 7 13 28 10 5 6 11 10 23 61 81 82 38 45 85 88 99 98 96 99 100 100 100 100 100 100 100 100
100 100 98 61 97 87 23 100 100 100 100 100 100 100 100 100 100 68 51 34 40 34 43 55 19 8 10 18 48 56 16 17 29 52 81 100 62 24 8 5 15 44 100 100 100 100 100 100 100
100 100 100 100 49 100 99 38 100 100 100 100 100 100 100 100 100 100 100 100 74 90 75 74 27 8 26 23 7 94 27 33 76 64 5 22 44 75 73 84 100 100 97 99 100 100 100 100 100
94 75 56 100 100 91 100 100 100 100 100 100 100 100 100 100 100 100 98 67 84 99 71 43 23 14 78 73 35 7 4 5 5 0 0 10 79 99 100 100 100 100 100 100 100 100 100 100 100

GFSSGP_prec_cloud_066.txt.gz
Cloud_Cover
100 99 2 0 0 0 5 5 0 4 0 3 7 5 1 0 0 2 0 0 0 0 0 12 73 100 100 100 89 100 100 100 100 100 100 93 12 9 5 33 58 73 12 14 5 6 5 5 0
100 100 3 0 0 0 5 3 5 0 1 67 23 5 1 0 0 0 0 0 0 0 0 0 3 100 100 100 100 100 100 100 100 100 94 5 2 5 10 7 6 5 27 69 2 5 5 4 5
100 100 41 1 0 0 1 1 2 0 19 5 5 5 0 4 0 5 0 0 0 0 5 0 2 70 100 100 100 100 100 100 100 100 66 5 5 5 12 5 0 0 21 5 5 5 14 5 0
100 100 72 5 2 5 0 70 5 1 5 5 46 5 4 5 0 1 0 0 22 7 11 0 0 2 94 100 100 100 100 100 100 97 5 5 5 5 21 11 28 91 100 99 5 5 0 0 0
100 100 83 21 5 5 3 52 5 3 5 14 60 5 5 14 2 5 0 44 48 0 0 0 0 1 0 8 28 94 94 100 89 40 5 5 17 41 7 14 4 31 17 0 0 0 0 0 0
100 100 97 7 5 5 5 65 1 0 3 29 40 5 5 24 5 0 0 16 72 0 0 0 13 5 5 28 5 5 5 8 29 5 5 5 20 26 16 16 0 0 5 0 0 0 0 0 0
100 98 100 100 99 100 73 64 14 5 0 25 5 5 8 5 5 3 1 47 52 0 0 4 2 42 64 5 4 0 0 22 63 82 2 0 1 4 16 14 14 0 0 0 0 0 0 0 4
100 100 100 100 100 88 100 76 5 5 5 3 49 0 6 5 13 5 12 0 13 2 0 4 0 9 44 0 0 0 0 39 100 80 5 4 5 0 3 0 0 0 0 0 0 0 0 5 5
100 100 85 100 100 100 100 100 95 5 0 5 10 0 83 9 6 5 33 13 26 0 27 0 0 30 67 100 100 100 94 100 30 5 2 3 0 0 0 0 0 0 0 3 0 0 0 5 4
100 31 65 100 100 100 100 99 88 5 5 5 4 0 28 12 5 5 4 14 52 0 8 39 4 5 5 32 4 5 6 5 4 5 5 0 0 0 0 0 0 0 5 5 5 0 0 2 0
100 68 100 100 100 100 100 84 100 5 5 5 5 0 1 5 5 5 3 0 0 36 1 34 92 22 38 68 5 5 5 5 5 5 0 4 0 4 5 1 0 0 0 4 0 0 1 0 0
100 100 100 100 100 100 100 31 100 69 27 5 0 0 80 8 5 5 5 0 0 0 0 19 36 6 5 4 4 0 0 0 0 1 4 4 1 5 5 5 1 2 5 4 5 0 0 5 5
100 100 100 100 100 100 100 76 100 16 12 5 4 37 15 5 5 5 4 2 0 0 0 9 2 28 5 5 0 0 0 0 0 0 1 1 5 5 0 5 5 5 4 2 1 1 5 11 7
100 100 100 100 100 100 100 100 91 40 0 5 10 24 5 5 5 4 2 4 5 4 0 0 0 3 5 2 1 0 0 5 0 0 0 0 0 0 0 5 5 5 5 2 5 5 20 16 5
100 100 100 94 100 100 100 100 100 24 2 5 5 11 30 23 95 46 4 5 3 5 5 5 4 5 5 5 5 73 43 3 2 0 0 0 0 4 1 5 5 5 5 5 4 0 5 5 5
100 100 99 100 100 100 100 100 100 100 16 34 11 28 5 48 99 100 44 5 5 23 96 51 8 5 5 41 1 0 0 52 10 13 2 5 4 1 0 4 4 5 5 5 2 0 0 3 3
94 97 68 100 100 100 100 100 100 100 86 22 92 82 13 10 17 48 56 10 5 5 5 5 42 45 5 0 0 14 0 0 7 59 10 5 5 0 0 2 5 3 3 5 3 2 9 5 10
98 60 30 100 100 100 100 100 100 100 32 91 94 100 97 100 82 29 5 4 5 4 0 0 3 5 9 92 9 20 5 25 91 82 40 5 5 5 5 4 5 3 4 15 17 5 5 48 10
62 100 77 100 100 100 100 100 100 100 100 100 98 83 100 100 100 100 100 100 100 20 5 5 5 5 22 87 100 100 94 31 100 100 100 100 19 8 5 5 6 26 17 5 5 5 5 29 100
99 100 99 95 100 100 100 100 100 100 100 100 87 100 100 100 100 100 100 100 100 100 100 100 97 89 96 100 55 87 100 100 79 46 26 34 78 88 8 6 45 31 5 5 4 5 53 48 100
100 96 100 66 100 100 100 100 100 86 100 100 100 100 100 100 100 100 100 100 100 100 100 96 93 99 100 98 58 76 98 100 100 58 62 11 12 5 5 11 54 32 36 54 76 81 5 44 29
75 99 100 100 100 100 100 100 100 92 100 100 100 100 100 100 100 100 100 100 100 100 100 100 100 100 100 100 100 100 38 22 100 100 54 15 5 4 0 0 0 98 100 100 100 100 92 100 100
100 100 95 83 100 100 100 100 100 79 100 100 100 100 100 100 100 100 100 100 100 100 100 100 100 100 100 64 62 41 65 5 5 82 52 18 5 5 14 40 7 5 10 84 100 100 100 100 98
91 100 90 100 97 100 100 100 100 100 100 100 100 100 100 100 100 100 100 100 100 100 100 100 100 100 100 99 72 37 72 55 74 6 5 5 5 24 92 98 100 100 86 93 100 100 100 100 100
100 99 97 95 88 100 100 100 100 100 100 98 100 100 100 100 100 100 100 100 100 100 100 100 100 100 100 100 90 95 98 31 32 5 5 5 5 5 57 99 100 100 100 100 100 100 100 100 100
98 100 99 33 5 23 100 100 100 100 100 100 100 100 100 100 100 100 100 100 100 100 100 72 34 5 36 28 57 72 92 25 53 32 15 6 6 39 97 99 100 100 100 100 100 100 98 100 100
100 84 99 100 70 57 100 100 100 100 100 100 100 99 100 100 100 99 98 94 90 81 38 6 20 41 31 60 98 89 97 54 46 13 8 44 25 63 59 9 7 39 99 100 100 91 100 100 100
100 100 100 98 90 94 100 100 100 100 100 100 100 99 99 89 72 53 14 5 5 5 5 23 33 62 54 46 77 48 98 60 62 73 57 37 26 24 52 9 5 3 12 1 94 100 100 100 100
100 100 53 100 100 95 83 51 99 100 100 100 100 100 100 100 100 89 72 60 61 85 71 37 66 63 37 84 96 73 56 48 55 33 63 75 21 67 23 62 87 100 100 100 100 100 100 100 100
100 100 100 100 98 7 30 100 56 98 100 100 100 100 100 100 100 100 100 100 100 100 100 100 100 100 97 80 98 53 75 8 36 21 7 33 5 0 0 0 0 41 76 100 100 100 100 100 100

GFSSGP_prec_cloud_069.txt.gz
Cloud_Cover
100 100 100 100 90 47 1 0 0 5 0 8 5 1 0 0 3 0 0 0 0 4 0 0 0 15 100 100 90 96 96 97 62 56 98 85 79 100 100 35 5 16 13 5 4 4 0 0 0
100 100 100 100 100 91 9 0 0 56 5 5 3 0 0 0 0 0 0 0 0 0 0 20 1 4 92 100 100 100 100 99 81 100 100 100 100 100 100 15 3 14 30 5 5 1 0 0 1
100 72 100 97 100 100 51 0 1 18 15 5 4 0 0 4 0 0 0 0 0 0 0 0 0 0 62 100 100 100 100 100 100 100 100 100 100 60 13 5 5 31 6 5 2 0 0 0 0
100 92 29 100 100 100 58 0 5 26 40 5 5 0 4 5 0 0 0 0 0 0 0 0 1 0 0 2 100 100 100 100 100 100 100 100 100 100 77 14 21 87 36 5 5 5 5 1 0
100 100 96 100 100 100 63 2 5 15 40 5 4 5 5 3 0 0 0 0 0 0 0 11 1 0 0 0 66 100 100 100 100 100 100 100 100 88 48 31 30 47 5 5 4 0 0 0 0
100 100 100 100 100 100 81 19 80 5 19 29 5 5 5 5 0 0 30 4 0 0 0 5 4 0 0 0 1 100 100 100 100 100 100 100 99 92 10 17 5 5 0 0 0 0 0 0 0
100 100 100 100 100 100 100 38 59 16 48 6 3 5 10 5 3 3 8 95 4 0 1 29 6 63 64 0 0 4 57 100 100 100 96 99 70 35 12 2 5 1 0 0 0 0 0 0 0
100 100 100 100 100 100 100 97 6 6 45 5 0 5 5 5 5 5 100 28 34 1 1 35 9 52 100 0 0 2 5 5 4 15 5 5 5 4 1 0 0 0 0 0 0 0 0 0 4
100 100 100 100 100 100 100 33 42 5 17 0 0 42 6 5 5 5 32 5 5 0 5 0 1 15 34 1 0 1 2 5 0 0 0 3 0 0 0 0 0 0 0 0 0 0 0 0 0
100 100 100 100 100 100 100 100 66 35 8 4 0 5 55 37 5 5 5 4 5 5 5 5 5 5 1 4 0 4 4 2 5 0 0 0 0 0 0 0 0 0 0 0 0 0 0 0 0
100 100 100 100 100 100 100 100 100 93 5 2 5 5 5 5 5 5 4 4 5 5 5 1 5 5 5 0 0 0 13 0 3 5 5 4 2 0 0 0 0 2 5 0 0 0 4 0 2
100 100 100 100 100 100 100 100 100 74 5 5 5 5 21 15 5 6 5 5 1 1 13 5 4 5 5 5 5 5 5 3 4 5 4 3 0 1 0 3 6 6 5 6 2 24 0 0 0
100 100 100 100 100 100 100 100 100 100 20 6 5 5 68 6 13 89 15 3 5 0 4 5 1 2 5 5 5 5 5 5 5 5 5 5 5 5 4 1 0 1 5 4 5 6 0 0 0
100 100 100 100 100 100 100 100 95 100 97 27 5 5 5 16 66 8 12 5 5 5 5 5 5 4 0 2 2 5 5 5 5 5 5 5 5 5 0 1 0 0 5 5 5 5 5 0 0
100 100 100 100 100 100 100 100 100 100 100 64 5 10 100 8 23 65 5 5 4 5 5 5 8 5 5 5 5 5 5 5 5 5 3 0 2 0 5 0 0 0 0 1 4 5 5 5 0
100 100 100 100 100 100 100 100 100 99 99 100 75 6 64 31 52 19 28 5 5 5 5 5 5 5 5 5 4 1 0 12 29 4 5 5 5 5 0 5 1 4 5 5 2 1 5 2 4
100 100 91 100 100 100 100 100 100 100 84 100 100 56 5 21 5 65 30 5 5 5 83 31 4 1 3 3 3 4 5 1 0 0 0 0 0 0 5 5 5 19 5 8 4 5 1 0 1
100 100 100 100 100 100 100 100 100 100 100 100 100 100 65 6 24 42 49 69 12 32 17 68 44 3 5 5 5 5 5 4 1 2 5 4 5 5 5 5 22 5 5 12 19 5 3 0 0
100 100 100 100 100 100 100 100 100 100 100 100 100 100 100 100 75 5 48 100 100 96 19 5 54 100 18 0 5 21 5 15 8 61 100 89 81 100 73 12 5 5 11 5 10 5 5 3 0
63 100 100 98 96 88 100 100 100 100 98 70 100 100 100 100 100 44 97 100 100 100 100 39 5 10 54 98 53 10 13 9 5 5 51 96 100 100 60 100 100 94 91 80 5 5 5 5 30
64 36 100 57 45 100 100 100 100 93 100 88 90 100 100 100 100 100 100 100 100 74 88 41 5 5 5 24 42 61 99 100 100 94 100 40 6 75 93 92 88 94 13 28 8 5 5 16 78
65 8 100 100 87 97 100 100 100 100 85 100 97 76 88 100 100 100 100 100 100 100 100 100 100 89 91 96 100 100 100 100 100 100 100 98 31 5 5 5 6 36 21 5 3 3 100 100 100
64 84 88 18 90 73 100 100 100 100 96 100 100 99 76 100 100 100 100 100 100 100 100 100 100 89 100 99 65 32 94 97 23 59 95 32 7 8 5 4 0 17 12 3 11 5 9 33 73
78 46 82 94 100 100 100 85 100 100 100 100 100 48 100 100 100 100 100 100 100 100 100 100 100 100 76 60 59 79 68 34 24 5 10 90 22 5 5 5 4 4 6 100 58 33 27 97 100
83 100 94 100 97 25 100 84 100 100 100 100 100 99 94 100 100 99 98 100 100 100 100 100 100 100 100 97 32 34 43 38 75 75 11 5 5 4 5 5 80 29 62 66 94 100 100 100 89
100 96 32 14 46 17 10 100 100 100 100 100 100 100 100 100 100 100 100 100 100 100 100 100 100 100 100 99 99 100 100 26 58 86 48 5 5 5 5 10 34 31 64 100 99 100 51 100 100
100 98 70 89 12 99 10 0 97 100 100 100 100 100 100 100 100 100 100 100 100 100 100 100 100 100 100 86 100 100 100 100 95 22 5 11 34 50 29 23 96 88 41 16 70 100 59 28 52
100 98 100 100 96 98 11 2 0 100 100 100 100 100 100 100 100 100 100 100 100 100 100 100 100 100 100 93 96 100 88 82 56 75 83 39 57 29 36 25 57 98 25 22 5 28 46 66 100
100 100 100 100 98 92 88 5 5 92 100 100 100 100 100 100 100 75 97 100 100 100 100 100 100 100 100 100 100 100 61 58 82 59 64 88 93 90 100 54 28 5 6 5 3 23 100 100 100
99 92 86 97 100 100 94 99 83 100 100 100 100 100 100 100 100 100 90 67 92 100 100 100 100 100 100 100 94 100 94 81 100 100 88 100 100 100 100 28 6 5 0 0 0 0 48 100 100

GFSSGP_prec_cloud_072.txt.gz
Cloud_Cover
100 31 100 100 67 50 100 83 0 1 0 0 0 1 0 5 5 4 0 4 29 45 30 6 0 3 5 55 100 100 90 76 63 40 41 62 93 67 27 80 100 100 51 8 2 0 5 5 2
100 100 99 100 78 85 100 100 5 5 0 0 0 0 0 4 5 4 5 22 0 23 36 27 0 0 5 5 100 100 100 60 48 73 23 90 24 89 100 100 100 83 75 2 5 3 5 2 0
100 100 74 100 100 100 100 100 99 82 1 1 0 0 0 1 3 0 0 0 0 6 5 14 0 0 0 3 93 100 100 100 100 98 100 95 90 99 100 100 100 35 53 5 4 2 5 2 0
100 100 56 46 100 100 100 100 100 84 5 0 0 0 1 0 1 0 0 0 0 0 1 0 0 0 0 0 5 100 100 100 100 100 100 100 100 100 100 100 100 95 17 24 0 2 5 0 0
100 99 100 13 100 100 100 100 100 97 52 0 0 3 4 0 5 0 0 0 0 2 0 2 0 3 0 0 3 5 100 100 100 100 100 100 100 100 100 100 100 38 8 5 2 0 0 0 0
100 100 54 100 100 100 100 100 100 100 71 0 0 5 1 0 6 1 0 0 0 7 29 37 4 0 0 0 0 0 23 100 100 100 100 100 100 100 100 100 100 6 23 6 5 5 0 0 0
100 100 100 100 100 100 100 100 100 100 100 6 0 5 5 0 25 5 3 0 0 2 39 58 32 0 0 0 0 0 0 4 100 100 100 100 100 100 100 99 36 23 5 5 5 3 0 0 0
100 100 100 100 100 100 66 42 100 100 100 10 0 5 5 5 28 35 24 41 6 18 55 96 34 0 0 4 0 0 0 0 2 86 100 100 100 100 74 46 16 15 5 5 5 0 0 0 0
100 100 100 100 100 99 8 17 100 100 98 5 0 15 5 5 5 16 57 97 33 63 64 66 31 52 55 5 0 0 0 0 0 4 77 44 16 13 5 6 2 0 0 0 0 0 0 0 0
100 100 100 100 100 100 98 16 100 100 100 8 5 1 5 5 7 9 25 48 27 36 42 12 72 9 5 1 0 2 0 0 1 5 4 5 19 5 5 0 0 0 1 0 0 0 0 0 0
100 100 100 100 100 100 100 100 73 100 100 33 6 5 5 5 13 5 5 5 0 0 5 5 46 40 5 5 18 26 25 15 10 4 3 4 1 0 0 7 0 0 0 0 1 4 7 0 0
96 100 100 100 100 100 100 100 100 89 100 100 11 28 5 5 5 9 5 5 6 7 6 6 6 10 5 5 14 11 6 15 20 5 4 0 0 0 0 19 8 8 10 6 4 24 14 5 5
100 100 100 100 100 100 100 100 100 96 97 100 87 96 13 5 5 6 95 66 42 82 62 48 10 10 5 5 6 14 6 7 5 0 5 5 2 2 0 1 13 19 19 11 14 21 25 6 5
88 100 100 100 100 100 100 100 100 94 99 100 99 5 5 5 5 5 6 27 99 100 53 6 11 48 5 5 5 5 5 5 5 4 5 5 5 4 3 5 5 10 8 8 1 6 11 6 5
93 100 100 100 100 100 100 100 100 100 100 100 100 89 5 5 5 5 5 5 5 12 99 66 30 31 5 5 5 5 5 5 5 5 5 5 5 5 5 5 5 5 5 4 0 1 4 5 5
100 100 100 100 100 100 100 100 100 99 100 91 100 100 84 60 32 5 3 5 5 5 5 68 53 5 5 5 5 5 5 5 5 5 5 5 5 5 5 5 5 5 5 5 7 5 5 5 5
100 100 100 100 100 100 100 100 100 98 99 60 78 100 97 31 5 5 5 5 8 5 5 5 73 98 41 5 8 53 91 87 21 5 5 1 1 4 4 5 5 6 25 30 28 7 5 5 5
36 99 100 100 100 100 100 100 100 93 87 100 98 100 100 100 74 10 5 2 5 57 61 74 83 93 100 40 22 45 82 63 48 40 5 4 5 5 5 34 86 68 94 88 89 69 93 96 71
5 40 100 100 100 100 100 100 100 99 100 100 93 64 100 100 100 100 100 21 5 55 100 100 75 5 66 100 99 97 88 59 56 14 6 5 17 5 5 5 91 100 96 88 44 96 80 19 8
5 100 100 100 100 100 100 100 100 90 59 100 100 98 100 100 100 100 100 93 29 18 55 18 62 44 5 5 41 94 100 88 45 56 23 16 20 5 46 100 100 78 87 22 9 5 5 7 5
8 84 100 100 100 100 100 100 64 76 100 98 78 100 100 100 100 100 100 100 100 73 35 77 100 100 99 26 5 36 68 96 65 69 100 92 83 98 100 100 100 100 72 5 8 10 5 5 32
66 5 100 100 100 100 100 100 8 40 93 100 100 100 100 99 81 100 100 100 100 100 100 100 98 31 51 100 100 98 99 60 78 62 39 56 19 39 8 9 17 23 23 9 5 20 8 15 15
66 71 45 100 100 100 100 76 100 5 19 67 100 100 99 100 99 100 100 100 100 100 100 100 100 100 100 94 83 87 100 100 100 100 100 100 52 77 9 3 7 20 28 15 36 20 26 45 71
72 100 100 73 100 100 100 79 98 47 8 98 91 95 98 98 100 100 100 100 100 100 100 100 100 100 100 100 96 45 67 86 85 100 99 91 53 23 76 30 15 7 11 24 23 15 79 59 54
100 33 94 99 100 75 100 99 98 99 88 76 75 58 46 55 57 94 100 100 100 100 100 100 100 100 100 100 81 34 26 13 67 83 17 5 50 100 100 66 85 21 5 5 5 10 85 100 60
96 49 15 98 59 5 16 63 100 100 100 100 100 99 98 100 99 99 99 100 100 100 99 100 100 100 100 96 80 67 18 14 25 43 70 79 71 61 100 100 38 42 23 35 97 100 96 53 36
97 100 80 87 5 5 0 52 100 100 100 100 100 100 100 100 100 100 100 100 100 100 100 93 100 100 100 100 100 99 59 18 51 23 32 44 84 20 50 69 66 9 98 100 100 70 38 23 100
96 80 100 90 31 5 0 0 0 82 100 100 100 100 100 100 100 100 100 99 100 100 98 100 99 100 100 100 99 100 100 90 93 81 96 51 79 88 100 17 57 97 55 58 71 30 64 100 100
100 100 98 51 6 5 4 0 0 2 6 100 100 100 100 100 100 100 100 100 100 100 100 100 100 100 100 100 100 100 100 100 100 100 100 100 100 78 100 72 93 71 100 63 27 5 36 98 89
100 100 100 55 35 5 10 1 5 43 89 100 100 100 100 100 100 100 100 100 100 100 100 100 100 100 100 100 100 100 100 100 98 100 100 100 100 100 100 94 99 100 100 34 5 2 53 99 87

GFSSGP_prec_cloud_075.txt.gz
Cloud_Cover
76 86 100 100 100 98 100 100 100 100 7 5 5 5 5 0 0 2 0 0 10 55 26 6 2 2 1 4 6 99 100 100 100 78 49 10 11 8 18 19 10 5 61 76 100 6 5 4 5
100 94 100 100 69 100 100 100 100 100 79 0 0 5 5 5 5 36 4 58 8 39 32 17 0 0 0 1 2 71 100 100 100 100 13 47 82 56 10 27 17 58 100 100 100 10 7 15 5
100 100 100 100 92 100 100 100 100 100 89 5 0 1 5 3 5 2 0 100 47 43 37 21 0 0 0 0 0 5 57 100 100 100 100 90 100 58 41 45 11 47 100 100 100 100 81 6 5
98 100 100 92 100 100 100 100 100 100 98 10 5 0 2 0 0 5 60 62 38 55 22 4 0 0 0 4 0 4 31 63 100 100 100 100 100 100 100 100 5 98 100 100 100 80 5 5 5
100 99 94 95 99 100 100 100 100 100 99 97 5 0 0 0 5 13 46 24 38 46 42 16 0 0 0 0 0 4 5 88 96 100 100 100 100 100 100 97 100 100 100 100 100 18 5 5 5
57 42 98 78 100 100 100 98 100 100 72 93 19 5 1 0 6 30 2 0 4 33 23 39 2 0 0 0 0 0 0 44 78 100 100 100 100 100 100 100 100 100 100 100 100 25 15 5 5
53 5 100 100 100 100 95 55 100 100 75 90 93 5 19 0 3 1 0 0 0 25 33 57 23 0 0 0 0 0 0 0 5 49 100 100 100 100 100 100 100 100 100 100 100 39 21 5 5
58 15 60 100 100 100 64 23 100 100 100 90 100 17 88 12 5 5 0 8 20 55 60 100 37 15 15 0 4 0 0 0 0 0 3 98 100 100 100 100 100 100 100 98 15 26 10 4 0
63 67 11 100 100 100 90 25 78 100 100 100 100 99 100 6 0 25 82 79 97 92 100 100 76 33 17 9 3 0 0 3 0 0 0 0 3 43 72 96 65 81 97 8 5 2 5 0 0
98 84 5 100 100 100 100 100 9 99 100 100 100 100 100 89 14 91 100 100 100 100 100 100 75 10 6 5 5 3 1 0 0 0 0 7 3 5 5 49 43 9 5 5 4 2 0 0 0
6 49 26 100 100 100 100 100 78 73 100 100 100 100 100 100 66 95 100 84 44 72 99 94 36 18 5 5 45 57 23 17 12 0 0 0 2 16 16 14 7 5 3 4 0 0 1 2 5
44 45 100 100 100 100 100 100 100 100 100 100 100 100 100 100 94 51 68 30 16 18 10 20 23 32 69 74 80 84 48 24 28 7 0 0 3 1 8 23 14 11 7 5 2 16 12 5 0
64 24 100 100 100 100 100 100 100 100 100 100 100 100 100 100 100 84 3 5 5 5 5 15 65 88 91 100 92 64 39 24 9 15 5 5 0 0 0 3 12 17 10 15 14 23 27 23 3
100 76 97 93 100 100 100 100 100 100 100 100 100 100 100 100 100 100 86 53 26 49 88 14 29 42 92 80 46 16 47 69 22 22 5 5 5 5 3 1 7 16 19 18 12 16 22 24 5
99 47 100 100 100 100 100 100 100 100 100 100 100 100 100 100 100 100 100 99 37 46 62 72 6 69 95 84 80 97 82 35 15 5 5 5 5 5 5 5 5 5 12 5 13 1 4 15 4
83 100 94 100 100 100 100 100 100 100 100 100 100 100 100 100 100 100 100 100 90 96 97 100 97 12 59 100 100 72 74 28 6 5 20 16 5 5 5 4 2 5 5 5 5 5 5 7 5
7 8 59 100 100 100 100 100 100 100 100 100 100 100 100 100 100 100 78 77 32 7 5 10 31 25 32 96 100 97 100 99 86 53 68 86 92 74 45 5 5 5 5 5 5 5 5 6 49
84 54 83 100 100 100 100 100 100 100 100 100 100 100 100 100 100 100 100 37 21 33 24 5 23 53 9 70 36 79 97 65 69 62 61 37 60 58 73 18 5 5 5 6 5 44 39 70 66
4 2 5 100 100 100 100 100 100 100 100 86 94 100 100 100 100 100 100 100 100 100 100 100 86 71 24 5 5 69 100 100 100 99 39 20 5 5 11 80 93 68 55 32 99 69 100 100 94
5 0 5 99 100 100 100 100 100 100 100 100 75 37 84 95 88 100 100 100 100 100 80 58 57 15 52 99 100 100 100 100 100 100 100 100 100 89 85 100 90 75 100 100 89 100 97 61 53
5 4 5 100 100 100 100 100 100 100 100 100 13 5 79 100 100 100 100 100 100 100 100 100 99 84 76 93 100 100 100 100 100 100 100 100 100 95 95 93 100 100 100 100 100 29 9 13 54
10 3 5 16 100 100 100 100 100 100 100 94 99 59 46 90 100 100 100 100 100 100 100 100 100 100 96 56 36 80 100 100 100 100 100 100 100 100 100 100 100 100 100 100 100 99 92 60 56
57 12 5 7 100 100 100 100 100 100 82 100 99 100 95 55 100 100 90 93 100 100 100 100 100 100 100 100 100 93 75 61 95 76 63 97 83 98 95 95 98 92 95 67 25 43 97 82 47
100 32 71 87 98 100 100 100 100 100 100 100 100 100 100 56 80 100 100 91 100 100 100 100 100 100 100 100 100 100 100 100 100 100 100 100 92 10 5 28 24 43 42 32 30 88 52 42 50
100 93 100 100 99 100 100 100 100 100 100 100 83 100 47 44 16 23 98 100 100 99 99 100 100 100 100 100 100 100 100 100 100 100 100 100 100 89 66 28 16 58 96 80 55 71 97 30 41
67 95 73 33 55 85 100 100 100 100 100 75 40 58 54 0 20 89 54 77 76 41 33 100 100 100 100 100 100 100 100 100 100 94 80 100 100 100 95 97 91 90 46 100 99 73 29 24 93
55 95 69 88 16 12 2 3 86 100 100 100 81 42 6 5 7 40 100 100 98 100 100 65 59 83 95 100 99 99 100 100 100 91 95 94 95 97 80 83 70 90 98 100 100 92 96 100 100
77 64 94 84 75 84 2 0 28 100 100 100 100 100 92 36 89 100 99 46 29 43 60 97 70 56 29 46 83 99 100 100 100 100 100 100 100 100 100 100 100 100 100 100 76 99 100 100 100
100 100 86 68 5 20 5 0 0 100 100 100 100 100 100 100 86 18 44 97 69 79 78 85 100 93 71 85 95 100 100 100 100 100 100 100 100 100 98 100 100 100 98 81 95 100 100 100 100
98 82 100 85 64 61 9 1 5 1 1 4 97 100 100 99 84 94 70 100 100 100 100 80 85 100 97 100 100 100 100 100 100 99 81 44 78 96 50 71 42 35 100 100 92 100 100 100 100

GFSSGP_prec_cloud_078.txt.gz
Cloud_Cover
100 100 100 100 99 5 16 100 100 100 24 92 6 52 4 5 3 5 3 2 18 52 31 5 5 5 5 33 78 98 28 0 48 100 92 15 5 5 18 12 5 5 5 12 12 54 72 100 100
100 100 100 98 73 5 36 100 100 100 5 5 5 5 5 5 0 87 44 54 17 52 39 6 5 46 5 5 18 11 13 10 96 100 100 100 100 70 35 15 6 10 20 46 40 34 100 100 100
92 100 100 76 63 24 81 100 100 100 8 5 5 5 18 5 12 32 0 31 48 48 38 8 5 5 5 5 5 42 5 8 99 100 100 100 100 99 94 80 69 71 14 28 35 81 100 100 100
84 88 100 85 25 97 100 100 100 100 5 5 5 11 100 15 2 5 75 87 63 86 23 4 7 5 5 5 0 5 46 0 7 68 93 100 100 100 100 100 99 100 100 100 94 100 100 100 100
96 33 100 98 97 100 100 100 100 100 16 5 99 56 100 98 8 26 100 60 81 93 33 12 1 3 1 0 0 0 0 0 5 29 73 98 100 100 100 100 100 100 100 100 100 100 76 84 32
6 83 12 38 100 100 100 86 97 100 95 6 84 100 100 100 100 100 100 97 100 95 56 14 0 0 0 0 0 1 0 4 5 36 57 82 77 100 100 100 100 100 100 100 100 100 98 100 100
5 98 0 54 100 100 100 91 20 90 100 72 33 100 100 100 100 100 78 52 64 79 59 47 21 0 0 0 0 0 0 0 0 8 45 100 100 100 100 100 100 100 100 100 100 100 100 100 100
33 4 50 5 100 100 100 100 18 84 75 88 40 100 100 100 100 100 52 57 78 66 70 48 33 20 11 0 0 0 0 0 0 0 0 5 5 98 100 100 100 100 100 100 100 100 100 97 34
23 73 5 5 75 100 100 100 92 66 64 99 100 100 100 100 100 100 100 99 100 97 99 100 77 33 19 2 0 1 0 0 0 0 0 4 3 0 4 14 95 100 100 100 100 100 81 99 21
15 30 5 5 20 100 100 100 100 99 78 98 100 100 100 100 100 100 100 100 100 100 100 100 93 46 26 5 1 0 0 4 5 2 0 8 3 1 5 5 0 4 5 5 45 96 83 44 8
57 9 5 5 5 100 100 100 51 100 90 41 100 100 100 100 100 100 100 100 100 100 100 100 100 42 23 5 28 25 21 18 9 5 4 8 13 24 25 21 15 4 5 4 5 5 5 4 0
46 42 5 5 5 13 100 100 82 90 100 91 100 100 100 100 100 100 100 100 100 100 100 100 99 39 18 31 30 26 30 24 31 16 6 5 14 21 33 36 18 18 8 3 0 6 2 5 4
100 41 49 50 23 5 98 100 73 98 100 100 100 100 100 100 100 100 100 100 99 86 76 86 62 41 23 79 46 32 32 26 82 80 32 5 5 14 5 10 7 19 12 12 2 8 12 15 4
28 100 92 100 100 97 26 100 100 100 100 100 100 100 100 100 100 100 100 100 100 100 44 26 36 38 21 71 55 26 31 39 72 80 37 21 60 46 6 5 5 6 17 5 7 5 11 14 11
86 16 5 41 28 100 99 100 100 100 100 100 100 100 100 100 100 100 100 100 100 100 100 98 99 99 82 58 28 19 66 84 100 76 33 43 74 76 26 38 5 5 5 5 10 6 5 14 5
100 99 64 9 61 100 100 98 100 100 100 100 100 100 100 100 100 100 100 100 100 100 100 100 100 92 47 35 19 34 66 67 52 59 82 61 11 11 6 5 5 58 40 6 10 11 39 13 10
98 83 93 54 85 100 100 99 100 100 99 100 100 100 100 100 100 100 100 100 100 98 97 100 100 100 99 94 55 99 96 82 62 100 77 67 75 64 19 22 5 5 5 5 10 64 40 21 7
93 100 100 45 65 100 100 100 100 100 100 100 100 100 100 100 100 100 100 54 20 7 5 5 68 100 52 79 100 100 100 55 57 98 93 90 100 80 100 49 5 30 62 35 65 17 5 7 5
100 94 6 5 81 81 100 100 100 100 100 100 93 100 100 100 100 100 100 100 83 23 5 53 70 89 100 100 100 100 100 81 100 100 100 100 100 100 100 100 100 100 79 29 5 6 30 95 19
100 100 2 5 38 96 100 100 100 100 100 100 100 99 100 100 100 92 100 100 100 100 100 100 100 100 100 100 100 100 91 92 100 86 37 44 60 73 74 91 80 100 99 91 100 100 66 91 92
100 99 6 25 94 100 96 55 100 100 100 100 100 96 59 100 100 99 98 100 100 100 100 100 100 100 100 91 81 97 100 100 100 56 33 19 39 66 96 100 100 100 100 100 100 71 100 99 92
100 100 4 56 100 99 100 82 100 100 100 100 100 55 99 100 100 100 100 100 100 100 100 100 100 100 100 100 100 100 100 100 100 98 78 63 72 84 78 99 100 96 92 100 100 100 100 80 97
100 99 9 5 83 42 100 100 100 100 100 100 100 100 100 100 100 100 100 100 100 100 100 100 100 100 100 100 100 100 100 100 100 100 100 100 100 100 100 100 100 100 100 100 99 100 96 100 99
100 99 11 5 5 73 5 100 100 100 100 100 100 100 100 100 100 93 81 36 100 100 100 100 100 100 100 100 100 100 100 100 100 100 100 100 100 100 100 81 82 100 100 99 85 94 85 99 100
99 100 76 60 99 79 5 76 100 100 100 100 100 100 100 100 93 97 27 88 6 76 100 100 100 100 100 100 100 100 100 100 93 100 100 100 94 93 88 96 100 98 100 100 100 100 99 100 100
100 100 70 13 44 5 2 22 100 100 100 100 100 100 100 100 90 76 100 98 55 6 32 98 100 100 100 100 100 100 100 100 100 100 100 100 100 100 100 100 99 92 96 100 100 100 100 100 100
68 82 100 100 99 72 3 1 100 100 100 100 100 100 100 100 76 24 5 53 90 63 5 56 96 57 39 64 84 98 100 100 100 100 100 100 100 100 100 100 100 100 100 100 100 100 100 100 100
59 31 42 76 92 55 6 85 99 100 100 100 100 100 100 100 100 100 99 5 5 5 10 5 5 6 10 28 43 69 92 100 100 100 100 100 100 100 100 100 100 100 100 100 100 100 100 100 88
100 100 73 58 90 38 7 9 80 42 100 100 100 100 100 100 100 100 100 26 11 5 5 5 4 5 18 86 100 100 100 100 100 100 100 100 100 100 100 100 100 100 100 100 100 89 100 100 100
100 95 65 92 82 72 36 5 4 2 0 58 100 100 100 100 100 100 100 99 20 42 41 5 5 3 5 15 74 100 100 100 100 100 100 100 100 100 100 100 100 100 81 96 92 88 100 100 100

GFSSGP_prec_cloud_081.txt.gz
Cloud_Cover
100 100 100 100 99 6 10 81 100 100 37 5 5 5 5 2 2 5 2 15 0 6 37 4 5 5 5 5 24 5 5 5 49 22 12 52 5 43 29 16 20 5 72 92 12 5 70 10 8
22 100 100 100 64 5 12 94 100 90 16 5 13 5 5 3 5 77 28 52 0 9 30 35 0 2 5 5 9 30 8 12 52 91 5 48 100 100 100 100 100 100 38 7 11 8 20 5 43
5 78 100 100 38 68 98 100 100 86 8 5 7 5 5 5 34 32 5 44 31 28 30 24 0 0 0 5 5 5 32 7 5 7 36 100 100 100 100 100 100 100 100 38 100 98 56 71 80
34 48 99 99 61 99 100 100 100 94 24 4 5 5 44 5 6 5 28 80 50 43 20 1 0 0 0 5 5 5 5 73 5 5 5 56 100 100 100 100 100 100 100 100 100 100 100 98 100
96 9 12 88 100 91 100 100 100 86 5 5 5 7 67 62 5 36 69 100 100 89 14 11 0 0 0 0 0 19 5 42 14 12 5 5 32 97 100 100 82 60 95 100 100 100 100 100 94
64 30 9 3 100 100 100 100 98 100 8 5 3 9 58 100 100 100 100 90 100 95 44 23 4 0 0 0 0 5 5 7 5 5 5 5 13 81 81 10 100 100 100 100 100 100 100 100 80
14 5 2 3 95 100 100 100 95 100 63 43 5 5 83 100 100 100 100 100 100 93 38 41 30 0 1 0 0 0 5 5 1 2 6 14 42 74 98 100 100 100 100 100 100 100 100 73 94
14 74 25 5 5 100 100 100 100 100 96 58 19 18 38 100 100 100 100 100 100 100 83 51 26 27 29 6 0 0 0 0 0 4 0 6 99 60 94 98 100 100 100 99 100 100 100 100 100
87 98 76 5 1 20 100 100 100 100 99 31 30 92 99 99 100 100 100 100 100 100 100 58 54 22 14 0 2 0 0 0 0 0 0 0 15 31 26 8 5 1 4 16 53 79 90 74 7
87 83 5 2 32 1 92 91 100 100 100 51 83 7 100 100 100 100 100 100 100 100 100 100 76 46 21 1 4 4 0 0 0 3 0 0 0 3 0 4 0 0 4 4 1 0 0 0 0
78 44 14 12 5 0 4 100 100 100 100 51 48 79 92 100 100 100 100 100 100 100 100 100 89 79 40 6 0 2 0 1 5 3 3 1 1 13 17 5 0 1 0 0 2 0 0 1 0
65 88 88 38 0 0 1 19 97 100 99 100 48 100 96 100 100 100 100 100 100 100 100 100 100 98 52 17 5 5 5 2 3 5 0 5 5 5 12 13 12 12 0 0 0 0 0 0 0
98 40 96 98 2 0 0 2 31 100 59 97 100 96 100 86 100 100 100 100 100 100 100 100 100 100 63 36 26 5 5 5 5 5 1 5 5 14 18 5 5 5 1 1 0 0 0 1 2
90 100 100 37 6 0 0 1 34 97 99 99 100 100 100 100 83 100 100 100 100 100 100 100 100 94 46 28 20 5 5 5 5 5 5 5 5 20 25 5 5 5 5 5 5 5 5 5 5
100 94 65 58 14 8 5 4 2 76 100 100 100 100 100 100 100 95 98 100 100 100 100 100 100 100 100 60 58 18 5 5 5 5 5 5 5 14 11 8 5 5 6 5 7 5 5 5 11
100 100 42 6 5 2 2 0 0 94 100 100 79 99 100 100 100 100 88 95 87 100 100 100 100 100 100 100 67 22 5 5 5 5 5 5 77 95 47 17 62 74 46 17 28 52 58 22 5
100 100 93 64 5 10 8 1 9 36 100 100 96 90 100 100 100 100 100 100 100 100 100 100 100 100 100 100 99 38 32 31 45 41 38 63 83 83 44 49 76 100 100 82 70 58 60 35 11
74 95 28 96 67 24 5 4 97 5 64 100 62 30 100 100 100 100 100 100 100 99 99 100 100 100 100 100 100 93 74 51 82 99 76 98 96 71 54 33 68 98 100 100 99 42 22 54 92
39 100 55 100 100 8 1 5 12 23 63 100 100 100 100 100 100 100 100 100 98 100 100 100 97 100 100 100 100 100 100 100 100 100 97 82 100 100 100 100 89 63 92 66 78 72 100 100 100
100 100 100 100 78 52 5 5 98 88 98 100 100 100 100 100 100 100 100 100 100 98 100 100 91 80 100 100 100 100 100 100 100 100 100 100 100 100 100 100 100 100 100 85 88 100 100 98 46
88 100 100 100 98 100 87 19 95 100 95 100 100 100 100 100 100 100 100 100 100 100 100 100 97 54 69 91 100 100 100 100 100 100 100 100 100 100 100 100 100 100 100 98 100 100 88 45 100
100 100 99 88 43 62 72 51 95 100 100 51 100 100 100 100 100 100 100 100 100 100 100 100 100 73 96 79 89 100 100 100 100 100 100 100 100 100 100 100 100 100 100 100 91 77 57 92 100
97 100 92 51 5 5 34 84 95 99 88 87 100 100 100 100 100 100 100 100 100 100 100 100 100 100 100 100 100 100 100 100 100 100 100 100 100 100 100 100 100 100 100 100 100 100 100 100 100
96 82 46 18 5 22 4 18 2 95 100 100 100 100 100 100 100 100 100 100 100 100 100 100 100 100 100 100 99 100 100 100 100 100 100 100 100 100 91 100 100 100 100 100 100 100 100 100 100
86 100 74 66 79 40 3 4 0 34 75 100 100 100 100 100 100 87 94 100 100 100 100 100 100 79 57 87 83 100 100 100 100 100 100 100 100 100 100 100 100 100 100 100 100 100 100 100 100
100 100 100 49 49 11 5 5 0 59 99 100 100 100 100 100 100 100 100 100 100 100 100 100 100 100 100 100 71 90 98 100 100 100 100 100 100 81 100 100 100 100 100 100 100 100 100 100 100
100 100 60 100 100 100 17 2 1 36 100 100 100 100 100 100 100 100 100 100 97 97 77 79 96 100 100 100 100 100 100 100 100 100 100 100 100 100 100 100 100 100 100 100 100 100 100 100 100
80 99 69 86 92 99 78 43 31 4 100 100 100 100 100 100 100 100 100 100 99 41 6 5 5 53 98 100 100 100 100 100 100 100 100 100 100 100 100 100 100 100 100 100 100 100 100 100 100
100 100 100 100 96 6 20 75 100 98 75 100 100 100 100 100 100 100 100 100 100 100 85 75 26 9 95 100 64 76 100 100 100 100 100 100 100 100 100 100 100 100 100 100 100 100 100 100 100
100 89 98 100 59 25 5 64 100 21 15 13 67 100 100 100 100 100 100 100 100 100 92 24 14 3 5 17 93 83 72 92 100 100 100 100 100 100 100 100 100 100 100 100 100 100 100 100 100

GFSSGP_prec_cloud_084.txt.gz
Cloud_Cover
100 100 100 100 100 35 81 98 100 100 95 7 5 62 23 26 5 6 4 5 5 5 33 13 6 43 8 5 5 27 41 3 5 6 4 6 5 2 2 2 5 93 100 100 100 91 5 6 5
14 100 100 100 87 88 58 96 100 100 83 60 5 5 56 94 32 5 5 2 5 3 47 60 1 5 30 6 8 5 43 5 5 5 5 14 42 6 5 5 40 90 100 100 91 88 19 17 77
5 41 100 100 100 90 95 100 100 100 72 98 94 6 12 100 97 24 5 5 5 5 2 18 0 0 5 6 6 5 5 5 5 5 5 15 32 10 62 96 100 100 100 100 100 100 100 98 46
44 59 68 100 100 100 100 100 100 100 100 13 93 50 25 100 62 5 5 0 5 5 14 27 0 0 5 4 0 0 29 2 5 5 5 5 7 99 100 100 100 100 100 100 100 100 64 5 96
100 24 38 48 99 100 100 100 100 100 100 57 21 100 67 100 100 35 28 12 3 3 37 4 4 0 0 0 0 15 10 0 0 5 5 8 44 47 100 43 100 100 98 80 100 97 92 100 100
99 60 47 5 98 100 100 100 100 99 99 26 5 36 96 100 100 100 100 99 78 5 94 43 14 0 0 0 0 26 0 0 0 1 4 21 73 54 30 5 65 68 19 96 100 100 100 100 100
100 5 5 42 27 100 100 100 100 100 99 45 5 6 26 98 100 100 100 96 87 13 99 59 54 22 10 0 0 0 0 0 0 0 0 5 40 62 32 29 11 13 91 100 100 100 84 85 90
90 88 85 83 54 7 100 100 100 100 100 90 20 8 32 100 100 100 100 100 97 37 68 98 88 38 41 15 2 0 0 0 0 98 97 2 5 3 9 43 98 100 100 99 75 55 86 30 51
97 80 48 60 21 4 41 100 100 100 100 100 57 5 64 43 100 100 100 100 100 92 99 58 76 59 100 100 39 0 0 1 3 8 4 19 21 40 100 94 29 5 8 5 2 1 3 0 0
100 96 22 91 17 22 5 85 100 100 100 100 79 18 70 100 100 100 100 100 100 88 100 95 82 80 78 100 33 38 2 0 0 0 0 2 0 0 3 4 4 2 3 0 0 0 0 8 0
100 36 100 99 97 5 5 5 100 100 100 100 100 44 82 100 100 100 100 100 100 100 100 100 67 85 83 62 81 37 20 0 0 0 0 0 0 1 0 0 1 0 2 0 0 0 0 0 0
100 100 100 100 100 65 5 12 5 93 100 100 100 100 29 100 100 100 100 100 83 85 80 100 100 96 65 70 46 40 22 7 3 0 3 0 0 0 0 0 0 0 0 2 5 5 4 0 0
99 100 97 100 100 99 4 24 81 10 82 100 100 99 58 93 99 100 100 100 99 100 100 100 100 100 78 72 74 53 49 15 17 1 0 0 0 0 0 0 5 5 5 5 5 5 5 5 5
83 71 100 100 100 58 85 5 5 5 53 99 100 98 100 30 100 100 100 100 100 100 100 100 100 100 99 70 70 50 54 58 24 8 5 3 2 4 5 5 5 8 62 29 7 5 5 5 5
100 94 67 100 100 93 5 7 0 4 37 49 100 100 100 100 100 100 100 100 100 100 97 100 100 100 100 98 64 48 58 38 22 16 5 5 5 5 5 5 5 10 17 59 74 6 7 5 9
94 100 70 96 100 100 7 1 4 0 2 5 60 100 100 100 100 100 100 100 100 100 100 100 100 59 70 100 100 78 52 54 25 21 5 5 5 5 5 5 41 87 97 56 97 34 100 100 98
100 35 100 45 100 99 6 2 26 0 0 3 9 100 100 100 100 100 100 95 100 84 100 100 100 100 100 100 100 100 87 26 23 26 13 6 5 48 72 69 84 78 98 99 94 99 100 100 100
56 100 100 100 100 100 6 4 0 0 0 0 5 64 100 100 100 100 100 100 100 69 96 100 100 100 100 100 100 100 100 100 75 43 11 9 18 87 43 43 54 95 99 53 67 100 100 100 100
99 100 99 99 100 22 5 5 4 0 0 0 40 78 100 100 100 100 100 100 100 98 61 100 100 100 100 100 100 100 100 100 100 100 84 84 75 66 63 58 10 58 100 100 100 100 100 100 100
99 96 100 100 100 100 26 5 0 0 0 0 1 76 45 100 100 100 100 100 100 100 100 100 100 100 100 100 100 100 100 100 100 100 100 100 100 100 100 100 100 59 89 100 100 100 100 100 100
100 100 100 100 99 95 7 5 4 1 0 0 1 5 85 100 100 100 100 100 100 100 100 100 100 100 100 100 100 100 100 100 100 100 100 100 100 100 100 100 100 100 100 100 100 100 100 100 100
100 100 100 100 40 66 5 14 5 2 0 0 90 70 40 90 100 100 100 100 100 100 100 100 100 100 100 100 100 100 100 100 100 100 100 100 100 100 100 100 100 100 100 100 100 100 100 100 100
62 96 98 80 74 68 32 86 5 0 0 6 39 98 62 72 72 100 100 100 100 100 100 100 92 100 100 100 100 100 100 98 98 97 100 100 100 100 100 100 100 100 100 100 100 100 100 100 100
12 25 17 5 66 83 56 74 5 5 0 4 82 62 69 100 99 100 100 99 100 95 99 100 100 100 99 100 100 100 100 100 100 100 100 100 100 100 100 100 100 100 100 100 100 100 100 100 100
14 75 99 92 93 25 8 5 5 5 0 4 88 97 5 100 100 100 100 100 100 100 100 100 100 100 100 100 100 100 100 100 100 100 100 100 100 100 100 100 100 100 100 100 99 100 100 100 100
100 93 100 98 93 56 69 2 92 3 0 0 38 19 26 94 100 100 100 100 100 100 100 100 100 100 98 100 100 98 100 100 88 100 98 100 100 100 100 100 100 100 100 100 100 100 100 100 100
87 86 20 100 86 44 5 21 100 0 0 0 3 4 3 9 91 100 91 100 100 100 100 100 100 100 100 100 100 100 100 92 98 91 72 83 81 100 100 100 100 100 100 100 100 100 100 100 100
88 100 100 86 49 50 34 22 100 22 0 0 0 29 98 58 93 94 100 100 100 100 100 100 100 100 96 100 100 100 100 100 100 96 96 69 93 100 100 100 100 100 100 100 100 100 100 100 100
100 100 93 100 96 100 100 98 100 100 45 0 0 0 87 100 100 100 100 100 100 100 100 100 100 100 100 100 99 90 100 100 100 100 100 100 100 100 100 100 100 100 100 100 100 100 100 100 100
100 100 100 100 100 100 99 100 100 96 77 22 0 5 22 100 100 100 100 100 100 100 100 100 100 100 97 71 89 94 47 98 90 100 100 100 100 100 100 100 100 100 100 100 100 100 100 100 100

GFSSGP_prec_cloud_087.txt.gz
Cloud_Cover
5 100 100 100 100 41 58 100 100 96 98 53 56 23 25 97 81 43 8 5 5 11 6 1 0 5 5 5 6 5 40 5 14 0 6 5 5 5 5 5 12 29 100 100 90 33 98 67 68
5 51 100 100 100 96 52 87 100 100 62 92 67 80 52 44 33 5 5 5 5 6 19 21 1 0 4 11 20 6 6 5 3 3 15 19 12 5 5 9 44 6 42 59 96 99 100 100 100
86 95 100 99 100 100 100 42 100 100 100 100 76 93 22 92 76 13 5 5 5 5 5 14 5 5 0 7 7 5 18 4 3 5 18 51 12 6 2 3 6 93 7 89 100 100 100 100 100
99 100 81 100 28 100 100 38 100 100 100 63 100 52 77 86 11 98 37 5 5 5 5 5 5 5 0 0 1 5 5 5 1 5 4 100 18 6 4 4 5 28 100 100 100 100 100 100 52
100 96 96 58 100 100 100 51 100 100 100 100 100 89 100 100 100 78 18 61 42 5 17 3 5 5 5 0 0 0 0 3 5 5 3 63 9 0 3 5 14 100 68 96 100 99 57 75 67
100 95 97 40 99 99 100 100 100 100 100 100 100 91 100 100 100 18 10 9 43 11 77 34 16 5 5 0 1 0 0 2 5 0 0 77 54 5 0 5 27 20 43 58 90 60 100 100 100
41 99 48 60 97 81 100 100 100 100 100 100 71 100 100 100 100 100 82 75 12 27 99 32 42 32 1 0 0 0 0 0 0 0 0 24 100 16 0 9 5 24 42 8 0 56 100 100 100
100 100 92 100 100 93 100 100 100 100 100 100 100 70 100 100 100 100 96 87 90 39 100 45 89 55 29 5 1 0 0 0 0 0 0 0 4 0 4 2 8 5 42 7 97 98 99 56 6
100 90 96 100 100 70 79 100 100 100 100 100 99 44 100 100 100 100 100 100 63 62 100 100 70 100 100 69 16 0 1 1 6 48 1 65 13 8 12 12 1 17 71 83 58 8 5 5 3
100 64 67 100 100 100 35 98 100 100 100 100 100 89 100 100 100 100 100 100 96 77 98 100 100 100 98 90 8 36 3 1 4 4 0 4 6 6 3 7 20 44 24 21 4 5 0 1 1
100 100 100 100 94 100 97 32 100 100 100 100 100 100 100 100 100 100 100 90 100 83 99 100 100 100 100 100 50 8 6 8 5 11 1 0 0 0 0 2 0 0 0 1 0 0 0 0 0
100 100 100 100 100 97 100 26 96 66 98 100 100 100 100 100 100 100 88 100 94 41 99 100 81 100 100 100 64 16 5 8 5 3 0 0 0 0 0 0 0 0 0 0 0 0 0 3 5
100 100 100 100 82 100 100 28 8 34 73 100 100 100 93 81 100 100 92 100 100 98 89 61 60 100 94 100 100 28 7 5 17 5 4 0 0 0 0 0 0 0 0 0 3 5 5 5 5
100 100 100 100 93 100 100 88 5 5 0 75 100 100 100 98 100 100 100 81 69 100 100 100 68 100 100 100 100 100 75 27 21 29 8 5 1 0 0 0 0 0 0 0 5 5 5 5 5
100 94 100 100 100 100 100 96 6 14 0 0 72 100 100 100 93 82 99 100 100 100 100 100 100 100 99 100 100 100 100 100 28 42 19 6 5 4 2 0 3 5 5 5 5 13 6 71 99
64 80 100 100 100 72 93 79 100 11 2 0 0 81 100 100 100 100 100 100 100 76 85 99 100 100 96 65 100 100 100 100 100 65 8 12 11 5 8 5 5 6 7 34 51 42 5 17 26
91 99 100 100 100 54 95 100 100 54 3 4 0 2 97 100 100 100 100 100 100 100 100 50 76 66 46 99 96 84 100 100 100 100 60 65 40 26 23 29 35 65 39 26 17 6 12 8 38
42 43 100 100 84 10 72 93 100 13 6 5 3 0 5 100 100 100 100 100 100 100 100 100 44 100 99 43 98 100 100 100 100 100 100 100 100 93 50 36 26 48 38 31 33 23 12 9 82
100 98 100 98 100 26 6 94 100 32 68 5 0 0 0 1 100 100 100 100 100 100 100 100 90 31 19 100 100 100 100 100 100 100 100 100 100 100 100 92 41 65 42 39 40 50 100 100 100
100 96 98 78 100 66 6 5 100 95 14 5 0 0 0 5 1 100 100 100 100 100 100 100 100 90 98 74 100 100 100 100 100 100 100 100 100 100 100 100 100 100 100 100 100 100 100 100 100
100 100 100 94 98 93 86 8 52 87 98 46 0 0 0 0 26 21 100 100 100 100 100 100 100 100 98 100 100 100 94 100 100 100 100 100 100 100 100 100 100 100 100 100 100 100 100 100 100
100 100 99 84 100 100 66 77 97 87 37 11 5 0 0 0 0 5 10 100 100 100 100 100 100 100 100 100 100 100 100 100 100 100 100 100 100 100 100 100 100 100 100 100 100 100 100 100 100
100 100 99 100 100 99 84 76 100 92 94 83 5 0 0 0 0 17 2 5 100 100 100 100 78 100 100 100 100 100 100 100 100 100 100 100 100 100 100 100 100 100 100 100 100 100 100 100 100
100 100 100 100 100 95 66 94 32 8 10 5 5 0 0 0 1 45 22 5 40 100 100 100 98 92 98 100 100 100 100 100 100 100 100 100 100 100 100 100 100 100 100 100 100 100 100 100 100
100 95 100 100 99 40 98 35 24 39 6 28 5 5 0 0 3 8 88 16 16 96 100 100 100 100 80 100 100 100 100 100 100 100 100 100 100 100 100 100 100 100 100 100 100 100 100 100 100
100 100 97 89 94 95 100 96 100 100 16 5 4 0 0 0 0 7 83 88 85 99 100 100 100 100 97 100 100 100 100 100 100 100 100 100 100 100 100 100 100 100 100 100 100 100 100 100 100
100 98 92 80 9 22 65 5 19 99 97 6 5 0 0 0 6 25 97 90 93 89 100 100 100 100 100 100 100 100 100 100 100 100 100 100 100 100 100 100 100 100 100 100 100 100 100 100 100
100 98 72 15 20 64 91 87 100 100 100 67 5 1 0 0 23 100 100 100 100 100 99 95 100 100 100 100 100 100 100 100 100 100 100 100 100 100 100 100 100 100 100 100 100 100 100 100 100
100 100 100 100 94 87 100 95 100 100 100 42 9 4 0 0 2 19 100 29 100 100 100 100 100 100 100 100 100 100 100 100 100 100 100 100 100 100 100 100 100 100 100 100 100 100 100 100 100
100 100 100 100 100 100 100 100 100 100 100 97 60 3 0 0 0 0 97 97 90 100 100 100 64 94 100 100 100 100 100 100 100 100 100 100 100 100 100 100 100 100 100 100 100 100 100 100 100

GFSSGP_prec_cloud_090.txt.gz
Cloud_Cover
100 100 100 100 100 48 74 100 100 100 100 33 70 92 53 93 92 8 29 5 5 0 5 5 0 3 5 5 5 100 37 22 16 5 5 5 5 5 6 5 7 50 73 50 5 5 5 5 91
100 99 100 100 100 67 93 100 100 99 68 99 100 64 29 78 94 34 50 5 5 5 5 5 2 0 0 3 5 5 5 7 5 9 5 5 5 5 42 59 89 100 92 18 47 5 5 14 100
100 100 100 99 100 68 100 100 100 98 100 100 100 100 76 63 94 5 5 5 5 5 5 5 5 5 2 19 0 2 5 5 5 7 6 7 5 5 5 5 5 26 5 4 5 5 41 100 100
100 100 60 12 26 100 100 100 100 100 100 100 100 100 86 87 12 39 5 6 5 5 5 5 5 5 0 0 0 0 0 2 5 5 40 5 5 5 5 5 5 5 5 4 16 93 100 100 100
100 100 93 5 96 100 100 99 5 88 100 100 100 100 100 94 97 78 5 5 44 5 5 2 2 5 1 0 0 0 0 0 2 5 13 8 5 5 5 5 4 5 11 61 96 47 95 100 93
100 73 9 5 4 100 100 100 74 100 97 100 100 100 100 95 100 78 71 66 100 68 28 5 5 5 5 0 0 0 0 0 0 0 31 17 0 2 5 1 0 0 4 54 39 7 43 82 72
73 80 4 0 4 100 63 96 100 100 100 100 99 100 100 100 95 67 86 99 100 48 91 45 5 83 25 0 0 0 0 0 0 0 51 0 0 0 0 0 0 0 3 3 5 5 10 1 98
100 100 70 6 81 99 46 100 100 100 98 99 71 100 100 100 100 83 92 100 100 100 100 91 5 35 46 5 5 2 0 0 0 0 0 0 0 0 0 0 0 0 4 2 5 5 5 5 59
100 73 100 79 100 30 36 88 100 100 100 100 16 94 100 100 100 100 100 90 100 100 100 25 9 5 25 7 7 5 5 1 0 0 0 4 0 0 0 0 0 0 0 0 5 5 6 19 5
100 69 95 100 100 100 16 75 100 100 100 100 52 54 100 100 100 100 100 100 100 100 97 49 20 19 94 6 2 4 5 5 0 0 0 0 0 0 0 0 0 0 0 0 3 57 5 5 5
100 56 100 100 100 100 34 65 100 100 100 100 100 98 100 100 100 100 100 100 100 100 100 94 100 98 100 6 47 24 5 5 4 0 0 0 3 0 0 14 1 0 0 0 23 12 5 5 2
100 100 100 100 100 100 70 100 23 100 100 100 100 99 100 100 100 100 100 100 100 100 100 100 100 100 98 100 69 48 5 5 16 5 3 0 0 0 0 0 0 0 0 0 0 0 0 0 0
100 100 100 100 100 100 100 100 93 10 100 100 100 100 98 100 100 100 100 96 97 100 100 100 97 100 100 100 98 100 42 5 5 6 5 4 4 1 5 4 0 0 0 0 0 0 0 0 0
100 100 100 100 96 100 100 100 100 2 63 100 100 100 100 100 100 100 100 100 100 100 100 100 12 50 75 96 69 100 87 56 94 53 14 5 34 57 5 5 5 4 2 0 0 0 2 0 4
100 100 100 100 100 99 100 100 33 11 5 93 100 100 100 100 97 100 100 100 90 100 100 100 61 99 32 96 100 93 100 100 100 100 100 100 98 60 56 12 5 5 5 5 0 0 5 5 5
100 100 100 100 100 100 100 68 5 100 54 23 64 100 100 100 100 90 99 100 100 100 100 100 100 100 95 92 100 95 100 91 100 100 100 100 100 100 90 41 24 10 16 22 5 5 5 5 5
100 100 95 100 100 100 100 100 5 8 11 69 5 12 99 100 100 100 78 100 100 100 100 100 100 100 100 62 60 100 100 100 100 86 99 100 100 100 100 100 94 75 7 5 5 14 5 5 5
100 100 100 100 100 100 100 100 98 90 11 84 5 4 2 98 100 100 100 100 100 100 100 100 94 80 14 59 6 100 100 100 100 100 100 99 100 100 100 100 100 100 100 100 94 7 5 25 13
100 100 100 100 100 100 99 99 38 66 7 62 81 5 0 0 51 100 100 100 100 100 100 100 100 100 100 5 4 60 100 100 100 100 100 100 100 100 100 100 100 100 100 100 100 100 100 99 100
59 100 93 100 100 100 86 34 35 30 79 98 100 44 5 5 1 0 87 100 100 99 95 98 98 100 95 99 79 6 76 96 100 100 100 100 100 100 100 100 100 100 100 100 100 100 100 100 100
5 61 100 66 100 96 99 100 50 4 2 6 62 100 22 5 2 2 1 13 100 100 86 100 98 100 100 100 55 58 94 100 100 100 100 100 100 100 100 100 100 100 100 100 100 100 100 100 100
84 100 28 56 10 7 10 9 2 58 0 0 33 100 100 48 5 0 0 0 1 100 100 100 99 57 100 99 98 100 100 100 100 100 100 100 100 100 100 100 100 100 100 100 100 100 100 100 100
100 99 100 93 67 73 60 77 5 2 2 0 2 7 74 70 6 2 0 0 0 0 90 100 95 94 29 100 100 77 100 100 100 100 100 100 100 100 100 100 100 100 100 100 100 100 100 100 100
83 93 100 90 100 35 27 51 0 1 3 1 0 21 97 96 57 18 0 0 0 0 0 56 100 97 69 100 100 100 100 100 100 100 100 100 100 100 100 100 99 98 100 100 100 100 99 100 100
32 100 100 69 67 12 81 7 0 73 2 5 4 0 4 33 53 75 0 0 0 0 0 0 6 100 100 100 94 100 100 100 100 100 100 100 100 100 100 100 100 100 100 100 98 94 78 98 100
80 73 100 100 55 64 91 10 94 100 76 6 65 18 10 5 9 51 4 0 0 0 0 24 16 5 85 100 100 99 100 95 100 100 100 100 100 100 100 100 100 100 100 100 100 100 100 100 100
100 78 100 100 100 100 100 100 100 100 100 95 94 100 100 100 49 43 6 0 0 3 5 93 100 68 100 99 100 100 100 91 100 100 100 100 100 100 100 100 100 100 100 100 100 100 100 100 100
100 100 100 98 100 43 100 100 100 100 100 100 50 98 94 31 2 3 5 0 0 1 30 100 100 98 100 99 100 100 100 100 100 100 100 100 100 100 100 100 100 100 100 100 100 100 100 100 100
100 100 100 100 100 70 34 80 99 100 100 100 100 28 23 10 5 11 6 0 1 56 48 52 100 100 100 100 100 100 100 100 100 100 99 87 100 100 100 100 100 100 100 100 100 100 100 100 100
100 100 100 100 100 81 62 4 60 12 100 100 100 66 9 5 28 67 5 0 4 28 100 99 100 100 100 100 100 100 100 100 100 100 100 100 100 91 94 90 100 100 100 100 100 100 100 100 100

GFSSGP_prec_cloud_093.txt.gz
Cloud_Cover
100 100 76 100 100 5 94 100 100 100 100 17 79 60 99 40 6 18 5 5 28 38 9 5 0 0 0 5 35 96 65 5 5 2 0 5 5 30 68 6 63 25 6 5 5 5 5 5 5
100 98 100 95 100 5 78 100 100 100 100 99 100 92 7 100 88 100 44 5 5 30 37 11 4 0 5 0 0 35 4 5 5 5 3 1 5 8 14 72 93 5 5 5 5 5 5 5 5
100 100 100 33 100 9 100 100 100 100 100 100 97 100 85 100 100 100 100 5 5 12 25 11 4 0 5 4 0 0 0 9 5 5 5 4 4 5 20 100 32 5 11 5 5 5 5 5 6
98 95 97 10 84 100 100 100 100 100 100 100 100 100 100 67 80 98 100 87 43 11 5 5 5 5 5 0 0 0 0 15 17 5 4 5 5 1 5 5 5 5 5 5 17 34 11 86 100
100 58 56 5 52 100 100 100 60 100 100 100 100 100 100 100 98 100 92 6 11 23 5 6 4 5 5 5 5 0 0 0 20 0 4 0 0 5 3 4 5 5 5 0 4 49 61 64 95
100 99 74 2 49 100 100 87 12 86 100 100 100 100 100 100 99 100 97 43 93 83 62 6 5 5 5 5 5 2 0 0 0 7 9 0 0 0 1 0 0 0 0 0 1 5 43 20 18
100 98 6 0 2 100 100 100 100 100 100 100 100 83 100 100 96 100 100 96 100 100 80 28 5 5 5 5 5 5 3 4 0 15 0 0 0 0 0 0 0 0 0 0 2 5 0 5 5
100 100 92 18 52 100 39 100 100 100 100 100 100 100 99 100 100 100 100 100 97 93 91 40 53 64 54 6 26 7 17 5 0 12 1 0 0 0 0 0 0 0 0 0 0 5 0 3 5
100 100 97 100 100 38 80 100 100 100 100 100 81 100 100 100 100 100 100 100 100 99 100 79 21 57 22 77 100 24 5 5 5 0 0 0 0 0 0 0 0 0 0 0 0 0 0 0 4
100 100 100 100 100 98 6 100 100 100 100 100 100 100 100 100 100 38 100 100 100 100 100 78 87 59 99 100 100 11 5 5 5 5 5 5 0 0 0 0 0 0 0 0 0 0 0 0 2
100 100 100 100 100 100 13 8 100 100 100 100 96 100 100 84 100 100 100 100 100 100 100 100 68 99 100 80 62 31 5 5 4 0 4 5 2 0 4 25 8 3 0 0 0 0 0 0 16
100 100 100 100 100 100 71 63 20 100 100 100 100 98 100 100 100 96 100 100 100 100 100 100 99 93 66 100 38 46 8 5 5 5 4 7 0 0 19 28 16 4 0 2 5 4 0 0 0
100 100 100 100 100 100 73 85 10 51 100 100 98 99 100 100 100 43 86 100 100 100 100 100 100 100 100 100 100 69 41 8 5 5 5 5 5 5 5 5 5 5 5 5 5 3 5 5 5
100 100 100 100 100 100 100 82 39 5 97 100 100 100 100 100 100 99 74 100 100 100 100 100 100 100 100 89 100 99 35 37 38 9 61 60 30 63 66 19 5 5 5 5 5 5 5 5 6
100 100 100 100 100 100 100 100 53 15 67 93 100 100 100 100 99 99 100 47 100 100 100 100 100 100 92 82 100 100 100 99 76 5 36 97 100 100 100 100 100 100 98 15 5 5 5 5 5
100 100 100 100 100 100 100 100 100 62 26 31 74 100 100 100 100 100 100 100 100 100 100 100 100 100 100 40 76 100 100 100 100 91 51 69 93 86 100 100 100 100 100 100 100 85 40 5 5
100 100 100 100 100 100 100 100 94 100 98 5 5 81 100 100 100 100 98 100 100 100 100 100 100 100 100 98 99 100 100 100 100 100 100 96 81 100 100 100 100 100 100 100 100 100 100 100 100
100 100 100 100 100 100 100 100 100 100 21 5 5 5 62 100 100 100 100 97 100 100 83 100 100 100 100 100 96 61 100 100 100 100 100 100 88 100 100 100 100 100 100 100 100 100 100 100 100
100 100 100 100 100 100 100 100 100 87 5 4 5 5 26 50 100 100 100 100 100 100 100 100 100 100 100 100 100 100 76 100 100 100 100 100 100 100 100 100 100 100 100 100 100 100 100 100 100
100 100 100 100 100 100 100 100 100 100 8 4 11 5 4 90 66 98 100 100 100 100 100 100 99 100 100 100 100 100 100 100 91 99 100 100 100 100 100 100 100 100 100 100 100 100 100 100 100
100 100 100 100 100 100 100 80 100 96 59 72 3 39 29 54 67 21 74 100 100 100 100 100 100 100 100 100 100 100 80 100 93 98 100 100 100 100 100 100 100 100 100 100 100 100 100 100 100
92 100 99 100 93 100 82 63 8 99 23 99 86 4 4 2 0 92 100 72 100 100 100 100 100 100 85 90 96 100 100 97 81 100 100 100 100 100 100 100 100 100 100 100 100 100 100 100 100
80 68 100 86 100 91 100 91 10 5 10 18 0 5 4 4 0 52 100 100 12 2 40 96 100 100 98 100 99 41 39 87 100 100 100 100 100 100 100 100 100 100 100 99 100 100 100 99 100
36 92 60 100 100 78 94 56 74 3 4 50 4 0 5 10 2 16 86 100 100 37 5 0 0 31 99 97 98 37 28 71 100 100 100 100 100 100 100 100 100 100 100 100 100 100 100 99 93
99 100 99 99 100 74 52 21 5 88 5 5 5 4 0 4 0 0 2 43 100 100 100 29 0 0 0 17 94 78 33 63 72 100 100 100 100 100 100 100 100 100 100 100 100 100 100 99 100
93 100 100 96 44 78 100 63 94 100 23 2 5 6 5 0 0 0 1 5 100 100 100 83 5 0 0 0 0 37 100 28 99 100 100 73 100 100 100 100 100 100 100 100 100 100 100 100 100
100 90 98 79 100 86 10 19 7 5 23 2 0 0 5 0 0 0 0 46 94 99 100 99 60 0 0 0 0 33 44 66 100 100 60 97 100 100 100 100 100 100 100 100 100 100 100 100 100
84 100 100 98 100 100 100 100 57 14 7 23 4 10 62 4 4 33 4 1 4 54 18 40 5 11 14 13 10 57 97 100 88 100 96 100 100 100 100 100 100 100 100 100 100 100 100 100 100
100 100 100 100 100 100 97 99 100 82 5 77 100 100 100 93 16 22 91 97 64 69 55 7 4 76 100 65 95 100 100 100 100 92 100 97 100 100 100 100 100 94 91 83 86 100 100 100 100
100 100 100 100 100 90 96 100 100 100 99 100 100 100 100 86 7 96 17 31 100 100 94 1 0 33 100 100 35 91 100 100 96 99 84 100 100 100 100 100 100 100 100 100 86 18 48 79 88

GFSSGP_prec_cloud_096.txt.gz
Cloud_Cover
100 100 100 100 100 28 75 98 100 100 93 45 16 64 28 68 16 30 64 83 73 46 13 3 3 5 0 27 100 30 28 100 53 71 91 92 98 58 26 6 95 4 0 0 2 3 5 5 0
100 100 100 100 82 6 100 100 100 100 100 100 46 86 58 86 32 92 90 36 37 75 90 5 5 5 3 0 64 65 5 12 16 13 25 24 36 43 1 1 0 0 4 5 5 2 5 5 5
100 100 100 76 25 6 100 100 100 100 100 100 70 42 94 100 79 63 80 70 32 30 49 13 8 5 5 5 1 1 0 0 0 0 4 3 5 4 1 1 0 0 3 5 4 5 5 5 5
100 95 100 100 1 93 100 100 100 100 100 84 100 100 85 88 100 86 97 47 23 48 30 5 5 5 5 5 4 2 7 5 0 0 0 0 5 94 5 5 5 5 3 3 3 5 5 0 5
100 100 100 11 0 60 100 100 100 100 100 100 100 100 100 88 100 59 53 64 52 45 31 5 5 5 5 5 5 0 14 4 3 0 0 0 0 3 2 0 0 3 10 2 0 0 0 0 8
100 100 91 5 0 27 100 100 76 100 100 100 94 99 100 100 100 76 92 100 43 91 93 14 6 34 58 6 5 5 5 21 5 0 0 0 0 0 0 0 1 2 4 0 0 0 0 3 4
100 100 88 5 0 2 100 100 100 100 100 100 100 100 100 98 100 100 99 100 94 81 100 89 74 93 73 25 5 5 5 6 5 5 0 0 0 1 0 9 7 1 0 2 0 0 0 5 4
100 100 100 8 5 4 91 100 97 100 100 100 100 100 100 100 100 100 100 100 100 100 100 100 100 100 53 50 6 8 5 18 26 5 1 4 0 0 0 0 0 0 0 0 0 0 0 0 0
100 100 100 60 99 65 6 100 100 100 100 100 100 100 100 100 100 100 100 100 100 100 100 100 100 100 100 92 81 79 22 20 46 34 5 5 3 0 0 0 0 0 0 0 0 0 0 0 0
100 100 100 100 100 44 4 100 100 100 100 100 100 100 100 99 100 100 100 100 100 100 100 100 100 100 100 100 100 93 100 76 100 100 8 14 6 4 0 2 1 4 3 0 0 0 0 0 0
100 100 100 100 100 100 60 85 100 100 100 100 100 100 100 100 100 100 100 100 100 100 100 100 100 100 100 100 100 100 95 100 98 39 46 6 9 7 21 21 9 4 2 0 0 0 0 1 0
100 100 100 100 100 100 100 5 90 100 100 100 100 100 100 100 100 100 100 100 100 100 100 100 100 100 100 100 100 100 100 100 58 29 7 14 28 24 26 31 19 8 3 0 0 0 1 3 0
100 100 100 100 100 100 80 94 78 100 100 100 100 100 100 100 94 99 100 100 100 100 100 100 100 100 100 100 100 100 100 99 62 13 5 5 8 24 36 50 17 8 6 5 5 5 5 0 0
100 100 100 100 100 100 46 81 80 100 100 100 100 100 100 100 100 100 100 100 100 100 100 100 100 100 100 100 100 100 100 100 100 100 76 63 70 34 59 26 31 5 48 100 100 98 82 69 22
100 100 100 100 100 100 94 28 86 51 100 100 100 100 100 99 78 100 100 100 100 100 100 100 100 100 100 100 100 100 100 100 100 100 98 100 81 17 50 26 12 17 100 100 100 100 100 97 100
100 100 100 100 100 100 100 81 79 10 77 100 100 100 100 100 100 93 100 100 100 100 100 100 100 100 100 99 100 100 100 100 100 98 100 100 100 100 76 63 86 100 100 100 100 100 100 100 100
100 100 100 100 100 100 100 100 73 81 5 86 100 100 100 100 100 100 100 99 100 100 100 100 100 100 100 100 100 100 100 100 100 99 25 78 100 100 100 100 98 100 92 77 87 100 100 100 100
100 100 100 100 100 100 100 100 100 69 65 21 82 100 100 100 100 100 89 100 91 100 100 100 100 100 100 100 100 97 96 94 100 100 100 100 100 100 100 100 100 100 100 99 99 100 100 100 100
100 100 100 100 100 100 100 100 100 89 100 74 5 6 100 100 99 25 92 97 100 100 94 100 100 100 100 100 100 100 100 100 100 100 100 100 100 100 100 100 100 100 100 100 100 100 100 100 100
16 100 100 100 100 100 100 100 100 100 89 100 32 5 4 70 100 100 100 100 100 100 100 100 100 100 100 100 100 100 100 94 100 100 100 100 100 100 100 100 100 100 100 100 100 100 100 100 100
6 100 99 97 100 100 98 100 100 98 100 39 8 5 61 6 22 100 100 100 100 100 100 100 100 100 100 100 97 100 100 100 100 76 81 93 100 100 100 100 100 100 100 100 100 100 100 100 100
46 95 100 100 100 76 95 100 100 100 100 100 84 5 5 5 1 1 24 75 100 100 100 100 100 100 95 80 84 100 99 92 100 100 93 93 100 100 100 100 100 100 100 100 100 100 100 100 100
5 67 100 100 100 85 90 75 100 100 7 76 100 45 1 4 0 2 5 53 18 100 100 100 77 6 5 80 86 42 99 100 100 100 100 100 100 100 100 100 100 100 100 100 100 100 100 100 100
20 7 83 100 100 100 100 94 100 40 79 85 38 100 67 6 64 0 1 8 4 4 43 100 100 100 96 82 100 35 5 40 99 100 91 100 100 100 100 100 100 100 100 100 100 100 100 100 100
64 100 85 100 100 74 100 100 100 95 78 89 100 100 95 3 4 5 3 1 4 2 5 63 92 70 100 100 100 100 100 68 98 80 100 100 100 100 100 100 100 100 100 100 100 100 100 100 100
7 100 97 57 100 100 100 60 100 100 90 19 22 85 100 18 6 1 0 1 5 4 4 63 56 11 5 14 21 100 100 100 100 100 100 100 100 100 100 100 93 100 100 100 100 100 100 100 100
7 24 64 100 100 100 100 100 100 100 100 100 99 58 40 18 2 1 0 0 4 85 50 50 100 78 5 5 1 0 0 30 78 82 100 100 100 100 100 100 100 100 100 100 100 100 100 100 100
31 92 100 100 100 81 100 100 100 100 100 72 45 10 25 21 4 0 0 0 0 7 66 34 36 58 38 13 5 5 5 6 14 9 5 87 83 91 35 100 96 100 100 100 100 100 100 100 100
100 100 100 100 100 42 5 38 100 100 100 100 100 100 100 94 16 5 1 0 3 0 2 4 3 4 62 100 90 23 15 91 90 50 69 8 21 44 82 93 100 100 100 100 100 100 97 87 98
100 100 100 100 100 93 96 69 100 100 100 100 100 100 100 100 100 97 83 6 69 15 0 0 0 0 8 100 100 100 58 87 35 89 76 72 41 60 99 100 76 100 99 100 100 100 100 92 93

GFSSGP_prec_cloud_099.txt.gz
Cloud_Cover
88 100 100 100 100 38 5 90 100 100 100 97 47 34 33 34 47 17 100 84 34 63 100 65 6 5 5 0 0 5 1 51 44 74 33 73 85 78 100 75 5 0 0 0 0 0 0 0 0
99 100 100 100 100 5 7 85 100 73 96 95 84 68 5 9 38 95 100 60 36 39 100 78 83 30 5 0 0 0 0 88 100 100 93 93 87 95 76 39 4 0 0 0 0 0 0 0 6
100 100 100 98 81 3 13 100 100 100 100 100 100 69 5 29 80 81 100 86 51 40 70 100 64 29 5 5 0 0 2 28 80 57 52 96 100 59 5 4 5 3 3 0 0 0 1 0 3
100 100 100 99 4 0 6 100 100 100 100 100 100 78 25 31 58 100 100 90 100 34 43 98 74 26 5 5 5 5 0 6 22 5 5 0 1 4 1 0 0 0 5 0 0 2 12 0 0
93 100 100 87 0 0 17 100 100 100 100 100 86 100 100 67 89 92 100 65 100 100 69 60 100 100 37 5 5 5 5 5 0 2 4 1 2 1 0 0 2 6 5 0 0 1 0 0 0
100 100 100 40 3 0 2 100 100 100 100 100 100 93 100 98 96 100 48 80 77 82 56 54 98 100 92 48 10 6 5 5 5 5 1 0 1 0 0 0 10 16 16 0 2 0 0 0 0
76 100 100 82 7 0 5 100 100 100 100 100 100 100 100 100 100 100 99 84 83 48 24 74 72 100 100 39 11 50 5 5 5 5 5 0 0 0 0 14 5 32 19 13 0 0 0 0 0
100 100 100 100 100 5 69 27 100 100 100 100 100 95 100 100 99 100 84 98 43 89 94 100 100 100 93 79 24 34 48 26 6 5 5 4 5 2 0 2 0 9 16 0 0 0 0 0 0
100 100 100 11 99 100 67 6 100 100 100 100 100 100 97 100 100 100 100 100 100 100 100 100 100 100 100 100 100 83 40 48 82 41 28 5 10 5 5 0 0 0 0 0 0 0 0 0 0
100 100 100 65 100 100 13 10 98 100 100 100 100 100 98 89 100 100 100 100 100 100 100 100 100 100 100 100 100 100 100 98 94 100 75 25 57 42 5 4 5 2 0 0 0 0 3 0 0
100 100 100 87 100 100 93 70 95 100 100 100 100 100 100 99 100 100 100 100 100 100 100 100 100 100 100 100 100 100 100 100 100 100 99 67 82 13 10 14 6 5 5 5 5 0 0 1 0
100 100 100 100 100 100 100 82 13 100 100 100 100 100 100 54 100 100 100 100 100 100 100 100 100 100 100 100 100 100 100 100 100 100 100 37 36 35 35 30 17 8 5 5 5 5 5 5 1
100 100 100 100 100 100 100 100 5 100 98 100 100 100 100 98 90 100 100 100 100 100 100 100 100 98 100 100 100 100 100 100 100 100 100 99 28 75 75 25 24 14 5 5 5 5 5 29 97
100 100 100 100 100 100 100 100 40 94 100 100 100 100 92 100 95 100 100 100 100 100 100 99 100 100 100 100 100 100 100 97 88 100 100 100 98 95 100 70 19 7 19 15 6 5 17 27 21
100 100 100 100 100 100 100 100 10 13 100 98 100 100 100 100 100 100 100 100 100 100 100 100 100 100 100 100 100 100 100 100 89 98 100 100 100 97 32 47 100 50 100 70 21 30 90 100 100
100 100 100 100 100 100 100 100 100 5 83 100 100 100 100 100 100 100 100 100 100 100 100 100 93 100 100 98 100 95 100 100 100 90 95 75 99 100 59 95 100 100 100 100 100 96 50 74 93
100 100 100 100 100 100 100 100 100 30 13 100 100 48 100 100 100 100 100 100 100 100 100 100 100 100 100 100 99 99 81 100 92 97 88 51 51 61 50 68 99 100 100 100 100 100 100 100 95
100 100 100 100 100 100 100 100 100 92 75 97 100 98 86 100 100 100 100 98 100 100 100 100 100 100 100 100 100 98 100 94 14 42 98 100 100 71 77 40 100 100 100 100 100 100 100 100 100
100 100 100 100 100 100 100 100 100 100 100 51 100 100 92 93 100 100 100 100 100 100 100 100 100 100 100 100 100 100 100 83 89 54 94 87 92 92 100 100 100 100 100 100 100 100 100 100 98
58 57 100 100 100 100 99 100 100 100 100 98 81 100 100 99 81 100 100 100 100 100 100 100 100 92 100 100 100 100 100 98 97 91 65 84 100 100 100 100 100 100 100 100 100 100 100 99 100
98 100 91 100 100 100 100 98 100 100 100 53 9 68 100 100 41 30 88 100 100 100 100 100 100 98 80 100 98 96 100 100 70 98 88 30 62 100 100 100 100 100 100 100 100 100 100 100 100
100 95 96 100 100 100 100 100 99 100 56 77 5 5 40 100 100 89 45 19 100 100 100 100 100 100 100 100 97 89 73 90 100 96 51 64 90 100 93 99 100 100 100 100 100 100 100 100 100
100 100 98 96 100 99 100 31 100 69 61 46 67 84 39 73 91 99 100 52 49 81 94 97 89 96 88 100 100 100 100 82 96 100 100 100 100 100 100 100 100 100 100 100 100 100 100 100 100
100 85 100 94 74 98 97 98 100 100 100 100 86 96 79 17 26 7 58 100 100 96 86 82 62 87 98 94 100 100 100 100 100 100 100 100 100 100 100 100 100 100 100 100 100 100 100 100 100
76 74 90 100 100 84 100 99 43 89 100 100 100 100 94 99 90 57 5 13 94 100 100 100 100 100 100 44 73 82 63 88 99 100 100 100 100 100 100 100 100 100 100 100 100 100 100 100 100
65 30 46 78 100 100 100 100 100 100 100 81 100 100 100 58 13 35 30 5 5 3 32 100 100 100 100 94 89 94 100 100 54 99 100 100 99 89 100 100 100 100 100 100 100 100 100 100 100
31 46 50 100 54 48 100 46 97 100 100 100 100 88 98 100 100 52 40 3 2 5 5 0 0 1 32 88 98 100 100 82 41 45 100 37 100 100 100 100 100 100 100 100 100 100 100 96 100
99 73 89 100 100 92 100 100 100 100 100 100 100 85 95 90 98 77 18 5 5 5 5 4 0 0 1 3 1 3 0 31 74 99 61 76 100 100 100 93 79 100 100 100 100 97 100 90 99
100 100 87 88 97 19 26 98 100 100 100 100 100 100 100 100 100 96 23 11 6 1 0 5 2 0 0 2 5 5 5 2 5 5 3 5 7 20 98 92 57 99 90 84 100 100 100 98 98
100 100 100 100 94 41 6 7 100 100 100 100 100 100 100 100 100 100 100 71 5 4 0 10 67 6 5 5 2 5 5 5 5 13 97 99 96 98 93 68 61 13 5 5 76 84 99 75 99

GFSSGP_prec_cloud_102.txt.gz
Cloud_Cover
79 8 26 50 100 85 9 4 5 100 100 71 52 48 88 97 14 9 52 37 39 69 14 62 84 28 8 5 5 0 5 5 1 18 100 100 98 70 100 14 1 5 0 0 1 96 20 2 0
96 19 96 98 100 95 6 0 55 92 100 100 98 10 98 100 71 82 87 50 49 45 20 28 44 12 6 5 4 11 80 7 0 0 77 93 37 100 67 21 23 1 2 0 3 7 4 10 11
99 78 100 100 100 54 0 0 98 100 100 100 100 79 88 89 100 100 74 85 68 92 59 18 5 6 10 5 5 27 100 97 73 0 16 86 100 96 40 63 43 0 0 0 7 41 6 0 0
100 100 100 100 100 2 0 0 100 100 100 100 100 84 25 86 100 100 100 82 67 100 100 99 100 95 28 5 5 73 100 100 99 64 100 100 100 20 5 19 7 6 5 19 25 5 0 0 0
100 100 100 100 84 0 0 0 100 100 100 100 100 95 51 100 100 100 100 93 100 100 100 49 64 76 100 30 5 5 98 100 83 0 37 86 66 4 5 2 23 26 22 76 73 24 0 0 0
100 94 93 100 40 3 1 5 98 89 100 100 100 96 87 99 100 100 100 100 92 100 100 96 13 5 26 100 89 17 5 22 56 5 4 27 0 0 4 5 100 90 23 13 40 8 0 0 0
100 89 100 100 63 56 5 5 98 88 100 100 100 100 100 100 97 100 100 100 100 100 100 100 93 5 42 55 44 27 5 5 5 5 9 5 5 4 0 3 41 100 31 19 27 0 0 0 0
99 100 100 100 100 98 60 95 24 100 100 100 100 100 100 100 100 100 100 100 100 100 100 100 99 68 71 63 87 86 88 15 5 5 5 5 5 5 5 5 52 98 28 9 0 0 0 0 0
100 100 100 100 100 100 45 100 5 100 64 100 100 100 100 100 100 100 100 100 100 100 100 97 100 100 99 97 100 100 100 24 17 13 5 5 5 51 5 5 5 5 2 0 0 0 0 0 0
100 100 100 100 100 100 100 100 2 100 71 100 100 100 100 100 100 100 100 100 100 100 100 100 100 100 100 100 100 100 100 100 75 33 17 5 10 70 8 5 5 5 5 5 3 1 0 0 1
89 100 100 100 100 100 100 100 100 100 66 100 100 100 100 100 100 100 100 100 100 100 100 100 100 100 100 100 100 100 100 100 100 99 80 100 90 100 100 18 32 5 5 5 5 5 0 0 4
100 100 100 100 100 100 100 100 81 92 100 100 100 100 100 100 100 100 100 100 100 100 100 100 100 100 100 100 100 97 100 100 100 100 97 100 100 100 100 100 39 7 31 49 27 5 5 4 5
100 100 100 100 100 100 100 56 28 27 100 100 100 100 100 100 100 100 100 99 100 100 100 100 100 100 100 94 99 100 100 100 100 100 100 100 100 88 100 100 100 95 33 62 38 9 5 5 5
100 100 100 100 100 100 100 100 33 14 100 98 100 100 100 100 100 100 100 100 100 100 100 100 100 100 100 100 100 100 100 100 100 100 100 100 100 78 92 100 100 39 99 98 51 83 81 100 32
100 100 100 100 100 100 63 100 45 22 58 88 100 100 100 100 97 97 100 100 100 100 100 100 100 100 100 93 78 100 100 100 100 100 100 100 84 98 35 32 88 40 87 99 87 100 100 100 100
100 100 100 100 100 100 100 100 100 94 4 99 72 100 100 100 100 100 100 100 100 100 100 100 100 100 100 93 100 100 100 100 100 100 100 99 93 28 13 23 21 72 56 72 99 80 80 100 100
100 100 100 100 100 100 100 100 100 95 5 49 100 100 100 100 100 100 96 100 100 100 100 100 100 100 100 86 99 94 100 98 100 91 100 100 100 70 61 76 80 99 95 98 80 86 96 100 100
100 100 100 100 100 100 100 100 100 77 5 5 100 100 100 100 100 100 100 100 100 100 100 100 100 100 100 100 100 100 100 100 99 100 89 98 99 100 100 100 100 100 100 100 100 100 100 100 100
100 100 100 100 100 100 100 68 96 99 67 5 100 100 100 100 100 100 100 100 100 100 100 100 100 100 100 100 100 100 100 94 91 100 99 80 99 86 99 100 88 99 100 100 99 100 100 100 100
97 100 100 100 100 96 100 100 72 72 80 5 20 100 100 100 100 100 100 100 100 100 100 100 100 100 100 100 100 100 100 98 98 100 91 86 83 49 100 93 100 99 100 100 100 100 100 100 97
92 100 100 100 100 100 100 100 87 71 49 6 9 33 99 100 98 100 100 100 100 100 100 100 100 100 100 100 100 100 100 100 100 100 100 100 100 100 100 100 100 100 100 100 100 100 100 100 100
82 89 100 100 100 90 94 100 97 97 82 22 32 5 8 100 100 100 100 100 100 100 100 100 100 100 100 100 100 100 100 100 100 100 100 100 100 100 100 100 100 100 100 100 100 100 100 100 100
5 89 76 100 100 97 84 98 100 100 90 58 68 7 92 9 55 100 100 100 100 100 100 100 100 100 100 100 100 100 100 100 100 100 100 100 100 100 100 100 100 100 100 100 100 100 100 100 100
89 14 9 67 100 100 100 88 100 100 100 100 100 98 77 94 64 65 33 100 100 100 98 100 100 100 100 100 100 100 100 100 100 100 100 100 100 100 100 100 100 100 100 100 100 100 100 100 100
6 62 80 100 98 100 100 86 53 100 100 100 100 99 82 68 91 89 84 26 82 100 100 100 100 100 100 100 100 100 100 100 100 100 100 100 100 100 100 100 100 100 100 100 100 100 100 100 100
43 14 46 14 48 86 100 100 100 100 100 100 100 100 100 99 5 97 100 98 52 99 90 100 100 100 100 100 100 100 100 100 100 100 100 100 100 100 100 100 100 100 100 100 100 100 100 100 100
94 49 68 58 41 52 99 100 100 100 100 100 100 100 100 100 98 100 100 100 100 60 20 5 46 75 100 100 100 100 100 100 100 100 100 100 100 100 100 100 100 98 100 100 100 100 100 100 100
95 43 95 100 100 100 47 96 100 100 100 100 100 100 100 88 11 96 100 93 85 100 98 14 5 5 12 28 47 68 57 58 91 100 90 72 75 66 10 34 90 78 100 100 100 97 77 100 100
98 100 98 100 100 98 99 15 76 100 100 100 100 100 100 100 54 84 86 100 100 83 79 87 100 100 100 81 48 27 5 57 100 100 100 100 93 100 100 100 85 14 25 31 63 98 72 100 86
100 100 100 100 90 85 86 100 98 99 100 100 99 100 100 100 100 100 99 83 94 100 99 17 97 100 100 100 100 100 100 100 100 100 100 100 99 67 97 73 100 87 53 58 53 40 5 8 39

GFSSGP_prec_cloud_105.txt.gz
Cloud_Cover
85 100 100 66 13 98 29 14 4 0 42 100 88 10 9 99 95 81 63 27 8 49 51 9 6 5 5 5 8 5 1 2 0 4 4 100 78 88 100 12 5 5 4 9 44 99 57 54 94
2 96 100 100 78 100 86 3 0 0 48 100 81 81 13 94 100 91 94 60 34 50 48 35 42 14 11 15 13 4 3 0 0 0 5 5 60 100 28 5 6 5 11 99 45 88 11 2 8
37 100 100 100 100 98 34 0 0 0 32 100 100 98 57 64 100 100 73 82 78 58 46 33 5 5 5 25 5 5 0 0 1 3 0 23 100 100 4 46 6 18 26 71 100 16 5 2 0
96 100 100 100 100 93 0 1 0 0 59 38 100 100 58 76 100 100 48 100 89 63 30 22 5 5 74 44 53 49 11 0 14 6 60 100 100 8 0 0 0 17 60 50 0 0 0 0 0
98 92 96 59 88 81 0 20 3 0 6 5 100 100 29 91 100 100 79 100 100 62 43 21 7 59 96 98 71 100 100 44 18 66 100 100 29 0 0 64 100 26 90 55 8 0 6 0 0
93 100 100 100 100 20 57 47 12 0 75 8 90 100 78 97 98 100 100 100 99 44 71 34 28 100 81 15 78 100 100 87 5 97 100 95 6 0 0 86 100 20 39 75 7 0 0 0 0
67 41 100 83 100 57 90 98 100 6 6 5 86 100 100 98 98 100 100 100 100 71 99 99 95 100 93 86 98 88 100 100 60 8 83 26 1 0 4 43 84 91 6 12 5 2 0 0 0
78 99 100 94 100 99 72 100 100 89 2 86 92 77 100 100 92 100 100 100 100 100 82 68 100 100 100 66 19 91 84 100 90 100 63 7 5 12 43 100 100 100 45 20 5 0 0 0 0
100 100 100 100 100 100 100 100 100 96 63 34 18 100 81 100 100 100 100 100 100 100 100 100 100 100 100 99 23 24 71 22 56 52 5 5 6 7 16 14 100 99 9 8 5 4 5 5 5
89 74 100 100 100 100 100 100 100 100 96 98 60 100 100 98 100 100 100 100 100 100 100 100 100 100 100 100 100 100 99 100 100 65 31 12 19 24 23 66 93 100 93 5 5 5 5 5 5
11 92 100 100 100 100 100 100 100 24 60 100 53 100 100 100 100 100 100 100 100 100 100 100 100 100 100 100 100 100 100 100 100 98 95 90 20 82 84 95 100 100 100 100 96 7 5 5 5
1 66 100 100 100 100 100 100 100 13 68 93 100 100 98 100 100 100 100 100 100 100 100 100 100 100 100 100 100 100 100 100 100 100 100 100 100 100 100 97 95 100 100 93 100 100 5 5 5
97 100 100 100 100 100 100 100 100 26 98 98 100 84 100 100 100 100 100 100 100 100 100 100 100 100 100 100 100 100 100 100 100 100 99 55 35 64 100 100 100 90 79 86 100 100 8 21 5
98 99 100 100 100 100 100 100 100 76 53 69 88 100 100 100 100 100 100 100 100 100 100 100 100 100 100 100 100 100 100 100 100 100 100 15 19 84 100 100 100 68 55 11 6 17 9 19 10
100 89 100 100 100 100 100 100 100 74 99 88 100 100 100 100 100 100 100 100 100 100 100 100 100 100 100 100 100 100 100 100 100 100 81 99 99 100 100 100 96 78 17 28 58 62 5 71 32
100 100 100 100 100 100 100 96 33 38 92 64 100 100 100 97 100 100 100 100 100 100 100 100 100 100 100 100 100 100 100 85 100 100 100 100 85 68 100 100 100 100 98 100 67 95 100 82 87
100 100 100 100 100 100 100 84 76 72 72 100 100 100 100 100 100 100 100 100 100 100 100 100 100 100 100 100 100 100 100 87 58 62 74 74 100 82 100 85 100 100 57 36 99 80 100 100 98
99 100 100 100 100 100 100 33 12 53 71 100 100 100 100 100 100 100 100 100 100 100 100 100 96 100 100 100 100 100 100 87 95 73 89 84 97 98 100 100 99 69 86 74 93 100 100 100 100
100 100 100 100 100 100 100 99 46 47 100 100 100 100 100 100 100 100 100 100 100 100 100 100 100 100 100 100 100 100 74 88 98 100 96 79 95 100 100 100 100 60 63 81 100 100 100 100 100
100 97 99 100 100 100 100 99 38 30 93 98 100 100 100 100 100 100 100 100 100 100 100 100 100 100 100 100 100 100 100 100 99 100 40 100 48 96 100 60 56 80 100 100 100 100 100 100 100
77 62 100 100 100 100 97 66 89 12 99 61 100 100 100 100 100 100 100 100 100 100 100 100 100 100 100 100 100 100 100 100 100 100 93 98 100 100 100 46 100 100 100 100 100 100 100 100 100
17 100 88 100 100 83 98 100 100 85 99 100 99 100 100 100 100 100 100 100 100 100 100 100 100 100 100 100 100 100 100 100 100 100 100 100 100 100 100 100 100 100 100 100 100 100 100 100 100
94 95 93 93 99 90 100 100 97 65 5 82 100 100 100 100 100 100 100 100 100 100 100 100 100 100 100 100 100 100 100 100 100 100 100 100 100 100 100 92 100 100 100 100 100 100 100 100 100
5 92 100 98 84 100 100 100 95 95 15 97 100 99 100 100 100 100 100 100 100 100 100 100 100 100 100 100 100 100 100 100 100 100 100 100 100 100 100 86 100 100 100 100 100 100 100 100 100
54 7 98 100 100 100 100 100 100 100 75 60 37 90 71 100 100 100 98 100 100 100 100 100 100 100 100 100 100 100 100 100 100 100 100 100 100 100 100 100 100 100 100 100 100 100 100 100 100
63 12 8 100 100 100 95 58 100 100 78 63 100 100 83 100 100 100 100 100 100 100 100 100 100 100 100 100 100 100 100 100 100 100 100 100 100 100 100 100 100 100 100 100 100 100 100 100 100
50 74 83 100 92 100 100 85 97 100 100 100 100 100 100 100 100 100 100 100 100 100 100 100 100 100 100 100 100 100 100 100 100 100 100 100 100 100 100 100 100 100 100 100 100 100 100 100 100
60 77 100 98 100 47 100 100 100 100 100 100 88 97 100 100 100 100 100 100 100 100 100 100 100 100 100 100 100 100 100 100 100 100 100 100 100 100 100 100 100 100 100 100 100 100 100 100 100
99 93 100 100 100 54 81 100 100 100 100 100 100 98 100 100 100 100 100 100 100 100 100 100 100 100 100 100 99 100 100 100 100 100 100 100 100 100 100 100 100 100 100 100 100 100 100 100 80
100 100 100 100 83 96 12 100 100 100 100 100 100 100 100 100 100 100 100 100 100 100 100 100 100 100 100 100 100 100 100 100 100 100 100 100 100 100 100 100 100 100 100 100 100 100 6 5 5

GFSSGP_prec_cloud_108.txt.gz
Cloud_Cover
19 100 100 100 100 50 3 0 0 1 28 0 0 53 5 95 100 95 72 21 5 21 100 23 14 10 0 0 11 0 0 1 5 64 6 7 14 60 5 96 82 76 18 2 22 5 44 100 94
30 85 100 100 100 63 8 0 0 4 36 42 0 7 74 5 70 100 83 44 24 79 93 83 55 0 4 27 7 3 1 0 0 0 2 3 18 100 1 2 9 21 95 95 6 5 21 48 46
12 100 100 100 100 86 2 0 27 18 24 6 0 6 55 5 75 100 100 96 76 100 99 100 5 0 12 36 6 5 5 4 0 4 8 2 86 14 4 4 0 76 25 99 75 2 1 5 1
15 19 100 100 99 99 3 61 17 100 20 1 0 5 94 30 39 100 98 100 100 100 99 40 5 5 2 5 5 5 5 5 0 5 38 79 97 1 0 3 0 45 48 6 4 5 2 0 1
50 58 33 100 50 88 75 100 100 57 1 0 4 4 14 70 97 99 100 100 100 100 99 65 6 5 5 5 5 5 5 5 5 5 31 100 84 2 1 3 87 15 12 0 0 0 3 0 0
16 78 67 89 100 45 61 90 100 3 1 12 4 5 47 56 100 100 98 100 100 100 100 92 67 5 5 5 5 5 25 5 5 80 92 100 94 0 1 79 10 46 5 5 7 2 0 0 2
9 98 99 12 100 100 100 100 100 74 5 38 2 8 69 100 100 98 99 100 100 100 100 100 91 33 5 5 70 28 21 23 51 100 100 89 4 4 85 100 82 98 5 6 5 5 5 5 3
7 98 100 99 100 100 100 100 100 89 100 78 0 5 19 100 96 99 100 100 100 100 100 100 100 90 19 30 99 100 100 62 68 100 100 74 9 59 100 100 96 92 5 11 16 5 5 5 5
49 100 92 100 100 100 100 100 100 100 100 70 3 4 25 100 100 81 100 97 99 93 100 100 100 100 72 43 83 100 100 100 100 100 100 5 3 5 71 6 100 96 6 85 100 100 39 5 5
100 100 100 100 100 100 100 100 100 100 90 59 5 3 100 86 100 100 100 100 100 96 100 100 100 100 100 100 100 100 100 70 52 19 20 11 5 5 5 33 100 94 52 51 100 100 100 69 12
100 100 100 100 100 100 100 100 100 100 100 6 1 26 83 100 98 100 100 100 100 100 76 100 100 100 100 100 100 100 100 100 72 5 18 7 5 5 34 46 79 56 98 99 82 100 96 73 100
100 90 100 100 100 100 100 100 100 98 100 44 5 5 77 69 100 100 100 100 100 100 100 92 100 100 100 100 100 100 100 100 100 100 100 100 100 100 100 100 98 100 100 100 100 100 5 5 5
100 100 100 100 100 100 100 100 100 100 100 46 48 100 100 100 100 100 100 100 100 100 100 100 78 100 100 100 100 100 100 100 100 100 100 100 100 100 100 100 100 20 56 100 100 22 5 6 9
50 97 100 100 100 100 100 100 100 100 100 79 100 100 75 96 100 100 100 100 100 100 100 100 100 97 100 100 100 100 100 100 100 100 100 100 100 100 100 100 64 45 100 100 70 17 5 10 8
99 100 100 100 100 100 100 100 57 100 50 7 100 100 100 100 100 100 100 100 100 100 100 100 100 100 100 100 100 100 100 100 100 100 100 100 100 100 100 100 100 100 98 100 100 79 62 99 53
100 99 100 100 100 100 100 100 100 99 41 33 95 29 100 100 100 100 100 100 100 100 100 100 100 100 100 100 100 100 100 100 100 100 100 100 100 100 100 100 91 77 100 100 100 100 100 100 57
100 100 100 100 100 100 100 100 100 6 41 5 100 100 100 100 100 100 100 100 100 100 100 100 100 100 100 100 100 100 100 100 100 100 100 100 98 84 100 100 100 75 89 100 100 100 100 100 94
97 100 100 100 100 100 100 100 100 58 95 11 100 100 100 100 100 100 100 100 100 100 100 100 100 100 100 100 100 100 100 100 100 100 100 100 100 95 98 99 61 89 41 100 100 100 100 100 100
97 100 90 92 89 99 100 100 100 84 92 34 100 100 100 100 100 100 100 100 100 100 100 100 100 100 100 100 100 100 100 100 100 100 100 100 100 88 61 89 95 93 100 100 98 100 100 100 100
88 37 17 79 42 100 99 99 100 93 74 83 100 100 100 100 100 100 100 100 100 100 100 100 100 100 100 100 100 100 100 100 100 100 100 100 97 84 100 74 96 100 99 97 74 66 78 100 100
22 15 60 60 60 76 69 90 100 100 70 43 100 100 100 100 100 100 100 100 100 100 100 100 100 100 100 100 100 100 100 100 100 100 100 87 82 86 91 100 77 98 100 100 100 100 100 100 100
12 5 7 81 47 88 100 73 81 100 62 100 100 100 100 100 100 100 100 100 100 100 100 100 100 100 100 100 100 100 100 100 100 100 100 100 98 94 100 98 100 100 100 100 100 100 100 100 100
60 95 6 12 48 52 100 98 75 100 98 99 100 100 100 100 100 100 100 100 100 100 100 100 100 100 100 100 100 100 100 100 100 100 100 100 100 100 100 100 100 100 100 100 100 100 100 100 100
5 32 96 58 97 100 100 100 33 89 100 100 100 100 100 100 100 100 100 100 100 100 100 100 100 100 100 100 100 100 100 100 100 100 100 100 100 100 100 100 100 100 100 100 100 100 100 100 100
4 10 88 99 100 100 100 96 100 100 98 100 100 100 100 100 100 100 100 100 100 100 100 98 100 100 100 100 100 100 100 100 100 100 100 100 100 100 100 100 100 100 100 100 100 100 100 100 100
37 44 87 95 87 100 83 96 100 61 100 100 100 100 100 100 100 100 100 100 100 100 100 100 100 100 100 100 100 100 100 100 100 100 100 100 100 100 100 100 100 100 100 100 100 100 100 100 100
98 55 80 54 6 100 100 100 100 100 100 100 100 100 100 100 100 100 100 100 100 100 100 100 100 100 100 100 100 100 100 100 100 100 100 100 100 100 100 100 100 100 100 100 100 100 100 100 100
45 58 100 98 79 82 63 100 100 100 99 21 100 100 100 100 100 100 100 100 100 100 100 100 100 100 100 100 100 100 100 100 100 100 100 100 100 100 100 100 100 100 100 100 100 100 100 100 100
39 91 100 100 77 88 81 100 100 100 100 100 100 100 100 100 100 100 100 100 100 100 100 100 100 98 99 100 99 100 100 100 100 100 100 100 100 100 100 100 100 100 100 100 100 100 100 100 100
81 100 99 100 100 100 80 100 100 100 69 67 87 12 93 100 100 100 100 100 100 100 100 100 100 100 100 100 100 100 100 100 100 100 100 100 100 100 100 100 100 100 100 100 100 100 100 100 100

GFSSGP_prec_cloud_111.txt.gz
Cloud_Cover
29 15 100 100 100 100 2 0 0 0 0 0 5 94 65 64 25 50 100 100 6 15 62 13 5 0 0 0 0 2 0 5 90 57 57 4 4 5 5 2 11 9 79 88 19 11 5 5 15
67 88 70 100 100 78 13 0 0 0 1 6 5 16 96 95 95 37 24 100 95 15 36 72 5 1 0 0 0 4 3 0 0 2 50 17 52 82 10 3 0 0 15 20 5 5 84 14 1
0 0 100 71 100 98 3 0 0 0 3 33 73 20 88 60 96 1 5 84 100 46 100 74 8 5 0 0 5 0 1 0 0 0 0 5 67 10 22 3 0 0 2 3 2 1 5 5 2
0 30 38 100 88 6 59 7 81 67 61 71 100 87 74 61 100 2 32 5 100 97 100 42 12 5 24 5 1 4 0 0 0 0 0 4 81 0 10 5 5 0 37 0 1 0 2 0 0
5 3 4 5 98 77 86 8 100 100 92 100 100 98 18 92 5 5 100 12 88 100 100 18 36 98 34 5 5 5 5 3 0 0 5 5 0 0 0 41 60 2 5 5 5 5 0 1 1
53 5 9 5 6 93 14 92 89 100 100 100 73 100 98 60 7 23 99 100 60 100 100 26 6 100 99 86 29 5 5 5 5 4 19 79 2 1 7 42 100 58 5 5 6 2 5 5 5
23 76 5 59 79 100 100 76 100 100 100 99 100 99 83 7 68 85 100 100 100 98 100 66 5 67 100 93 90 10 5 8 5 9 92 99 26 0 0 100 78 3 5 6 48 9 31 72 58
32 74 93 83 44 38 100 100 98 100 100 100 90 28 100 15 94 86 100 100 100 100 100 100 5 27 100 100 96 37 11 5 75 100 100 100 20 6 99 100 100 32 0 0 5 7 100 100 100
57 98 72 100 95 46 100 100 100 100 100 100 99 100 39 23 100 88 98 99 100 75 96 100 73 27 81 100 100 41 49 91 100 100 100 5 5 71 100 100 100 79 5 5 3 5 38 59 55
52 92 74 98 92 100 100 100 98 100 100 48 35 54 42 37 96 85 97 100 100 60 92 100 60 99 88 100 100 100 100 100 100 100 78 19 5 5 5 37 100 99 5 5 5 5 30 100 99
82 89 100 100 100 100 99 100 100 100 90 37 5 59 33 48 100 79 46 100 93 100 68 97 35 99 100 100 100 100 100 88 80 100 100 14 7 14 46 62 100 96 82 100 42 5 19 99 100
12 100 100 100 96 100 100 100 100 100 90 98 4 79 73 100 100 98 99 100 100 100 100 98 16 82 94 100 100 100 100 69 94 100 100 100 49 47 17 48 98 100 100 100 79 5 14 10 96
15 100 100 100 99 100 100 100 96 100 97 100 100 100 22 100 92 54 100 100 100 100 100 100 100 100 5 94 100 100 99 90 100 100 100 100 100 100 100 83 100 100 100 100 66 7 5 64 100
92 100 100 100 100 100 100 100 100 99 100 100 100 100 40 6 24 90 90 100 100 100 100 100 97 100 95 87 89 100 100 100 100 100 100 100 100 100 100 100 100 100 100 100 98 22 81 100 100
100 92 100 100 100 100 100 100 100 100 100 100 100 100 44 60 49 100 100 100 100 100 100 100 100 100 100 100 91 98 100 100 100 100 100 100 100 100 100 100 100 100 100 100 100 100 95 100 100
100 100 100 100 100 100 100 100 100 100 78 100 100 96 37 65 41 68 100 100 100 100 100 100 99 100 100 100 100 100 100 100 100 100 100 100 100 100 100 100 100 100 100 75 99 100 70 100 76
100 100 100 100 100 100 100 100 100 100 100 80 78 62 100 75 74 59 100 100 100 100 100 100 100 100 100 100 100 100 100 100 100 100 100 100 100 100 100 100 100 100 51 61 85 100 99 97 92
100 100 100 100 100 99 46 96 100 86 48 92 100 87 100 100 100 100 100 100 100 100 100 100 100 100 100 100 100 100 100 100 100 100 100 100 100 100 100 100 100 100 100 100 86 100 61 99 100
100 100 96 92 100 100 51 17 53 93 100 50 33 48 100 100 100 100 100 100 100 100 100 100 100 100 100 100 100 100 100 100 100 100 100 100 100 100 100 100 100 100 100 100 74 28 88 100 100
100 94 94 84 100 100 98 92 100 92 98 85 5 5 100 100 100 100 100 100 100 100 100 100 100 100 100 100 100 100 100 100 100 100 100 100 100 100 100 100 100 100 93 99 50 98 96 82 96
100 100 95 100 100 95 31 12 100 40 58 100 60 56 100 100 100 100 100 100 100 100 100 100 100 100 100 100 100 100 100 100 100 100 100 100 100 100 100 100 100 100 100 100 100 78 99 100 100
100 35 92 64 90 100 21 99 54 14 26 100 34 100 100 100 100 100 100 100 100 100 100 100 100 100 100 100 100 100 100 100 100 100 100 100 100 100 100 100 100 100 97 94 92 100 100 100 99
80 5 37 100 86 87 100 32 100 69 41 100 96 91 100 100 100 100 100 100 100 100 100 100 100 100 100 100 100 100 100 100 100 100 100 100 100 100 100 100 100 100 100 100 100 100 100 100 100
5 10 29 70 100 62 100 57 82 73 76 100 91 100 100 100 100 100 100 100 100 100 100 100 100 100 100 100 100 100 100 100 100 100 100 100 100 100 100 100 100 100 100 100 100 100 100 100 100
5 59 94 98 77 76 42 98 100 54 99 100 100 100 100 100 100 100 100 100 100 100 100 100 100 100 100 100 100 100 100 100 100 100 100 100 100 100 100 100 100 100 100 100 100 100 100 100 100
84 90 98 99 99 87 32 76 92 38 6 100 100 100 100 100 100 100 100 100 100 100 100 100 100 100 100 100 100 100 100 100 100 100 100 100 100 100 100 100 100 100 100 100 100 100 100 98 98
66 46 79 94 100 70 89 42 92 16 6 100 100 100 100 100 100 100 100 100 100 100 100 100 100 100 100 100 100 100 100 100 100 100 100 100 100 100 100 100 100 100 100 100 100 100 100 100 100
36 100 96 95 96 100 100 100 100 95 5 97 100 100 100 100 100 100 100 100 100 100 100 100 100 100 100 100 100 100 100 100 100 100 100 100 100 100 100 100 100 100 100 100 100 100 100 100 100
88 82 69 100 97 100 100 100 5 94 3 12 100 100 100 100 100 100 100 100 100 100 100 100 100 100 100 100 100 100 100 100 100 100 100 100 100 100 100 100 100 100 100 100 100 100 100 100 96
99 99 31 100 100 100 100 100 57 89 25 49 48 100 100 100 100 100 100 100 100 100 100 100 100 100 100 100 100 100 100 100 100 100 100 100 100 100 100 100 100 100 100 100 100 100 100 100 100

GFSSGP_prec_cloud_114.txt.gz
Cloud_Cover
0 10 22 92 61 100 8 0 0 0 0 0 0 0 0 0 13 88 6 100 100 78 92 46 5 5 0 4 0 0 5 0 99 84 99 22 5 4 5 18 89 53 5 5 6 12 24 100 92
17 74 90 68 90 10 0 33 0 0 0 0 0 0 0 3 86 87 4 59 100 90 52 100 65 44 3 5 2 0 4 0 0 57 28 36 5 5 6 5 5 87 4 0 8 2 6 1 0
0 59 32 72 56 2 1 4 0 0 0 0 0 0 0 54 100 9 40 33 100 94 5 97 100 53 20 5 5 1 0 5 0 1 0 24 92 25 6 21 15 9 0 1 0 0 1 0 0
15 19 21 98 5 0 1 1 0 0 0 0 0 92 21 86 30 0 12 64 16 63 100 7 100 39 5 5 5 2 0 4 5 0 0 2 0 0 0 0 0 0 5 5 0 2 0 0 0
8 36 4 20 5 0 1 1 2 0 1 6 36 77 97 45 27 2 16 0 100 4 6 68 100 82 20 5 5 5 1 0 0 2 0 7 0 0 0 0 0 5 5 5 5 5 5 5 4
52 13 10 5 1 0 0 2 5 1 5 5 62 100 62 95 4 4 7 5 34 11 98 24 100 99 21 5 5 5 5 0 1 2 4 11 17 0 0 3 5 15 5 5 6 5 5 5 5
29 92 13 5 4 0 0 1 4 1 39 2 80 98 31 89 26 61 14 26 10 5 100 17 18 100 75 6 44 5 5 5 5 5 29 38 4 0 5 23 91 2 16 5 2 5 4 3 99
68 100 71 22 3 3 0 3 37 7 49 49 100 100 100 41 7 90 82 100 6 54 100 0 0 66 80 5 5 16 5 6 5 6 73 100 16 32 96 100 5 5 21 0 0 0 5 3 89
91 100 49 5 5 0 1 88 87 55 9 100 100 100 100 100 100 36 72 99 35 100 100 5 0 2 67 36 6 5 5 5 31 51 98 100 5 92 100 100 48 5 5 4 5 5 5 5 5
84 52 5 5 11 43 33 18 100 93 71 100 100 99 100 25 83 66 96 84 78 100 100 10 5 2 92 69 31 11 37 42 97 100 100 16 5 96 100 100 28 5 5 5 5 5 99 100 14
5 4 8 26 86 100 96 100 100 96 63 97 100 96 100 100 86 100 100 96 93 37 100 83 40 5 48 100 83 50 64 100 100 100 24 5 5 90 84 100 99 58 5 5 5 42 100 81 33
82 5 5 86 100 100 100 100 100 100 100 100 99 100 96 78 93 100 97 100 100 98 100 100 80 17 5 100 100 58 92 100 100 98 47 5 5 26 5 72 100 78 5 51 97 100 100 70 39
100 68 18 19 87 100 100 100 100 100 100 100 100 44 84 100 100 100 100 100 76 56 100 100 93 93 7 26 100 77 100 100 88 98 53 15 39 59 73 100 92 26 12 71 100 100 100 100 100
89 54 24 99 100 100 100 100 100 100 99 58 100 63 93 97 100 100 100 98 58 92 100 100 100 100 90 62 41 100 100 97 87 100 96 80 91 100 100 100 100 100 100 100 100 100 100 100 100
100 100 100 100 98 100 100 100 100 100 97 97 8 50 25 100 100 100 100 15 54 79 100 100 100 100 100 86 50 100 100 30 94 100 100 100 100 100 100 100 100 100 100 100 100 100 100 100 100
100 100 100 100 100 100 100 100 100 79 43 97 7 100 100 100 100 100 100 62 5 40 100 100 100 100 99 99 86 68 44 100 57 98 100 100 100 100 100 100 100 100 100 100 100 100 100 100 100
100 98 100 100 100 99 70 100 78 97 96 100 82 100 100 100 100 100 100 23 5 38 100 100 100 100 99 100 100 99 100 100 100 100 100 100 100 100 100 100 100 100 100 100 100 100 100 100 95
100 100 100 99 100 100 85 89 100 95 100 100 100 100 100 100 100 100 100 6 6 100 100 100 100 100 100 100 89 95 99 100 100 100 100 100 100 100 100 100 100 100 100 100 100 100 100 100 100
100 100 100 100 100 95 87 39 40 100 100 100 100 100 100 100 100 99 100 83 6 100 100 100 100 100 100 100 98 100 100 100 100 100 100 100 100 100 100 100 100 100 100 100 95 100 100 100 100
100 100 98 100 100 100 78 18 58 100 100 100 100 100 100 100 100 100 55 7 53 100 100 100 100 100 100 100 100 100 100 100 100 100 99 100 100 100 100 100 100 100 100 100 100 100 100 100 99
100 100 100 100 32 100 100 10 5 100 100 100 100 100 100 100 100 100 84 46 100 100 100 100 100 100 100 100 100 100 100 100 100 100 100 100 100 100 100 100 100 100 100 100 100 100 100 100 100
12 96 80 100 100 100 66 76 18 54 100 100 100 100 100 100 100 100 100 83 100 100 100 100 100 100 100 100 100 100 100 100 100 100 100 100 100 100 100 100 100 100 100 100 100 100 100 100 100
5 5 19 5 93 100 100 100 100 84 17 100 100 100 100 100 100 100 99 100 100 100 100 100 100 100 100 100 100 100 100 100 100 94 100 100 100 100 100 100 100 100 100 100 100 100 100 100 100
2 1 2 62 100 77 100 97 100 98 99 100 99 100 100 100 100 100 100 100 100 100 100 100 100 100 100 100 100 100 100 100 100 100 100 100 100 100 100 100 100 100 100 100 100 100 100 100 100
97 43 41 55 22 33 97 100 97 96 100 100 100 93 98 100 100 100 100 100 100 100 100 100 100 100 100 100 100 100 100 100 100 100 100 100 100 100 100 100 100 100 100 100 100 100 100 100 100
57 96 100 98 96 93 89 93 100 56 40 100 100 100 100 100 97 100 100 100 100 100 100 100 100 100 100 100 100 100 100 100 100 100 100 100 100 100 100 100 100 100 100 100 100 100 100 100 100
42 66 100 100 100 99 99 36 100 9 6 100 100 100 100 100 98 100 100 100 100 100 100 100 100 100 100 100 100 100 100 100 100 100 100 100 100 100 100 96 100 100 100 100 100 100 100 100 100
81 75 92 94 100 94 100 59 72 84 5 77 100 100 100 100 100 92 100 100 100 100 100 100 100 100 100 100 100 100 100 100 100 100 100 100 100 100 100 100 100 100 100 100 100 100 100 100 100
8 21 72 70 93 100 100 100 99 42 5 4 100 100 100 100 100 100 100 100 100 100 100 100 100 100 100 100 100 100 100 100 100 100 100 100 100 100 100 100 100 100 100 100 100 100 100 100 100
5 60 5 75 99 100 100 100 96 57 5 5 98 100 100 100 100 100 100 100 100 100 100 100 100 100 100 100 100 100 100 100 100 100 100 100 100 100 98 100 100 100 100 100 100 100 100 100 100

GFSSGP_prec_cloud_117.txt.gz
Cloud_Cover
0 10 0 1 45 100 23 0 0 0 0 0 0 0 0 0 0 0 0 20 44 5 16 6 73 28 99 84 6 0 0 0 9 6 31 100 71 11 57 5 14 9 5 55 100 28 62 100 14
0 12 0 0 84 46 20 0 0 0 0 0 0 0 0 0 0 0 0 1 21 32 7 5 6 20 41 99 20 6 0 0 0 6 40 5 33 7 5 5 5 5 20 15 52 94 50 2 0
0 67 6 6 10 2 23 0 0 0 0 0 0 0 0 0 0 0 0 0 0 14 10 6 2 16 6 84 70 6 5 0 0 0 8 90 12 5 62 76 72 98 85 20 5 4 0 0 0
0 44 64 95 24 0 0 0 0 0 0 0 0 0 0 0 0 0 0 1 3 0 10 30 5 5 98 74 62 12 5 5 0 0 0 0 2 87 100 100 19 5 5 5 5 5 5 2 2
4 10 24 44 2 0 0 0 0 0 0 0 0 0 0 0 0 0 0 0 0 5 6 12 0 5 26 100 100 41 5 5 0 0 0 0 8 0 6 5 5 4 5 5 5 5 14 5 2
9 20 60 6 0 0 0 0 0 0 0 2 0 0 0 0 0 3 0 0 0 10 17 18 0 2 5 100 92 92 5 5 5 0 0 16 63 0 3 0 0 0 5 5 5 5 5 5 5
19 19 5 5 5 4 18 0 0 0 0 0 0 0 1 2 99 17 1 0 0 1 49 28 2 0 5 11 89 86 8 5 5 5 30 1 1 0 0 0 0 5 5 5 0 1 2 3 3
100 100 55 5 5 0 32 4 0 0 0 0 0 0 0 5 100 100 74 4 6 33 27 26 5 0 7 8 48 92 86 5 5 87 8 25 2 0 1 0 0 5 5 3 5 3 0 5 48
76 100 100 67 5 0 0 1 0 0 3 0 10 0 0 5 98 100 91 99 100 57 20 5 5 1 26 34 28 64 98 8 5 16 100 93 5 44 13 4 1 5 0 3 5 5 5 5 11
46 100 100 85 3 0 0 5 2 0 27 0 12 4 3 30 100 89 96 100 100 98 31 5 5 9 30 23 30 94 100 90 18 99 78 18 29 100 100 54 34 5 5 5 5 5 5 5 33
5 9 3 4 1 5 5 5 5 3 0 0 0 91 60 94 53 100 93 100 100 95 23 100 5 17 48 62 93 88 99 100 85 100 63 68 83 100 100 16 6 5 5 6 5 5 5 63 93
87 23 3 5 5 50 38 5 5 8 1 41 3 46 100 86 100 100 99 100 100 99 100 100 75 46 45 100 100 100 100 100 100 81 47 100 100 100 100 21 13 8 17 13 5 14 68 82 100
42 21 11 3 7 5 18 35 67 12 70 79 74 78 100 42 49 100 86 100 100 98 100 100 84 67 95 100 100 100 99 42 98 99 100 58 100 99 95 100 15 5 5 5 56 77 84 95 100
5 5 31 81 60 29 28 5 6 99 100 100 82 39 97 100 100 100 70 100 100 100 100 100 96 98 81 100 100 100 41 99 100 100 62 31 64 100 100 87 45 46 7 86 100 83 100 100 100
5 98 100 81 98 95 100 100 96 100 100 100 100 28 100 100 90 65 13 77 100 100 100 100 100 68 100 96 100 97 73 94 100 100 100 46 10 90 84 87 100 100 100 100 100 100 100 100 100
100 92 100 100 25 70 70 100 100 99 71 99 87 99 100 90 100 64 66 100 100 100 100 100 80 100 100 100 100 95 94 92 99 100 100 20 45 96 100 100 100 100 100 100 100 100 100 100 100
24 46 77 98 100 100 44 96 100 100 91 88 100 100 100 96 100 100 100 100 100 100 100 100 76 100 100 100 100 100 99 100 95 94 99 96 100 97 100 100 100 100 100 100 100 100 100 100 100
98 100 99 100 100 100 69 97 100 91 73 100 100 100 100 99 100 100 100 100 100 100 100 100 100 100 100 100 100 100 100 100 100 67 16 100 100 100 100 100 100 100 100 100 100 100 100 100 100
75 69 100 100 100 99 100 35 100 100 100 91 100 100 100 100 100 100 100 100 100 100 40 90 100 100 100 100 100 100 100 100 100 100 84 100 100 100 100 100 100 100 100 100 100 100 100 100 100
94 95 76 100 100 100 100 100 94 100 100 100 77 93 100 100 100 100 100 100 100 48 10 100 100 100 100 100 100 100 100 100 100 100 100 100 100 100 100 100 100 100 100 100 100 100 100 100 100
78 87 84 100 93 100 82 98 18 100 100 100 100 94 100 100 100 100 100 100 100 94 83 100 100 100 100 100 100 100 100 100 99 100 100 100 100 100 100 100 100 100 100 100 100 100 100 100 100
5 12 18 6 34 100 100 99 99 100 100 100 100 100 100 100 100 100 100 100 100 100 92 100 100 100 100 100 100 100 100 100 100 100 100 100 100 100 100 100 100 100 100 100 100 100 100 100 100
13 0 1 5 5 100 100 100 100 100 100 100 100 100 100 100 100 100 100 100 100 97 100 78 100 100 100 100 100 100 100 100 100 100 100 100 100 100 100 100 100 100 100 100 100 100 100 100 100
4 5 0 0 18 30 99 100 100 100 100 100 100 100 100 100 100 100 100 100 100 100 100 100 100 100 100 100 100 100 100 100 100 100 100 100 100 100 100 100 100 100 100 100 100 96 100 100 100
100 29 65 16 22 86 75 99 100 100 100 100 100 100 100 100 100 100 100 100 100 100 100 100 100 100 100 100 100 100 100 100 100 100 100 100 100 100 100 100 100 100 100 100 100 100 100 100 100
86 83 100 100 89 87 98 80 100 100 100 100 100 100 100 100 100 100 100 100 100 100 100 100 100 100 100 100 100 100 100 100 100 100 100 100 100 100 100 100 100 100 100 100 100 100 100 100 100
6 100 94 100 100 74 100 78 95 74 100 100 100 100 100 100 100 100 100 100 100 100 100 100 100 100 100 100 100 100 100 100 100 100 100 100 100 100 100 100 100 100 100 100 100 100 100 100 100
6 11 68 100 100 100 95 90 100 21 35 100 100 100 100 100 100 100 100 100 100 100 100 100 100 100 100 100 100 100 100 100 100 100 100 100 100 100 100 100 100 100 100 100 100 100 100 100 100
4 5 10 36 88 100 93 100 100 100 78 70 100 100 100 100 100 100 100 100 100 100 100 100 100 100 100 100 100 100 100 100 100 100 100 100 100 100 96 100 100 100 100 100 100 100 100 100 100
5 4 5 5 65 73 50 100 100 100 100 36 9 100 100 100 100 100 100 100 100 100 100 100 100 100 100 100 100 100 100 100 100 100 100 100 100 100 100 100 100 100 100 100 100 100 100 100 100

GFSSGP_prec_cloud_120.txt.gz
Cloud_Cover
0 0 0 0 43 100 8 0 0 0 0 0 0 0 0 0 0 0 0 0 5 4 40 5 5 5 5 4 0 4 5 4 0 0 5 5 5 5 63 86 63 5 11 57 12 100 100 100 89
4 0 0 0 86 33 0 0 0 0 0 0 0 0 0 0 0 0 0 0 0 33 47 24 13 6 6 5 5 5 5 5 5 0 1 5 5 80 19 21 32 6 11 5 88 100 34 10 0
0 3 0 1 72 2 0 0 0 0 0 0 0 0 0 0 0 0 0 0 0 30 61 32 0 8 5 5 5 5 5 5 4 5 0 5 65 94 66 13 45 10 5 78 97 12 5 0 0
4 0 2 71 23 0 0 0 0 0 0 0 0 0 0 0 0 0 0 0 0 16 52 11 5 0 2 5 5 5 5 5 0 5 4 0 5 48 28 5 37 46 99 16 5 5 5 4 1
5 5 5 99 4 0 0 0 0 0 0 0 0 0 0 0 1 22 8 0 0 9 53 12 4 5 0 4 5 21 10 5 5 5 5 5 1 1 36 20 87 100 32 5 2 5 5 5 5
2 5 10 28 5 4 0 0 0 0 0 0 0 0 0 0 35 100 100 92 34 17 35 35 38 1 0 0 0 5 97 33 5 5 5 5 5 5 7 3 0 5 5 5 0 5 5 2 3
5 1 6 5 4 0 0 0 0 0 0 0 0 0 0 0 16 100 100 100 100 61 29 48 100 20 2 13 0 0 19 100 91 6 5 5 5 5 8 0 5 2 2 3 5 5 5 0 3
22 6 12 1 2 2 4 0 0 0 0 0 0 0 0 0 6 96 100 100 100 99 51 42 34 23 28 35 2 0 1 31 100 83 35 5 5 5 1 0 0 0 3 3 5 10 5 0 0
72 87 44 5 6 3 5 3 0 0 0 0 0 0 0 0 3 56 94 100 100 100 90 88 42 47 32 24 43 0 1 5 85 47 5 5 5 5 5 5 5 2 5 5 5 15 5 5 5
98 81 70 5 5 4 0 1 5 0 0 0 0 0 3 4 4 83 100 100 100 100 100 95 98 69 36 12 41 33 40 32 38 99 79 16 5 5 5 5 5 5 5 5 5 52 55 6 57
65 70 5 0 0 0 1 3 0 0 0 0 0 0 18 11 0 5 37 100 100 100 100 100 100 97 95 31 59 56 69 71 56 98 100 10 22 22 5 8 22 13 5 14 6 5 51 61 57
96 6 5 3 0 3 5 5 0 4 0 1 0 0 0 0 1 22 100 100 100 100 100 100 100 100 100 100 96 100 100 93 81 100 100 99 40 5 5 14 32 22 28 17 5 5 42 88 57
95 5 5 5 3 0 4 2 5 2 9 15 3 0 0 0 28 41 99 96 91 100 100 100 100 100 89 100 98 100 100 86 93 100 100 100 100 54 5 20 21 18 21 10 27 47 26 57 64
69 33 5 5 5 4 4 2 5 3 5 1 2 2 0 0 6 71 92 73 82 92 100 100 100 100 100 100 100 100 100 100 54 100 100 100 100 100 77 6 7 16 12 46 68 62 90 75 79
98 36 5 45 88 76 36 82 48 75 23 5 26 62 5 0 9 99 99 100 100 100 100 100 100 100 100 100 100 100 100 99 24 100 100 100 100 100 100 60 11 11 91 94 87 100 100 100 100
15 29 53 74 67 50 60 98 58 55 94 81 11 23 5 5 5 96 100 100 55 100 100 100 100 100 100 100 100 100 100 97 5 95 98 75 100 100 100 100 98 44 56 98 100 100 100 100 100
40 87 97 100 99 81 99 91 100 45 54 95 34 83 95 80 94 49 95 92 96 100 100 100 100 100 100 100 100 100 100 84 32 84 100 100 100 100 100 100 100 100 100 100 100 100 100 100 100
88 96 89 100 100 100 100 100 91 98 96 81 7 98 100 100 20 16 100 26 65 100 100 100 100 100 100 100 100 100 100 100 96 100 94 88 92 100 100 100 100 100 100 100 100 100 100 100 100
61 99 82 97 100 100 100 100 100 100 91 10 100 100 100 100 53 100 94 49 100 100 100 100 100 100 100 100 100 100 100 100 100 100 67 100 99 98 46 100 100 100 100 100 100 100 100 100 100
100 77 17 42 100 100 100 99 100 100 99 100 100 100 100 100 100 100 100 100 100 100 100 100 100 100 100 100 100 100 100 100 100 100 100 99 100 80 18 14 100 100 100 100 100 100 100 100 100
28 86 79 28 89 100 96 98 100 100 100 100 100 100 100 100 100 100 100 100 100 100 48 100 100 100 100 100 100 100 100 100 100 100 100 100 98 100 100 98 87 100 100 100 100 100 100 100 100
5 33 98 6 22 35 92 100 100 100 100 100 100 100 100 100 100 100 100 100 100 100 100 100 100 100 99 100 100 100 100 100 100 100 100 100 100 100 100 100 100 100 100 100 100 100 100 100 100
8 0 0 3 3 45 97 76 100 100 100 100 100 100 100 100 100 100 100 100 100 100 100 100 100 100 100 100 100 100 100 100 100 100 100 100 100 100 100 100 100 100 100 100 100 100 100 100 100
76 5 1 0 2 100 88 100 100 100 100 100 100 100 100 100 100 100 100 100 100 100 100 100 100 100 100 100 100 100 100 100 100 100 100 100 100 100 100 100 100 100 100 100 100 100 100 100 100
83 5 100 5 94 100 100 100 100 100 100 100 100 100 100 100 100 100 100 100 100 100 97 100 100 100 100 100 100 100 100 100 100 100 100 100 100 100 100 100 100 100 100 100 100 100 100 100 100
53 99 100 54 100 100 95 100 100 100 100 100 100 100 100 100 100 100 100 100 100 100 100 100 100 100 100 100 100 100 100 100 100 100 100 100 100 100 100 100 100 100 100 100 100 100 100 100 100
98 100 100 100 87 11 91 100 100 100 100 100 100 100 100 100 100 100 100 100 100 100 100 100 100 100 100 100 100 100 100 100 100 100 100 100 100 100 100 100 100 100 100 100 100 100 100 100 100
10 71 93 96 47 74 98 90 100 100 100 100 100 100 100 100 100 100 100 100 100 100 100 100 100 100 100 100 100 100 100 100 100 100 100 100 100 100 100 100 100 100 100 100 100 100 100 100 99
0 5 30 58 70 44 78 100 100 100 99 100 100 100 100 99 100 100 100 100 100 100 99 100 100 100 100 100 100 100 100 100 100 100 100 100 100 100 100 100 100 100 100 100 100 99 100 100 100
0 4 5 5 7 100 17 100 100 100 100 100 100 100 100 100 100 100 100 100 93 100 100 100 100 100 100 100 100 100 100 100 100 100 100 100 100 100 100 100 100 100 100 100 100 97 100 100 100